ECMWFNIL_sfc_thetae_000.txt.gz
Theta_e
365 365 362 361 360 359 359 358 357 356 357 355 353 353 352 355 354 353 352 351 350 349 349 349 347 346 343 345 345 345 344 344 344 344 344 342 341 340 340 339 340 339
366 366 364 362 361 361 362 359 360 358 357 358 357 355 356 355 352 352 351 349 350 348 349 347 348 346 345 344 344 343 343 345 344 344 345 344 343 343 340 341 340 341
367 366 365 362 358 360 359 361 361 360 357 358 358 357 354 355 353 353 352 350 349 348 348 347 347 347 345 345 344 343 342 344 344 342 345 343 344 341 343 339 341 340
370 368 364 362 360 359 360 359 360 362 359 358 357 356 354 353 353 352 350 349 349 348 348 347 347 345 346 345 344 342 342 342 341 342 343 344 344 342 341 341 339 339
370 369 367 364 362 361 361 361 359 361 357 357 359 357 356 354 352 351 350 350 350 349 349 347 345 344 346 345 345 342 342 340 341 343 341 341 343 342 340 340 339 338
373 371 370 367 366 365 363 362 362 361 362 359 360 357 355 354 352 348 349 349 349 347 346 346 345 344 344 345 345 344 341 339 340 342 340 341 340 340 339 339 339 338
370 370 369 368 369 369 366 365 365 364 361 361 359 355 354 353 352 350 350 349 348 348 346 346 346 344 343 344 343 342 342 342 342 342 341 340 341 340 339 339 340 338
371 371 370 370 369 368 366 365 363 359 358 358 354 355 353 351 352 351 350 349 347 347 348 346 346 345 340 341 341 340 342 341 341 341 341 340 340 339 339 339 339 338
371 370 369 368 367 366 361 359 358 356 356 352 351 351 351 350 349 349 350 351 349 348 348 347 345 343 342 339 340 342 342 341 340 341 340 338 337 338 338 339 338 338
368 368 367 364 362 361 358 357 358 353 351 348 343 347 345 346 347 347 347 347 347 347 348 346 344 343 341 340 341 342 342 341 341 341 340 339 338 339 338 338 337 337
368 366 364 362 360 357 355 352 350 349 343 340 341 343 343 345 345 345 345 346 346 346 346 345 342 343 342 341 342 342 342 341 341 342 341 340 340 340 338 339 337 336
364 361 359 356 353 352 349 346 342 342 340 340 340 342 341 344 343 342 341 342 344 345 345 344 344 343 343 343 341 341 342 341 341 341 340 340 340 340 340 340 338 337
361 358 354 351 352 351 345 341 338 339 341 340 338 337 338 340 347 344 342 343 343 344 344 344 344 343 343 345 344 343 342 342 340 340 340 340 340 340 339 338 337 336
361 361 354 350 349 352 343 340 340 338 342 345 344 340 343 344 339 336 336 340 342 343 344 344 344 343 344 345 346 344 342 342 341 340 340 339 339 341 339 336 335 335
358 355 354 351 348 345 340 337 337 337 342 345 346 342 341 339 335 340 339 341 343 344 343 344 344 344 344 345 345 344 344 342 340 340 340 339 337 335 340 339 340 337
355 353 348 345 343 343 341 339 339 336 339 344 343 341 337 336 334 335 339 340 342 343 344 344 344 344 341 334 339 345 345 344 341 340 339 339 337 338 338 339 338 338
350 349 348 346 348 348 347 342 340 338 337 340 341 339 336 335 335 334 337 341 341 343 344 344 345 344 332 329 330 333 343 344 342 342 340 339 337 339 337 337 340 340
347 346 346 347 349 350 348 345 343 343 344 344 343 340 338 338 337 338 341 341 342 344 342 341 344 334 327 327 328 328 331 341 342 342 340 340 341 338 340 342 341 341
347 346 346 346 348 347 348 347 347 347 345 344 344 344 342 340 338 341 343 344 344 343 340 339 342 332 326 325 326 326 325 329 334 338 340 341 342 343 342 341 342 342
348 346 344 344 345 346 346 347 347 346 344 343 342 344 343 342 343 343 344 345 345 343 342 343 345 330 324 322 323 322 323 328 332 332 336 338 338 340 341 341 342 342
350 346 343 343 344 345 346 347 347 347 345 344 342 343 343 343 343 344 343 344 344 341 343 343 343 324 323 322 319 319 321 328 335 336 338 340 341 341 340 339 340 339
350 348 346 345 344 344 344 344 346 346 345 345 343 342 343 342 343 343 343 343 342 342 341 343 339 323 322 321 319 319 322 333 338 339 339 340 342 343 341 341 341 339
348 346 345 345 344 344 344 344 344 345 347 348 345 341 341 341 342 341 343 343 342 342 341 341 340 328 320 318 318 318 325 340 340 338 338 337 337 340 340 340 340 338
347 345 345 345 346 345 346 346 347 348 348 347 344 341 339 340 342 342 343 343 340 340 339 340 339 330 317 315 315 317 328 340 342 341 337 334 335 340 340 338 336 332
347 345 344 345 346 346 346 345 346 346 346 347 345 345 343 344 341 340 341 341 339 339 336 335 335 330 314 314 314 315 331 342 339 337 335 334 333 334 338 335 334 331
349 348 347 346 345 345 344 343 344 344 344 344 344 344 342 341 339 339 338 338 338 338 337 336 334 339 335 313 312 312 321 341 340 336 333 331 331 333 333 334 333 332

ECMWFNIL_sfc_thetae_003.txt.gz
Theta_e
365 365 363 361 361 362 362 359 358 358 358 356 355 356 354 357 354 352 349 350 349 348 349 350 349 348 345 346 346 345 345 345 344 343 344 342 342 340 338 338 339 340
365 366 365 363 363 363 363 361 361 359 357 357 357 357 356 355 351 351 350 349 349 348 349 348 349 348 346 345 345 344 343 343 343 342 342 343 344 344 340 342 340 342
364 365 363 361 359 361 359 360 361 358 356 355 356 356 354 354 354 352 352 350 349 347 348 348 347 346 345 346 346 344 342 344 342 341 345 345 344 343 344 339 339 340
365 365 363 362 361 360 360 359 358 358 357 354 353 354 354 352 353 352 352 351 350 348 349 347 346 345 345 345 345 344 343 343 342 344 343 345 345 344 343 343 341 340
365 364 363 362 362 362 361 357 355 355 354 356 353 356 355 354 353 351 351 349 350 348 348 346 345 345 347 345 345 344 344 341 342 346 344 340 343 343 342 342 341 339
366 367 367 364 363 362 357 355 355 356 354 352 355 356 355 354 350 349 350 347 346 346 345 344 344 343 343 345 345 345 342 340 341 343 340 340 340 339 338 340 340 339
362 364 365 363 361 360 359 356 356 357 355 359 361 359 357 353 351 350 350 349 348 348 346 347 347 345 344 345 347 346 347 344 343 343 341 341 342 341 340 340 340 339
363 362 363 363 361 361 357 356 357 356 357 360 358 357 356 351 351 348 349 349 347 347 350 349 350 349 345 344 345 344 343 342 342 342 341 341 342 341 341 340 340 339
364 363 364 362 357 355 355 358 358 359 360 357 355 355 356 354 353 351 351 350 348 348 349 347 348 347 346 344 343 343 341 341 341 342 341 340 340 340 340 340 339 339
367 364 360 358 356 358 359 358 361 357 357 356 355 357 354 356 356 352 352 351 348 348 347 348 348 346 346 344 342 341 341 341 342 342 341 341 340 340 339 339 338 338
364 362 360 359 358 357 356 360 356 352 353 354 354 351 351 353 354 355 355 353 349 349 349 349 348 348 346 342 340 340 341 341 342 343 341 341 341 341 340 340 338 337
365 361 362 361 356 355 358 359 354 353 352 351 349 345 351 352 353 352 352 353 352 352 351 350 349 348 345 342 338 340 341 341 342 342 341 342 342 341 342 342 340 340
363 363 365 362 360 359 361 359 355 353 352 349 350 350 350 350 350 350 350 351 351 351 349 349 347 344 342 341 341 342 342 343 342 341 340 341 342 340 339 340 340 340
364 366 364 364 361 364 361 357 356 354 354 354 355 353 349 348 347 347 349 348 348 347 347 345 342 340 340 340 341 342 343 343 342 339 338 340 342 342 341 338 338 337
369 367 367 365 364 362 359 356 356 358 358 359 356 352 348 347 346 346 346 344 344 342 340 340 339 340 340 339 339 342 343 342 342 342 341 340 341 341 342 341 341 340
370 368 367 365 365 363 360 357 355 356 356 357 354 351 349 348 347 346 345 342 342 342 341 339 339 341 335 329 334 341 344 344 343 343 342 341 341 341 340 339 338 338
369 366 365 363 361 360 358 358 357 357 357 355 353 353 351 351 349 349 345 344 342 342 341 341 341 338 330 328 330 335 344 345 344 343 342 341 341 341 341 340 339 339
363 363 362 361 359 357 357 356 357 357 356 355 353 352 353 353 351 350 346 342 341 341 342 342 339 331 327 327 330 330 336 345 344 343 341 342 340 338 339 339 339 339
363 361 360 359 358 357 356 355 354 355 355 353 351 353 353 352 351 348 345 342 343 343 341 340 339 329 326 327 328 328 331 340 342 342 341 341 341 341 340 341 343 344
363 361 360 359 358 357 356 355 355 353 353 353 353 354 353 351 349 347 346 345 344 344 342 340 341 328 325 325 326 327 329 333 344 344 343 341 343 342 340 341 342 341
363 360 359 359 360 359 358 356 354 353 351 350 348 349 350 349 347 346 346 346 344 343 342 340 338 324 324 324 324 323 324 331 342 343 343 344 344 344 342 341 342 340
360 359 359 360 359 359 358 357 357 355 352 351 349 348 349 348 347 344 344 345 344 343 342 340 340 320 323 322 321 321 323 337 341 343 343 342 343 342 341 343 343 341
358 358 359 359 359 358 357 356 355 356 355 354 350 347 345 344 345 343 346 345 344 344 342 342 339 327 320 319 319 319 324 340 341 342 343 343 343 343 344 343 341 337
358 356 357 356 356 355 355 355 355 355 354 353 349 346 343 343 344 345 346 346 344 343 341 340 339 330 316 316 316 316 325 340 341 340 341 338 341 344 344 343 342 338
356 356 356 355 354 354 353 351 351 351 351 351 348 348 347 347 344 342 341 343 339 342 340 339 339 332 314 315 314 314 326 341 341 339 335 341 343 342 341 340 341 337
357 358 357 356 354 354 353 352 351 350 348 347 347 346 344 344 343 342 342 341 342 343 342 340 339 342 329 314 313 313 317 342 339 341 337 337 332 332 336 336 337 336

ECMWFNIL_sfc_thetae_006.txt.gz
Theta_e
366 366 365 364 363 362 363 362 360 359 359 358 357 358 357 359 360 355 354 352 351 351 351 354 352 354 351 352 351 350 352 346 351 347 347 349 344 342 341 345 347 350
366 366 366 365 366 365 365 363 362 360 361 361 359 360 360 358 356 355 352 352 352 350 352 351 353 351 350 348 349 349 350 351 347 346 347 347 346 349 342 348 347 349
366 366 365 363 363 362 359 362 363 361 361 360 361 359 357 356 354 354 353 351 350 349 351 351 351 351 349 349 348 347 347 347 347 343 351 346 348 345 348 341 348 347
366 366 364 362 362 362 362 362 362 361 359 359 355 356 354 352 353 351 353 355 351 351 349 349 348 347 348 348 350 348 346 347 346 347 347 353 349 346 346 347 343 342
365 365 364 363 362 363 362 360 357 358 355 357 355 355 355 354 353 350 352 351 353 350 349 348 349 347 348 347 348 349 347 346 347 348 347 345 348 346 345 344 343 342
365 366 366 363 363 362 361 358 357 357 354 354 353 355 355 354 351 352 350 350 349 346 347 346 346 345 346 347 346 346 345 343 343 346 344 344 344 345 344 344 342 341
364 365 365 364 363 363 360 358 357 357 354 354 355 353 354 352 351 352 351 350 347 347 345 345 345 344 346 347 346 345 346 345 346 346 343 343 344 343 342 344 348 348
362 365 365 364 362 362 359 357 357 357 357 355 353 355 354 352 353 352 352 350 347 347 347 346 346 347 344 346 346 345 343 344 344 346 347 347 348 346 346 345 347 344
363 363 364 363 360 359 356 355 357 357 356 354 352 354 355 354 354 351 351 350 348 348 348 347 348 347 345 344 345 345 343 342 342 343 344 342 342 344 345 346 343 342
363 363 360 359 357 357 354 354 354 354 355 355 354 355 355 357 357 351 351 350 348 349 348 347 348 347 346 345 345 345 344 344 344 344 343 343 342 342 341 342 341 342
361 361 360 359 357 356 354 353 353 351 353 357 358 356 358 359 358 352 351 350 348 350 349 348 348 348 347 345 345 345 345 343 343 344 344 344 344 344 344 344 343 341
361 359 358 359 358 356 354 353 352 352 353 355 356 357 359 359 356 352 352 350 349 349 348 348 348 348 347 345 343 342 342 341 342 343 343 344 344 344 344 344 343 343
359 359 360 360 359 358 358 355 352 352 353 355 356 356 356 359 355 353 352 349 348 347 347 347 348 348 347 346 343 341 340 340 340 342 342 343 343 342 341 342 342 342
360 362 362 361 360 360 358 356 355 355 356 357 356 354 355 357 355 353 351 350 348 348 347 348 349 347 348 346 343 340 341 341 341 341 341 342 342 342 341 338 340 341
363 364 364 363 360 358 358 357 356 358 360 359 356 355 357 357 356 355 352 350 351 350 350 350 348 345 346 344 341 340 340 340 342 342 342 342 341 340 342 343 345 344
365 366 365 364 362 359 359 359 357 358 359 358 356 355 355 355 353 352 350 349 350 350 349 349 347 346 339 331 334 339 340 340 341 342 342 341 341 341 341 344 343 341
366 367 367 365 363 362 360 359 360 360 358 357 356 356 355 353 351 349 346 345 348 347 346 346 345 341 328 326 329 333 339 341 341 342 343 343 342 341 341 341 341 340
366 367 366 366 365 363 362 361 361 360 359 358 358 358 355 353 349 347 345 345 345 345 343 341 340 331 324 325 327 328 333 342 342 342 342 342 341 341 342 341 340 339
367 368 367 366 366 365 365 364 362 361 361 361 359 358 354 351 348 344 342 344 343 342 339 339 338 327 323 323 325 325 329 337 342 343 343 341 341 341 342 341 342 341
367 368 367 367 366 367 367 364 362 360 359 359 358 357 355 352 349 348 346 346 345 343 342 341 339 323 322 321 323 325 327 333 343 343 343 342 342 342 341 340 341 340
369 370 368 367 368 366 364 363 361 360 359 358 354 354 354 352 351 352 348 346 345 344 343 343 341 321 321 321 322 322 325 331 343 343 344 344 344 342 340 339 339 339
370 370 367 365 364 364 363 361 360 359 358 357 354 353 355 353 351 350 347 345 346 345 343 345 340 319 321 321 321 321 325 336 343 343 343 344 342 342 343 345 344 343
368 366 364 363 363 361 361 360 359 359 358 357 352 350 349 349 349 346 347 345 345 346 344 343 340 322 320 319 320 320 325 340 343 342 341 341 340 342 345 344 342 343
367 365 364 363 362 361 360 360 359 359 358 357 353 349 345 346 348 347 347 346 345 344 342 342 342 325 317 317 319 318 327 340 340 340 340 340 342 343 342 342 342 346
365 364 363 362 361 361 360 359 359 359 359 358 354 352 349 349 347 345 345 345 343 344 343 341 340 329 314 316 315 315 328 341 341 340 340 340 340 339 338 336 340 344
365 364 363 362 361 361 361 360 359 358 357 355 353 352 350 348 347 344 344 344 344 345 345 341 342 334 322 314 313 314 321 341 342 341 338 338 336 337 338 339 341 341

ECMWFNIL_sfc_thetae_009.txt.gz
Theta_e
358 358 357 355 354 354 354 352 353 353 352 352 352 351 352 352 353 349 348 349 344 343 343 343 342 343 342 340 343 341 339 339 338 336 336 338 335 336 337 336 337 338
359 359 358 356 356 354 356 354 353 353 352 352 352 351 352 351 351 349 348 345 344 342 343 341 340 341 340 339 339 338 339 337 339 340 337 338 334 334 335 334 335 339
359 358 358 356 355 354 356 354 354 353 352 352 352 351 351 352 351 349 346 343 342 342 343 340 341 342 340 340 339 339 338 337 336 338 338 337 337 336 339 338 339 338
359 359 358 357 356 355 356 355 353 353 352 353 351 353 351 352 350 348 345 348 342 342 342 341 341 341 340 340 338 338 338 336 337 337 339 339 338 335 337 337 338 336
358 359 358 358 357 357 356 355 353 353 352 353 352 353 351 349 347 346 345 344 342 342 341 342 341 340 340 340 337 336 338 336 337 337 336 336 339 338 338 338 336 336
359 359 359 358 356 356 355 354 354 353 352 353 352 352 350 348 347 345 345 343 343 343 341 342 340 340 340 339 340 337 337 337 336 337 336 334 338 339 340 337 335 334
358 359 358 358 356 356 354 354 354 353 352 352 351 350 349 347 347 344 344 344 343 342 341 341 340 339 339 338 338 339 337 337 336 338 337 336 337 338 338 337 336 335
358 358 359 358 356 356 354 353 354 353 352 351 349 349 349 347 347 344 345 344 342 341 341 341 340 339 339 338 337 336 338 339 337 337 335 335 335 333 334 336 338 336
358 358 358 357 356 355 355 354 353 352 352 350 349 348 349 348 346 345 344 343 342 341 340 340 340 339 339 338 337 336 336 337 338 338 336 334 335 334 334 335 334 335
357 357 357 357 356 355 355 354 354 353 352 350 349 348 348 348 347 346 345 343 342 340 340 340 339 339 339 339 338 338 336 336 336 337 337 337 336 336 336 337 335 333
356 356 356 356 356 356 355 355 354 353 352 350 349 348 348 348 347 346 345 343 342 340 340 340 340 339 338 339 339 339 338 337 336 336 336 336 336 335 339 335 335 334
356 356 356 356 356 355 355 354 354 353 352 351 349 347 348 348 347 346 346 344 342 341 341 340 340 340 339 338 339 339 338 338 337 337 337 336 336 336 336 336 335 334
356 355 355 356 356 355 355 354 353 352 352 350 350 348 348 347 348 346 346 344 343 342 341 341 341 341 339 338 338 339 339 338 337 337 337 337 338 338 338 338 337 337
356 356 356 356 356 356 354 354 353 351 351 350 350 348 347 348 349 347 345 344 343 343 342 342 341 341 340 339 339 338 338 337 336 336 336 336 337 337 337 337 337 336
357 356 356 356 356 355 354 353 352 350 350 349 349 349 349 349 351 349 346 344 343 343 343 343 342 342 342 340 338 337 336 335 334 335 335 335 335 336 336 335 335 336
356 356 356 356 355 355 354 353 351 349 348 347 348 349 349 350 352 350 347 345 343 342 342 343 342 343 338 330 333 337 335 335 334 333 334 334 335 335 335 335 334 335
355 355 355 355 355 355 354 353 351 350 348 348 348 349 349 350 351 349 347 345 343 342 341 341 342 343 331 328 330 333 335 334 333 334 334 335 335 334 333 334 335 335
355 355 355 354 355 354 354 354 352 350 348 348 350 349 349 350 350 349 348 346 344 343 341 341 341 333 327 326 328 328 332 335 334 335 336 335 335 334 334 335 335 335
355 355 355 354 354 355 354 354 352 351 349 349 351 351 349 349 349 348 347 346 345 343 342 343 342 331 325 325 326 326 328 334 335 335 336 336 336 335 335 335 334 334
355 355 354 355 355 355 354 353 352 351 351 351 352 351 349 347 346 346 345 344 343 343 343 343 342 324 322 322 324 327 326 331 335 336 336 336 336 336 336 336 335 334
354 355 355 356 356 356 355 353 352 352 352 352 352 351 348 344 343 342 342 342 342 341 340 339 341 320 320 320 321 322 325 329 334 337 337 337 337 337 336 337 336 336
354 355 355 356 357 357 356 354 353 353 353 353 351 349 347 345 343 342 340 340 340 340 339 337 338 319 319 318 320 321 323 329 332 335 336 337 337 337 336 336 335 334
353 355 356 357 358 357 356 356 355 353 353 352 348 347 345 344 344 343 342 340 340 340 339 338 336 320 317 316 319 320 323 329 329 333 335 336 336 335 336 335 335 334
353 356 357 358 358 357 357 357 356 355 353 349 345 345 345 345 346 345 344 342 340 340 339 338 335 320 315 315 317 317 322 328 329 331 334 335 334 336 336 336 338 344
355 357 358 359 358 358 358 356 355 354 351 347 345 345 346 346 345 344 343 341 341 341 341 339 334 321 313 315 315 315 322 329 331 332 333 334 334 334 333 334 335 341
358 359 359 359 358 358 358 356 355 353 350 347 345 345 344 344 343 342 341 341 341 341 340 340 336 327 320 313 314 314 318 332 334 333 333 333 334 333 331 330 330 330

ECMWFNIL_sfc_thetae_012.txt.gz
Theta_e
354 353 352 351 350 351 350 350 351 351 352 352 353 352 352 352 353 352 352 350 347 345 344 342 342 341 341 339 338 337 337 334 334 334 334 333 330 331 334 333 332 330
354 354 354 353 351 352 351 352 351 352 352 352 353 353 353 352 352 352 350 348 347 344 342 340 340 340 339 337 337 335 335 334 332 336 333 332 332 332 332 332 332 332
354 354 354 352 351 351 351 352 352 352 352 352 352 352 352 353 351 351 349 347 345 343 341 340 339 339 338 337 337 335 334 334 332 334 334 333 332 331 331 331 331 334
354 354 354 354 353 352 352 352 352 351 351 350 350 351 352 352 351 349 348 351 344 342 341 339 338 338 337 337 336 334 334 334 334 334 334 334 334 332 332 334 335 335
354 354 355 355 354 353 353 351 351 351 350 350 351 350 351 351 350 348 347 346 342 341 340 338 338 337 337 336 335 334 334 333 334 334 333 332 334 334 333 335 333 331
355 355 355 355 355 353 352 352 351 351 350 350 350 351 350 351 349 348 346 345 341 340 339 338 338 337 336 335 335 334 334 333 334 333 333 333 334 336 335 335 333 332
354 355 355 356 355 354 353 352 351 351 351 350 350 350 350 350 349 348 346 345 340 340 338 337 337 337 336 335 334 333 334 333 333 333 332 332 334 336 335 334 333 332
355 355 356 356 355 354 353 353 352 351 351 351 350 350 349 349 348 348 346 344 341 339 338 338 338 337 336 336 334 333 333 335 333 332 332 331 332 334 334 336 333 331
355 355 355 355 355 354 353 353 353 351 351 350 350 349 350 348 348 347 346 344 341 340 339 338 338 337 337 336 335 334 333 334 334 333 332 331 331 332 334 334 333 333
355 355 355 355 354 354 354 353 353 352 352 351 350 350 349 348 347 346 345 343 341 340 339 338 338 337 336 336 336 335 334 334 333 333 333 332 332 332 332 332 332 332
354 355 354 354 354 355 354 354 353 353 352 350 350 349 349 348 346 345 344 343 341 340 339 338 338 337 336 336 336 336 336 335 334 334 334 333 333 332 335 332 332 331
353 354 354 354 354 354 354 354 353 352 352 351 350 349 348 348 346 345 343 342 341 340 339 338 338 338 337 336 336 335 335 336 335 335 335 335 334 333 333 334 333 332
353 353 354 354 355 355 355 354 353 353 352 351 350 349 348 347 346 345 344 342 341 340 339 339 338 338 338 337 336 336 335 335 335 335 334 335 335 335 334 334 333 333
354 354 354 355 355 355 355 354 354 353 352 351 350 348 347 347 346 345 344 343 342 340 340 339 338 338 338 337 337 336 335 334 334 334 334 334 334 334 335 334 334 333
354 354 354 354 355 355 354 353 353 353 352 351 350 348 348 347 347 345 344 343 342 341 340 340 339 338 338 338 337 336 336 335 334 334 334 333 334 334 335 335 336 336
354 354 354 354 353 353 353 354 353 352 352 350 349 348 347 347 346 345 344 343 342 341 340 340 339 339 335 327 331 337 337 336 336 335 334 334 334 334 334 335 336 336
354 354 354 353 353 353 353 353 353 352 351 350 349 348 347 346 346 345 344 343 342 341 340 340 340 339 328 325 328 332 337 337 335 335 335 334 334 334 333 334 334 334
353 353 353 353 353 352 353 353 352 351 350 349 348 347 347 346 345 345 345 344 343 342 341 340 340 331 325 325 327 328 332 337 336 334 334 334 334 334 334 334 334 333
353 353 353 352 352 353 353 352 352 350 349 347 346 347 347 346 345 346 345 344 343 341 341 341 341 329 324 324 326 327 329 334 335 334 334 334 334 333 333 333 333 333
353 352 352 352 353 352 352 352 351 350 349 347 347 346 346 346 346 346 346 345 344 342 341 341 341 327 323 322 324 325 328 332 335 335 334 333 333 333 333 333 332 332
353 352 352 352 352 352 352 351 351 350 348 347 346 346 345 345 346 346 346 346 345 344 342 341 342 323 321 320 321 321 325 330 335 336 333 333 333 334 333 333 333 333
353 352 351 351 352 352 351 351 351 350 349 348 347 347 346 346 347 347 347 346 345 344 343 341 341 319 320 319 319 320 324 334 334 333 333 333 333 333 333 334 334 334
353 352 351 351 351 351 351 351 351 350 350 349 347 347 346 346 346 347 347 347 345 344 343 342 336 320 318 317 318 318 324 334 333 332 331 331 331 332 334 334 334 334
353 352 351 351 351 351 351 351 352 352 351 350 348 347 346 346 346 346 346 346 344 343 344 341 335 319 315 315 317 317 325 333 331 330 329 330 331 334 334 334 336 342
352 352 352 351 351 352 352 351 351 351 351 351 350 349 348 347 346 345 343 343 344 344 342 340 333 318 313 315 316 316 326 334 333 331 329 330 332 333 333 334 334 340
351 351 352 352 352 352 353 353 353 352 351 350 350 349 348 347 345 343 341 341 341 341 341 340 332 324 320 314 315 315 320 335 334 330 328 329 332 332 331 330 332 333

ECMWFNIL_sfc_thetae_015.txt.gz
Theta_e
351 351 350 349 349 348 347 347 348 348 348 349 349 350 351 352 353 353 354 354 353 351 349 346 345 343 343 339 338 337 337 336 336 334 332 332 330 331 333 331 329 330
351 351 352 350 349 350 349 348 349 349 348 349 350 351 352 352 352 353 353 352 352 351 349 346 344 342 340 338 337 335 335 335 333 336 333 330 329 329 332 331 331 328
351 351 351 350 349 349 349 349 349 349 349 350 351 351 352 353 352 352 352 352 350 349 347 345 342 341 340 338 336 336 335 332 332 333 334 331 329 329 330 330 330 329
351 351 351 351 350 349 350 349 348 349 349 349 350 352 353 353 352 351 351 354 348 347 346 344 342 340 339 338 336 334 334 333 333 332 333 332 331 330 329 329 331 331
351 351 351 351 351 351 350 349 348 349 349 350 350 351 352 352 351 350 350 350 347 346 344 343 340 339 338 337 336 334 333 333 332 331 331 330 331 331 329 331 330 330
351 352 352 352 352 351 350 349 349 349 349 349 350 351 351 351 351 350 349 348 347 345 343 341 338 338 337 336 335 334 333 332 332 331 330 330 330 332 331 331 331 329
350 351 351 352 352 352 351 350 350 350 350 350 350 349 350 350 350 349 348 348 346 345 343 340 337 336 335 335 335 333 332 332 331 332 330 329 330 330 331 331 332 330
351 351 352 352 352 352 351 350 350 350 350 350 349 349 350 350 349 349 348 347 345 344 343 340 337 336 335 334 334 333 332 333 331 331 330 330 330 330 332 333 331 330
351 351 352 351 351 351 351 351 351 351 351 350 349 349 349 349 349 348 347 346 345 343 342 340 338 336 335 334 334 333 332 332 332 331 331 330 330 330 331 332 331 331
351 351 351 351 351 351 351 352 351 351 351 350 349 349 348 349 349 348 347 345 344 342 341 340 338 337 335 334 334 333 332 332 332 331 331 331 331 331 331 332 332 331
351 351 351 351 351 352 351 352 352 352 351 350 349 348 348 348 348 348 346 345 344 342 340 339 338 337 336 334 334 333 333 333 332 331 331 331 331 331 334 332 332 332
351 351 351 351 351 352 352 352 352 352 351 351 350 348 348 348 347 347 347 345 344 343 341 339 338 337 336 335 334 334 333 333 333 332 332 332 331 331 331 332 332 332
351 351 351 351 352 352 353 353 352 352 351 350 350 349 348 347 346 346 346 346 344 343 342 340 338 337 336 336 335 335 334 333 332 332 332 332 332 332 331 332 332 332
351 352 352 352 353 353 353 353 353 352 352 351 350 349 348 347 346 345 345 346 345 343 342 341 339 338 337 336 335 335 335 334 333 333 332 332 332 332 332 331 332 332
352 352 353 353 353 353 352 352 352 352 352 351 350 349 349 348 347 346 344 343 344 343 342 341 340 338 338 337 335 335 335 334 334 334 333 332 332 332 332 333 333 333
352 353 353 353 352 352 352 352 352 352 351 350 350 349 348 348 347 346 345 343 342 342 341 341 340 339 334 326 329 336 335 335 334 334 334 333 332 331 332 334 334 334
352 352 352 352 352 352 352 352 352 352 351 350 349 348 348 347 347 345 345 344 342 341 340 340 340 339 328 325 326 329 334 335 334 333 333 332 332 333 333 333 333 334
352 352 352 352 352 352 352 352 352 351 350 349 348 348 347 347 346 345 345 344 343 342 340 340 340 331 326 325 325 326 330 336 334 333 333 333 333 333 333 333 333 333
352 352 352 351 351 352 352 352 351 351 350 349 348 348 347 346 345 345 344 344 344 342 341 340 340 330 325 323 324 325 327 332 335 336 335 334 333 333 333 333 333 333
352 352 351 351 352 351 351 351 351 350 350 350 349 348 347 346 345 344 344 344 343 342 342 341 340 329 323 322 322 323 325 331 336 336 335 335 334 334 334 333 333 332
352 352 351 351 351 351 351 350 350 350 350 350 349 348 347 346 345 344 344 344 344 343 342 342 342 328 321 320 319 320 322 331 337 337 336 335 334 334 334 334 334 333
352 351 351 351 351 351 350 350 350 350 350 350 349 348 348 347 346 345 344 344 344 343 342 341 343 325 321 320 318 318 322 336 337 337 336 335 335 335 334 334 333 332
352 352 351 351 351 350 350 350 349 350 350 350 348 348 347 346 346 345 345 345 344 344 342 342 342 328 320 318 316 316 324 337 337 337 336 334 334 335 336 334 332 331
352 352 351 351 351 350 350 350 350 351 350 350 348 347 346 346 346 346 346 346 344 344 344 343 343 329 316 316 315 316 325 335 335 335 334 333 334 334 331 331 333 339
352 352 351 351 350 350 351 350 350 350 351 350 349 348 347 347 346 346 345 346 346 345 339 341 343 328 314 315 313 315 328 335 334 334 332 332 332 330 330 331 331 338
352 352 352 351 350 351 351 351 351 351 350 349 349 349 347 346 346 345 345 345 346 346 345 343 342 331 321 313 312 315 322 335 333 332 331 331 330 329 329 330 331 332

ECMWFNIL_sfc_thetae_018.txt.gz
Theta_e
349 349 348 348 348 348 348 347 348 348 348 349 348 349 350 353 355 355 356 356 356 355 354 354 354 352 350 347 345 344 342 341 342 341 340 340 338 337 337 336 336 337
348 349 350 349 349 349 349 349 349 349 349 349 350 351 352 353 354 355 355 355 356 355 355 353 352 351 349 345 343 341 341 341 340 341 339 338 338 337 337 337 337 337
348 348 349 348 348 348 348 349 349 349 349 350 351 351 352 354 354 354 355 355 355 355 354 353 351 350 347 345 342 341 341 340 339 339 340 337 337 336 337 336 336 336
349 349 349 349 349 349 350 349 349 349 350 350 350 351 352 353 354 354 354 357 354 354 354 352 350 348 347 345 342 341 340 340 340 339 339 338 337 336 336 336 337 336
349 349 350 350 351 351 351 349 349 349 349 350 351 352 353 353 353 353 353 354 354 353 353 351 349 347 346 344 342 341 340 339 339 338 338 337 337 336 335 336 336 335
350 351 351 351 351 351 350 350 350 349 349 349 350 352 352 353 353 352 353 353 353 352 352 350 348 346 345 344 342 341 339 339 338 337 336 337 336 336 336 335 335 335
350 350 351 351 351 352 351 350 351 350 350 350 351 351 352 352 352 352 352 353 352 352 351 349 347 345 344 343 341 340 339 339 338 336 335 335 337 335 336 336 336 335
350 351 351 352 351 351 351 351 351 351 351 351 350 351 352 352 352 352 352 352 352 351 351 349 347 346 343 343 341 340 339 338 337 336 335 335 335 335 335 336 336 335
350 351 351 351 351 351 351 351 351 351 351 350 350 350 352 352 352 352 352 352 351 351 350 349 347 345 344 342 341 340 339 337 337 336 335 334 333 334 335 336 335 336
349 350 350 350 350 351 350 351 351 351 352 351 350 351 350 352 352 352 352 351 350 350 349 348 346 345 343 342 341 341 340 338 337 336 335 335 334 334 334 335 335 335
349 349 349 350 350 351 351 351 351 351 351 351 351 350 350 351 351 352 351 350 349 349 348 348 347 345 343 341 341 341 340 338 337 336 336 336 335 335 336 334 335 334
349 349 349 349 350 351 351 351 352 352 351 351 351 350 350 350 350 350 350 350 350 350 349 348 347 345 343 342 340 340 339 338 337 336 336 336 335 335 335 336 335 335
349 349 350 350 351 351 352 352 352 352 351 351 352 351 350 349 350 349 350 350 350 350 349 348 347 345 344 342 341 339 338 337 336 336 335 335 335 335 335 336 335 335
349 350 351 351 351 352 352 352 352 352 352 352 352 351 350 350 349 349 349 350 349 349 349 348 347 345 344 343 341 339 338 337 336 336 335 335 336 336 335 335 335 335
350 351 351 352 352 352 352 352 352 352 352 352 352 351 351 351 350 350 349 349 349 349 348 348 346 344 343 342 341 340 339 337 336 336 335 335 335 336 335 334 334 334
350 351 351 352 351 351 351 352 352 352 352 352 351 351 351 351 350 350 349 348 348 348 348 347 345 345 336 327 331 340 339 338 337 336 336 335 335 334 334 334 334 334
350 350 351 351 351 351 352 352 352 352 352 352 351 351 351 351 350 349 348 348 348 347 346 346 345 344 328 325 327 330 337 339 337 336 336 336 336 334 333 334 335 335
350 350 350 351 351 351 352 352 352 352 352 351 351 351 351 351 350 349 349 348 348 347 347 346 346 332 326 324 325 326 330 340 338 337 336 336 336 335 334 334 334 334
350 350 350 350 351 351 352 352 352 352 351 351 351 351 351 350 349 349 348 348 347 346 346 346 346 331 325 323 324 324 327 333 339 338 337 337 336 335 334 334 334 335
350 350 350 350 351 352 352 352 351 351 351 352 352 352 350 350 349 349 349 348 347 347 346 346 346 330 323 321 321 323 325 331 339 338 337 337 336 335 335 334 334 334
351 351 350 351 351 352 352 351 351 352 352 352 352 351 350 349 349 348 348 348 348 347 346 345 346 328 321 319 319 320 323 328 340 339 338 337 336 335 335 335 334 334
351 351 351 351 351 351 351 351 351 351 351 352 352 352 351 351 350 350 349 348 348 348 346 345 346 324 319 318 318 319 322 335 339 339 337 336 335 335 334 335 336 335
352 351 351 351 352 351 351 351 351 351 352 353 351 351 350 350 350 349 350 349 348 348 346 346 347 327 317 316 316 317 322 337 339 339 338 336 335 335 334 334 334 334
352 352 351 351 352 351 351 351 352 352 352 353 351 350 350 350 351 350 350 349 348 347 347 346 347 327 314 314 315 316 325 338 338 338 338 336 335 335 335 335 336 340
352 352 352 352 352 351 352 351 351 352 353 353 352 352 351 352 351 350 349 349 349 348 337 343 347 324 313 313 314 315 327 339 338 337 336 336 335 335 335 336 336 338
353 353 353 352 352 352 352 352 353 352 353 352 352 352 351 351 350 350 349 348 348 348 347 345 346 330 320 312 313 314 322 339 338 336 334 334 334 334 333 334 334 334

ECMWFNIL_sfc_thetae_021.txt.gz
Theta_e
359 359 357 356 356 357 357 358 357 357 359 358 357 359 360 364 366 366 366 366 367 366 367 367 367 366 365 365 364 362 361 360 359 358 357 354 352 350 349 349 350 348
358 359 358 358 358 358 359 359 359 358 359 360 360 361 363 365 365 365 365 365 366 366 367 366 367 366 365 364 363 361 360 359 359 357 356 354 353 352 349 351 350 349
358 358 357 357 356 357 355 358 359 359 359 359 361 362 362 363 363 364 365 365 365 364 366 366 366 366 365 364 363 361 359 359 357 355 355 354 353 352 352 348 349 350
357 358 357 356 356 357 357 358 359 359 359 359 359 360 360 361 362 363 364 364 364 365 365 365 365 365 365 364 362 360 360 359 358 357 354 354 354 353 352 351 349 349
357 357 357 357 357 359 359 358 356 357 357 358 359 361 361 362 362 361 362 363 364 364 365 365 365 364 364 363 362 359 359 357 357 356 354 353 354 352 351 351 349 347
357 358 358 357 358 359 357 357 357 357 357 356 359 360 360 361 361 360 361 361 362 361 362 364 364 363 363 362 360 359 357 356 355 354 352 352 352 351 349 350 349 347
356 357 357 357 357 358 358 357 358 358 358 358 360 359 360 360 360 361 362 361 361 362 362 363 364 362 362 362 360 358 358 357 355 353 351 351 352 351 349 349 348 347
355 356 356 356 356 356 357 357 358 358 359 360 359 360 361 359 361 361 362 362 361 362 363 364 364 364 361 360 359 357 357 355 354 352 351 351 351 350 349 347 348 347
355 356 356 356 355 355 355 355 357 359 359 359 358 357 361 360 360 361 362 363 362 362 364 363 364 363 361 359 358 358 356 354 353 352 351 350 349 349 349 348 347 347
356 356 355 354 354 354 355 355 355 357 359 358 357 357 358 360 361 361 362 363 361 362 363 363 363 362 361 359 358 358 357 355 353 352 351 350 349 349 349 348 347 346
354 355 354 354 354 354 354 355 355 356 358 357 357 357 359 360 361 362 362 362 360 361 362 362 362 362 360 358 358 358 357 355 354 353 351 351 350 350 347 349 347 346
354 354 354 354 354 355 355 355 355 356 357 357 357 357 358 359 360 361 361 361 362 362 362 362 362 362 361 359 357 357 356 356 355 353 351 351 350 350 350 349 348 347
353 354 355 355 356 356 357 357 356 356 356 357 357 357 357 358 359 360 361 361 362 362 361 362 362 361 361 360 358 357 356 355 354 353 351 351 350 350 349 349 348 348
354 356 357 357 357 358 358 358 357 358 358 359 359 358 357 358 358 359 360 361 361 361 361 362 362 361 361 360 358 357 356 355 354 352 351 350 350 350 349 348 347 347
357 357 358 359 358 359 359 359 359 359 359 360 360 359 358 358 359 359 359 359 360 360 360 361 360 359 360 359 357 356 356 354 353 352 351 350 349 349 349 348 348 347
359 359 360 360 359 359 360 360 359 360 360 360 360 359 359 359 360 359 358 358 358 358 359 358 358 359 346 333 338 355 355 354 353 352 352 350 349 348 347 347 346 345
359 358 359 358 359 359 360 360 360 360 360 360 360 360 359 360 359 358 357 357 357 357 357 357 356 355 333 329 331 334 350 354 352 351 351 350 349 349 347 347 346 346
357 358 358 358 359 359 359 360 360 359 359 360 359 359 359 359 358 358 359 358 357 357 356 356 356 338 328 327 329 329 334 353 353 351 350 349 349 348 348 348 346 344
359 358 358 359 359 359 359 359 359 359 359 359 358 359 359 358 359 358 358 357 357 355 355 355 356 335 327 325 327 327 328 339 353 352 350 349 348 349 349 348 347 344
358 357 357 358 359 359 360 359 359 358 358 359 359 359 358 357 357 358 358 357 356 355 355 356 356 331 325 323 324 325 326 332 354 353 351 350 349 349 349 348 347 345
358 358 357 358 359 359 359 359 358 359 358 359 358 357 357 356 356 357 356 357 356 356 355 354 355 326 323 321 321 321 323 327 352 353 352 351 350 350 349 348 348 346
357 358 358 359 358 359 358 358 358 359 358 359 359 358 358 358 357 357 357 357 356 356 354 353 354 323 322 320 320 319 321 338 349 352 351 350 350 350 350 350 349 347
357 357 358 358 358 358 358 357 358 359 360 360 358 358 356 356 355 355 357 357 356 356 354 353 355 330 320 318 318 317 323 342 347 351 351 350 350 351 350 350 349 348
358 358 358 357 358 357 357 358 358 359 359 360 358 357 355 356 356 356 357 357 355 355 355 354 355 333 316 316 316 315 325 343 347 349 350 350 350 351 351 350 348 341
359 359 358 358 358 358 358 358 358 359 359 360 358 358 357 358 357 356 356 356 356 356 342 350 355 336 314 316 315 313 328 346 347 349 348 349 349 349 350 348 348 340
358 358 359 358 358 358 359 358 360 359 359 358 358 358 358 357 356 355 355 356 356 356 356 354 354 351 326 314 313 313 319 346 350 348 347 348 348 347 346 346 346 345

ECMWFNIL_sfc_thetae_024.txt.gz
Theta_e
365 367 365 364 365 364 364 364 363 363 364 362 361 363 363 366 368 366 368 369 370 369 368 369 370 369 367 367 368 367 364 364 362 361 360 358 357 355 351 349 350 348
364 365 365 365 366 366 365 365 366 364 365 365 363 363 366 367 368 368 367 368 370 369 370 368 369 369 368 364 367 365 363 363 363 362 360 359 358 357 352 352 351 351
364 364 364 364 364 365 363 366 367 366 364 364 365 365 364 367 368 370 369 369 368 367 368 368 369 369 367 367 367 366 363 364 362 360 361 360 359 358 355 351 351 351
365 365 364 365 365 365 365 365 366 366 366 364 365 364 364 365 368 369 370 370 368 368 367 367 367 366 367 367 368 365 364 364 363 363 361 361 361 359 356 354 351 350
364 363 365 367 365 366 367 365 363 364 364 363 365 366 366 366 368 367 368 369 369 367 368 367 368 366 367 367 368 365 364 363 364 364 361 360 361 359 356 354 352 349
366 366 367 366 366 365 364 364 364 364 365 362 364 366 366 367 367 366 366 367 367 365 364 366 367 365 365 367 367 366 363 362 362 364 362 360 359 359 355 354 354 351
364 365 365 366 365 365 365 365 365 365 364 365 366 365 366 366 367 367 367 366 366 367 364 366 367 366 366 367 367 365 365 366 364 362 361 360 360 358 356 354 355 353
363 364 365 365 364 364 364 364 364 364 366 366 364 366 366 364 367 367 367 366 366 367 367 366 368 369 366 366 366 365 366 366 363 362 362 361 359 359 358 354 355 354
363 363 364 364 362 362 361 361 363 365 366 364 363 363 367 366 366 367 368 368 367 367 368 367 368 370 368 367 367 367 366 364 363 363 362 360 358 358 358 357 354 354
363 362 361 361 360 360 361 361 361 363 364 363 363 362 363 366 367 367 368 368 367 367 368 368 368 369 369 368 368 368 367 365 365 364 364 363 361 360 358 357 355 353
360 360 360 361 360 359 360 360 361 361 363 363 363 362 363 365 367 367 368 369 366 367 367 368 368 369 369 368 367 368 367 364 364 365 364 364 362 361 357 358 356 353
360 360 358 359 359 359 359 359 359 360 361 362 363 362 363 363 366 366 366 368 369 368 368 368 369 370 370 369 366 366 366 365 364 365 364 364 363 361 360 359 357 355
358 359 360 358 360 360 361 359 359 358 359 360 362 362 362 362 363 366 366 367 369 369 367 368 369 369 369 370 368 366 366 365 363 364 364 364 363 361 360 359 358 357
359 361 362 361 361 363 362 360 360 360 361 362 363 363 361 362 362 365 366 367 368 369 368 369 369 368 369 370 370 367 365 366 365 363 363 363 363 362 360 358 358 357
362 363 363 363 362 363 363 362 362 363 363 363 364 364 363 363 363 364 366 366 366 368 368 368 367 367 368 368 368 367 366 364 365 363 363 363 362 361 361 359 359 358
363 364 364 364 363 363 364 364 362 363 363 363 363 364 365 365 365 365 364 365 365 367 367 366 366 367 352 337 343 366 367 364 364 364 364 363 363 361 360 359 358 357
364 364 364 364 365 365 365 365 364 364 364 364 364 365 366 366 365 364 363 364 365 365 365 365 365 362 337 332 334 338 359 366 364 364 365 363 362 362 360 359 359 359
364 365 365 365 366 365 365 366 366 365 365 365 364 364 366 366 364 364 365 364 365 365 364 364 364 341 332 330 331 332 339 364 365 363 363 363 362 362 361 360 359 358
367 366 365 366 366 366 367 367 366 365 365 364 364 366 366 366 366 364 365 364 364 365 364 364 364 337 331 328 329 330 331 345 363 364 362 362 362 362 362 361 360 358
368 367 366 366 367 367 367 367 366 365 365 365 365 366 365 364 363 364 363 362 364 363 364 365 365 338 327 325 326 327 329 337 363 364 363 362 362 362 362 361 361 359
367 366 365 367 367 367 367 366 366 366 365 365 364 363 364 362 361 362 363 361 361 361 360 360 362 335 324 323 323 324 326 330 359 361 363 363 363 363 363 361 362 360
365 366 366 366 366 366 365 365 365 365 365 365 364 363 364 363 362 361 360 361 361 360 360 359 361 332 323 321 321 322 324 344 356 359 360 361 362 363 362 362 362 362
366 365 364 364 365 365 365 364 364 365 365 366 364 363 362 361 361 359 361 360 359 360 359 359 360 341 320 319 320 320 326 351 355 357 359 360 360 361 361 361 361 362
366 365 364 364 365 364 364 364 364 366 366 366 364 362 360 361 362 362 362 360 360 359 359 359 359 342 317 317 318 318 330 352 355 355 356 358 359 360 359 358 358 346
365 364 364 364 364 364 365 365 364 365 365 366 364 364 363 364 363 362 361 362 360 358 343 353 359 342 316 317 315 316 331 355 356 355 354 356 358 358 358 357 358 348
364 365 365 365 365 365 365 365 365 364 365 364 364 363 363 362 361 361 360 359 359 358 360 359 357 362 336 315 315 315 320 352 356 354 353 355 357 356 355 357 358 358

ECMWFNIL_sfc_thetae_027.txt.gz
Theta_e
364 365 363 361 361 362 362 362 364 366 366 362 360 363 363 364 365 362 363 364 367 367 366 367 368 368 368 368 368 367 364 363 362 362 362 359 355 353 351 351 351 348
366 366 366 365 364 365 365 363 365 365 366 366 362 362 366 366 364 363 363 364 366 367 369 366 368 369 369 365 366 365 364 363 363 361 362 360 357 355 352 354 351 350
366 366 366 365 363 364 362 364 366 366 365 366 365 363 363 366 366 367 365 365 366 367 369 368 367 369 368 366 366 364 362 364 362 359 362 360 356 355 356 352 351 350
367 368 365 365 365 365 365 364 365 366 366 365 366 363 361 363 367 367 367 369 366 367 368 368 366 366 368 367 366 364 364 364 364 364 362 361 360 357 356 356 353 351
367 367 367 366 365 368 368 364 363 365 366 365 366 367 365 365 366 366 368 367 368 368 367 366 366 364 367 367 367 365 364 362 364 365 362 361 361 359 356 356 355 352
367 368 368 367 368 367 364 365 366 365 366 364 365 365 365 365 364 365 367 367 366 366 363 364 365 364 364 367 366 365 364 361 361 364 362 362 359 357 355 356 356 353
364 366 366 367 368 366 366 367 368 367 366 366 366 365 366 365 365 366 367 368 367 367 364 365 367 366 365 366 367 366 366 364 363 363 363 362 362 358 356 357 357 354
365 366 366 367 366 366 367 366 367 367 368 368 364 366 366 365 367 367 367 367 367 368 367 364 367 368 365 364 365 366 366 364 362 362 363 363 361 360 358 355 356 356
365 366 367 367 365 363 364 364 366 368 368 366 364 363 367 366 366 368 369 369 368 368 369 366 368 367 367 366 365 366 366 364 364 362 362 362 360 359 357 357 356 356
365 365 365 364 362 362 363 364 364 366 368 366 364 363 364 368 368 369 370 370 368 368 369 368 367 367 367 366 366 366 366 366 366 365 363 362 360 359 358 357 356 356
364 364 363 364 362 361 362 363 362 362 366 365 364 362 362 366 368 369 370 370 367 367 368 368 367 367 369 368 367 366 367 366 366 366 364 363 362 361 359 359 357 356
364 362 362 363 363 362 362 362 361 359 362 364 365 363 362 361 367 367 368 370 371 369 369 369 370 369 369 368 366 364 366 367 366 366 364 364 364 362 361 360 359 358
362 362 363 363 364 363 363 362 360 358 358 360 364 364 362 360 363 368 369 370 371 370 369 370 370 369 370 370 369 367 366 367 365 365 364 364 364 363 362 362 361 360
363 365 366 366 366 368 366 362 362 360 360 361 365 365 363 362 361 365 368 368 370 371 371 371 370 370 371 371 370 368 366 367 367 364 363 363 364 364 362 361 361 361
367 366 368 368 367 369 368 365 365 366 366 364 368 367 365 364 364 364 367 368 369 371 371 370 369 369 369 369 370 369 367 365 367 365 363 362 363 363 363 361 361 361
370 370 369 369 367 369 370 369 365 366 365 367 367 366 368 367 368 365 365 367 368 369 370 369 369 369 356 341 347 369 368 365 366 367 365 363 363 363 361 361 360 359
370 369 370 369 369 368 370 370 369 366 367 369 367 367 368 371 367 364 363 365 367 367 368 368 368 366 341 335 337 343 364 368 365 366 367 364 362 364 362 361 360 360
369 369 369 369 370 369 369 370 369 367 367 367 365 364 368 366 365 366 367 364 365 366 366 367 368 346 334 333 334 335 344 368 367 364 365 364 363 362 363 362 360 360
370 369 369 369 370 370 370 370 369 368 366 365 364 366 365 367 368 366 366 365 365 366 365 366 367 342 332 330 333 333 335 350 366 367 364 365 364 363 363 363 362 360
371 370 369 370 371 371 370 369 368 367 366 365 366 366 365 366 366 367 367 367 366 366 368 367 368 341 329 328 329 330 333 342 367 367 366 364 365 364 363 363 363 361
371 370 370 371 372 371 370 369 368 369 367 365 364 365 365 365 365 367 367 367 366 365 366 366 366 337 326 325 326 326 330 335 366 365 365 366 366 366 366 364 364 363
369 371 371 371 371 371 369 368 369 369 368 367 366 364 366 366 367 367 366 366 368 367 364 362 362 334 323 324 324 324 327 349 363 364 364 364 365 366 366 366 365 365
370 370 370 370 371 370 369 368 368 369 370 369 366 365 364 365 365 364 366 364 365 365 362 362 362 343 322 321 321 322 328 356 362 363 363 363 364 366 365 365 365 366
371 371 371 370 370 369 370 369 369 370 370 369 366 364 362 364 365 364 365 364 362 362 362 362 362 346 319 319 319 319 331 357 361 362 362 363 363 365 366 366 364 348
370 371 371 371 371 371 371 369 368 369 370 369 367 366 365 365 365 364 364 365 364 364 347 357 362 349 318 318 316 317 332 359 362 361 360 361 361 362 364 364 364 353
370 373 372 371 371 371 371 370 370 369 369 367 367 366 365 364 363 364 364 364 364 362 362 361 361 365 342 316 316 316 321 357 363 360 358 359 360 359 359 361 361 362

ECMWFNIL_sfc_thetae_030.txt.gz
Theta_e
364 364 363 363 362 360 359 360 363 363 364 362 362 363 363 365 365 364 363 365 366 366 367 368 368 370 369 370 371 369 368 364 361 364 362 362 359 356 353 349 351 350
363 364 364 364 363 362 361 362 363 365 366 366 364 365 367 367 366 365 364 364 366 365 367 367 368 368 368 367 369 367 368 366 364 362 362 362 360 357 354 353 351 352
363 364 365 362 360 361 358 361 363 365 366 367 367 367 367 367 366 365 366 364 364 363 367 367 368 369 368 369 369 367 365 365 363 359 362 361 359 357 355 351 351 352
363 363 362 361 360 360 360 360 361 364 365 367 365 365 365 364 365 365 365 368 364 364 366 367 365 366 368 368 368 366 366 366 364 364 362 362 361 358 355 356 353 352
363 363 362 362 361 362 361 359 358 361 361 363 366 366 364 365 366 365 364 365 366 366 367 368 367 366 368 368 367 364 364 365 365 365 363 361 361 359 357 356 355 352
364 364 363 363 363 363 361 360 360 360 361 359 365 366 365 363 366 365 365 363 364 364 364 366 367 365 367 368 367 364 363 362 362 365 363 361 359 359 356 356 356 354
363 364 363 363 363 363 363 362 362 361 362 362 365 365 365 363 362 365 366 366 362 362 362 364 366 364 365 367 366 364 364 364 363 364 362 361 360 359 356 357 356 355
362 363 364 362 361 362 362 362 363 362 363 365 364 365 366 364 363 362 366 367 365 364 364 366 367 366 365 365 365 364 364 364 363 364 362 361 361 360 358 356 357 355
364 363 363 362 358 359 359 359 362 364 364 364 363 363 366 365 364 362 364 367 366 366 366 366 366 366 364 364 365 364 363 361 362 362 362 361 360 360 359 357 356 356
363 363 362 360 360 361 359 358 361 362 364 364 363 363 364 365 366 365 364 365 366 367 368 366 366 366 365 364 365 365 364 363 363 362 362 361 361 360 359 357 355 355
361 362 363 363 361 360 360 360 360 360 362 362 361 362 364 365 365 367 367 366 365 366 368 367 365 366 365 363 364 366 365 364 364 363 362 362 362 362 361 359 356 354
361 360 360 361 360 358 360 359 359 359 363 364 363 362 363 364 364 365 367 367 366 366 367 368 367 366 366 364 363 364 365 365 364 364 363 362 363 363 362 360 358 356
361 360 360 360 361 359 360 360 360 360 360 362 364 363 362 361 364 364 366 368 367 367 366 367 368 366 366 366 365 364 364 365 364 364 363 363 363 363 362 361 359 358
361 363 362 362 362 362 362 360 360 360 360 363 365 364 362 360 362 364 365 367 368 367 367 367 367 367 366 367 366 366 365 365 364 364 363 363 362 362 361 360 359 359
364 364 364 363 363 363 362 361 361 362 362 363 365 365 363 362 361 365 365 365 367 369 368 367 366 366 366 366 366 366 366 364 364 364 363 363 362 361 362 361 360 359
365 365 365 363 363 363 363 362 362 363 363 362 363 365 365 364 362 361 364 365 364 367 368 367 366 366 354 341 347 364 365 363 364 364 364 363 362 361 361 362 361 359
367 366 366 364 364 364 365 364 363 363 363 363 362 364 365 365 365 362 359 363 364 365 366 367 366 364 342 335 337 343 360 363 362 364 364 363 362 361 360 361 361 360
367 367 367 366 365 364 365 366 364 363 363 364 362 362 365 366 364 364 362 361 365 365 365 367 367 346 336 334 335 336 344 363 362 363 364 363 362 361 361 360 360 360
369 368 367 367 367 366 366 367 366 364 363 363 361 362 363 365 365 364 364 363 363 365 364 366 367 344 334 331 333 334 336 349 363 362 361 363 363 361 361 361 360 360
369 368 367 368 369 368 366 366 366 364 363 363 363 363 363 364 365 364 364 364 363 364 365 366 366 344 331 328 329 330 333 341 363 364 362 361 363 363 361 360 360 359
370 369 368 369 370 370 368 366 366 366 366 364 362 362 362 363 363 364 364 364 363 363 365 366 365 340 328 325 326 327 330 335 362 364 363 363 363 364 363 361 361 361
370 370 369 369 370 370 368 366 366 367 367 366 363 361 362 363 365 364 364 364 365 364 362 362 364 335 327 324 324 325 327 344 359 362 361 362 362 363 364 364 362 361
370 370 370 370 370 370 369 367 366 368 369 368 364 363 362 362 362 361 363 364 365 365 363 362 362 343 324 322 322 323 327 349 358 361 361 360 360 363 364 364 364 363
370 371 370 370 371 370 370 370 369 369 369 369 365 361 359 360 362 361 362 362 363 364 364 363 362 348 321 320 319 320 330 352 357 359 360 360 359 361 363 364 363 349
370 371 372 371 371 372 372 370 368 369 369 370 365 363 361 362 363 363 363 363 362 364 349 359 363 351 323 318 317 318 329 354 358 359 359 359 359 359 361 362 363 352
369 372 373 373 372 372 373 372 371 369 369 368 366 364 362 361 362 363 364 363 364 364 364 363 363 365 349 317 316 316 320 352 360 359 358 359 360 359 359 360 361 363

ECMWFNIL_sfc_thetae_033.txt.gz
Theta_e
355 355 355 353 353 354 355 353 354 353 354 355 355 356 356 357 359 357 357 359 360 360 361 362 362 362 362 361 361 358 357 357 356 355 355 355 352 350 351 345 342 341
355 356 357 355 354 355 355 356 355 354 353 355 356 355 358 359 359 358 357 359 360 360 361 362 361 361 362 361 362 359 356 356 354 359 355 355 353 351 351 346 343 342
356 356 356 355 354 354 354 356 357 356 355 355 357 358 358 361 360 358 357 358 359 360 360 361 361 361 362 361 362 360 358 356 354 357 355 354 354 351 351 350 343 343
356 356 356 356 356 355 354 353 355 357 357 356 356 360 360 360 360 358 357 361 358 359 359 360 360 360 361 361 361 360 358 358 357 356 355 355 355 353 351 350 346 345
355 356 357 357 357 357 355 353 352 355 358 359 358 359 360 359 359 358 357 357 357 358 358 359 359 360 360 360 361 359 358 358 358 356 355 354 355 354 353 351 347 345
356 356 357 356 356 356 355 353 352 353 356 358 359 360 360 360 359 359 358 357 357 357 358 359 358 360 360 360 361 359 358 358 358 357 355 354 354 355 355 352 348 346
355 355 356 357 356 355 355 354 353 353 354 356 360 359 359 359 359 358 358 357 358 357 357 358 358 358 360 360 360 359 358 358 358 357 355 355 354 354 354 352 349 348
355 356 356 356 356 355 354 354 353 353 353 354 355 360 360 358 357 359 359 357 357 357 357 359 359 359 360 360 359 358 357 358 358 357 355 355 354 353 353 353 350 347
356 356 355 355 355 355 354 354 354 353 354 354 354 357 360 359 357 357 359 358 356 357 357 358 360 360 360 360 359 358 357 357 357 357 356 355 355 354 353 352 350 349
356 356 355 355 354 355 354 354 355 354 354 354 354 355 358 360 358 356 357 359 357 356 356 357 359 360 360 360 359 359 358 356 356 356 356 356 355 355 354 352 350 349
356 356 355 355 354 354 354 355 355 355 355 354 355 355 356 358 359 357 355 358 359 357 356 356 358 360 360 359 359 360 359 358 357 356 357 357 356 356 357 354 352 350
356 356 355 355 354 354 354 355 355 355 355 355 355 355 356 358 358 358 356 354 358 359 358 357 357 359 360 359 359 359 359 359 358 356 356 357 357 356 356 355 354 351
356 356 356 355 355 354 354 354 354 354 355 356 356 356 356 357 358 358 358 356 356 359 360 359 358 358 359 359 358 358 359 358 358 357 356 356 357 357 357 356 356 354
356 356 356 356 355 354 353 353 353 353 354 356 357 355 355 356 358 358 358 358 356 356 359 360 360 359 359 359 359 358 358 358 358 357 357 356 356 357 357 357 357 356
356 356 356 356 356 355 354 354 354 354 354 355 356 356 356 356 357 358 358 358 358 357 357 359 360 360 360 359 358 357 358 358 358 357 357 356 356 356 357 357 357 357
356 356 355 355 356 355 355 354 354 355 354 354 355 356 356 356 356 357 358 357 358 358 357 358 359 361 351 339 343 357 357 358 358 358 357 356 356 355 356 356 357 357
356 355 355 354 355 356 355 354 354 354 354 353 355 357 357 356 356 355 356 357 357 358 358 358 358 358 340 334 335 339 354 357 357 357 358 357 356 355 354 355 356 357
357 356 356 355 354 354 355 355 354 353 353 353 354 356 358 358 357 355 356 357 357 357 358 359 359 343 335 333 333 333 339 357 357 357 357 357 357 356 355 355 355 356
358 357 356 356 355 354 355 355 354 353 352 353 353 355 358 357 357 356 355 356 357 356 356 358 359 342 334 331 331 331 332 343 358 357 357 357 357 357 356 356 355 355
359 358 357 357 357 355 355 355 354 353 353 354 354 354 355 357 357 356 356 355 356 357 357 357 358 343 332 329 328 329 331 336 356 357 356 357 357 357 357 357 356 355
359 358 357 357 357 356 355 354 355 354 353 353 354 354 353 355 356 356 356 356 355 356 357 358 358 339 330 327 325 325 329 332 353 357 356 356 356 357 357 357 357 357
360 359 358 358 358 357 356 355 355 355 354 354 354 354 355 354 355 357 356 356 356 355 355 356 359 335 328 326 324 324 326 341 351 354 355 355 355 355 356 358 358 357
360 359 359 358 359 358 357 356 355 356 356 356 354 354 354 354 354 355 356 357 356 356 355 354 356 340 326 323 322 322 326 346 350 353 354 355 355 355 356 356 358 358
361 360 359 359 359 358 358 358 358 358 358 359 356 354 353 354 355 355 356 356 356 357 357 356 355 344 322 320 320 320 329 348 351 353 354 355 355 356 356 356 357 348
362 362 361 360 359 360 360 360 359 359 359 360 359 358 356 355 355 355 355 356 357 357 348 354 357 347 322 318 317 318 328 349 353 353 354 355 355 355 356 357 357 352
363 362 362 361 361 361 362 362 362 361 361 361 361 360 358 357 356 355 355 355 356 356 357 357 357 358 346 315 315 315 319 346 353 353 353 354 356 355 355 356 356 356

ECMWFNIL_sfc_thetae_036.txt.gz
Theta_e
349 349 350 349 349 349 348 347 347 348 347 348 349 350 352 354 355 355 355 357 359 359 360 360 360 359 360 359 358 357 356 354 353 351 351 351 348 347 347 343 338 338
349 350 351 351 349 349 349 348 348 348 349 349 351 352 353 354 355 355 355 355 359 359 359 360 360 359 358 358 357 356 355 354 353 354 352 351 350 348 347 346 342 339
349 349 350 350 350 349 349 350 349 349 350 351 352 353 353 355 355 355 355 355 356 358 359 359 359 360 359 358 357 357 355 354 353 353 352 351 351 349 348 348 344 340
350 350 350 350 351 350 350 351 350 350 349 351 352 354 355 356 356 355 355 358 355 356 358 359 359 359 359 359 358 357 355 354 355 354 352 351 352 351 349 348 347 342
350 351 351 351 352 352 351 351 351 351 350 350 353 354 355 356 355 355 355 355 355 355 356 357 358 359 359 358 358 357 356 354 354 353 352 351 351 352 350 349 347 345
351 352 352 352 352 352 351 351 352 352 351 351 351 355 355 356 356 356 355 354 355 355 356 356 357 358 358 358 358 357 357 355 354 353 352 351 351 352 352 350 348 346
350 351 352 353 353 353 352 351 352 353 353 352 352 352 356 355 356 356 355 355 354 355 355 355 355 356 357 357 356 356 356 356 355 353 352 351 351 351 352 351 349 347
351 352 353 353 352 353 352 352 352 352 354 354 353 353 354 356 355 356 356 355 354 354 355 355 356 355 356 356 355 355 355 356 355 354 352 351 351 350 351 352 350 348
352 352 352 352 352 352 352 353 352 351 352 354 355 354 355 355 356 355 355 355 354 354 354 354 355 355 356 356 355 355 355 355 356 355 353 352 351 351 351 351 350 349
352 352 352 352 352 353 352 353 353 353 352 351 354 356 356 356 356 356 356 355 354 354 354 354 354 355 355 355 355 355 355 355 355 355 354 354 353 352 351 351 350 349
351 352 352 352 352 353 353 353 353 353 352 351 351 352 355 356 356 356 356 356 355 354 354 354 354 354 354 355 355 356 355 355 355 355 355 355 354 353 354 352 351 350
351 352 352 352 352 352 353 353 353 353 352 352 351 350 351 354 356 355 355 355 356 355 354 354 355 355 355 355 355 356 356 356 355 355 355 355 355 354 354 353 352 351
351 351 352 352 353 353 353 353 353 353 352 351 352 351 350 350 354 355 355 354 355 356 355 354 354 355 355 355 356 356 356 356 355 355 354 354 355 355 355 354 353 352
352 352 352 353 353 353 353 353 353 353 352 352 352 351 350 350 351 354 355 355 354 355 356 356 354 354 355 356 356 356 356 356 356 355 354 354 354 354 355 354 354 354
353 353 354 353 354 353 353 352 352 352 352 352 352 351 351 351 352 352 354 355 355 354 354 356 355 355 355 355 356 356 356 355 356 355 355 354 353 353 354 354 354 354
353 354 354 354 353 353 352 352 352 352 352 351 351 352 351 351 351 352 353 354 354 354 353 354 355 357 348 336 340 355 356 356 356 356 355 355 354 353 353 354 354 355
353 353 354 353 353 353 353 352 352 351 351 351 351 351 351 351 351 351 352 353 353 354 353 353 354 354 338 333 333 336 351 356 355 355 355 355 354 353 352 352 353 354
354 354 353 353 353 353 353 353 352 351 350 350 350 350 351 352 351 351 351 352 353 354 353 354 354 340 334 332 331 331 336 354 355 355 355 354 354 354 353 353 353 353
355 354 353 353 353 353 353 353 352 351 350 349 349 350 350 351 351 351 351 352 353 353 353 354 354 339 332 330 330 330 330 339 355 355 354 354 354 354 354 354 353 353
356 355 354 353 354 353 353 352 352 350 350 350 350 350 349 350 351 351 351 351 351 352 353 354 354 340 330 327 327 328 329 332 352 354 354 354 354 354 355 354 354 353
357 355 354 354 354 353 353 352 352 352 351 351 350 350 349 349 350 350 351 351 351 352 352 352 354 337 329 325 324 324 327 329 349 353 354 354 354 354 355 355 355 355
357 356 355 354 354 353 352 352 352 352 351 351 351 351 351 351 351 352 352 352 352 352 351 351 353 333 327 324 323 323 325 337 346 350 352 354 354 354 354 355 356 355
358 357 356 355 354 353 352 351 351 352 352 353 351 350 350 350 351 352 353 353 353 353 352 352 353 338 325 322 321 321 324 341 346 349 351 352 353 354 354 355 355 356
358 358 356 355 354 353 353 352 352 352 352 353 351 350 349 350 351 351 352 354 353 354 354 353 352 343 323 319 319 320 327 344 347 349 350 351 352 354 354 354 355 347
358 358 357 357 355 355 355 354 353 352 353 353 353 352 351 351 351 351 351 352 353 354 348 351 354 344 321 319 317 318 327 345 349 349 349 350 351 352 353 354 354 350
357 358 358 357 356 356 356 355 355 354 353 353 353 353 352 351 351 351 350 351 352 353 354 353 354 354 337 317 317 317 320 344 350 350 349 350 351 351 352 353 353 354

ECMWFNIL_sfc_thetae_039.txt.gz
Theta_e
349 349 348 347 347 348 347 346 346 345 344 346 347 349 350 351 352 353 353 354 355 356 356 356 357 357 358 357 357 356 355 354 354 352 350 349 347 346 345 343 339 336
349 349 350 349 348 349 348 347 347 346 344 344 347 349 350 351 352 353 353 353 355 356 356 357 357 357 357 357 356 355 354 354 352 354 350 349 348 346 346 345 343 339
349 348 348 348 347 347 348 348 347 347 346 345 346 348 349 352 351 352 353 353 353 355 356 356 356 357 357 356 356 355 355 353 352 352 351 349 349 347 346 346 344 341
348 348 348 348 348 347 348 347 347 347 347 346 345 348 350 352 352 352 352 356 353 354 355 356 356 357 357 356 355 355 355 354 354 353 351 350 349 349 347 346 346 344
348 348 348 349 349 349 348 347 347 347 347 347 348 348 350 351 351 351 352 352 353 353 354 355 356 356 356 356 356 354 354 354 353 352 351 350 349 349 349 347 346 345
348 349 349 348 349 349 348 347 348 347 347 347 348 350 350 351 351 351 352 351 352 352 353 354 355 356 356 356 356 355 355 354 353 352 351 350 350 350 350 348 346 345
347 348 348 349 348 349 348 348 348 349 348 348 348 349 351 350 351 351 352 352 352 352 352 353 353 354 355 355 355 354 355 354 354 352 351 351 350 349 350 349 348 346
347 348 348 348 348 348 348 348 348 349 349 349 347 348 351 351 351 352 352 352 352 351 352 352 353 353 354 355 354 354 354 355 354 353 351 351 350 349 349 350 349 347
347 348 348 348 348 348 348 348 349 349 350 349 349 348 350 352 352 352 352 352 352 352 351 352 352 352 353 354 354 353 353 354 354 353 352 351 350 349 349 349 349 348
347 348 348 348 348 348 348 349 349 349 351 350 350 350 349 351 352 353 353 352 352 351 351 352 352 353 353 353 353 353 353 353 353 353 353 352 352 351 350 349 349 348
347 347 347 347 348 348 349 349 350 350 350 350 351 351 351 350 351 352 352 352 352 352 351 351 352 352 352 353 353 354 353 353 353 353 353 353 353 352 353 350 349 349
347 347 347 348 348 349 349 350 350 350 350 351 351 351 351 352 351 351 352 352 352 353 352 352 352 352 352 352 353 353 353 353 353 352 353 353 353 353 352 352 351 350
348 348 348 348 349 349 350 350 350 351 351 350 351 350 351 351 352 351 352 352 352 352 352 352 352 352 352 352 352 352 352 352 352 352 352 352 352 353 353 352 352 352
348 349 349 350 350 350 350 350 351 351 351 351 351 350 349 350 351 352 353 353 353 353 353 353 352 352 352 352 352 352 352 352 352 352 352 352 352 352 353 353 353 353
349 349 350 350 351 350 350 350 351 351 351 351 351 350 350 350 350 351 352 353 353 353 353 354 353 352 352 352 352 352 352 352 352 352 352 351 351 352 352 352 353 353
349 350 350 350 350 350 350 350 350 351 351 350 350 350 350 350 349 349 349 350 351 352 352 353 353 354 346 335 338 352 352 353 352 352 352 352 351 351 351 352 352 353
350 349 350 349 350 350 350 350 350 350 350 350 350 350 350 349 350 348 348 348 348 349 350 352 352 352 337 331 331 334 349 353 352 352 352 352 352 351 351 351 352 353
350 350 350 350 350 350 350 350 350 350 349 349 349 349 349 350 349 348 348 348 348 348 348 350 351 338 332 330 330 329 333 352 353 353 352 352 352 352 352 352 352 352
350 350 350 350 350 350 350 350 350 350 349 349 349 350 350 349 348 348 348 348 348 347 347 349 350 337 331 328 328 328 328 335 352 353 352 352 352 352 352 353 352 352
351 350 350 350 351 351 351 350 350 349 350 350 350 350 349 348 348 348 348 348 348 347 347 348 349 337 330 326 326 326 326 329 347 351 352 352 352 352 353 353 353 352
351 351 351 351 351 351 351 350 350 350 350 350 350 349 348 348 348 348 348 349 348 349 348 348 349 335 328 325 323 322 324 326 343 348 350 351 352 353 353 353 353 353
353 352 351 351 351 351 351 350 351 350 350 351 350 350 350 349 349 349 348 348 349 349 348 347 349 333 327 324 322 321 323 334 341 345 348 350 351 352 352 353 353 353
354 353 352 352 352 351 350 351 350 351 351 352 350 350 349 348 348 348 348 348 348 348 348 348 349 338 326 322 321 320 322 337 341 344 347 348 350 351 352 353 353 353
355 354 353 353 352 351 351 351 352 352 352 352 350 349 349 349 349 348 348 349 348 348 348 348 348 341 325 320 319 319 325 340 342 344 345 347 348 350 352 352 353 345
356 356 355 354 353 353 353 352 352 352 353 353 352 351 350 350 350 349 348 349 349 348 344 346 349 342 324 321 318 317 325 341 344 345 345 346 347 348 350 351 352 349
357 357 356 355 354 354 354 354 354 353 352 352 352 352 351 350 350 349 348 348 349 349 350 349 349 350 342 319 317 316 318 341 345 346 345 346 347 348 349 349 351 352

ECMWFNIL_sfc_thetae_042.txt.gz
Theta_e
350 350 349 349 348 349 348 347 347 347 347 348 349 350 351 353 355 355 355 356 356 356 358 359 360 359 360 360 360 360 359 358 358 357 355 354 352 351 350 349 347 345
350 350 351 350 349 350 349 349 348 348 347 347 350 351 352 353 354 355 354 355 356 356 358 358 359 359 359 359 359 359 358 358 357 358 356 354 353 352 351 351 349 348
350 350 350 349 348 349 349 349 349 349 348 347 349 351 351 353 353 354 355 355 355 356 357 358 358 359 359 359 359 359 358 357 357 357 357 355 354 353 353 351 350 349
350 350 349 349 349 349 350 349 349 349 349 347 347 349 351 353 353 353 354 357 354 355 356 357 358 358 359 359 359 358 358 358 358 358 357 356 355 354 353 353 351 350
350 350 350 350 350 350 350 349 348 348 348 348 348 349 351 352 352 352 353 354 354 354 355 356 357 358 359 359 359 357 357 357 357 357 356 355 355 354 354 353 351 350
350 351 351 350 350 350 349 348 349 349 348 348 348 349 349 351 352 352 352 352 353 354 354 355 356 357 357 358 358 358 357 356 357 356 355 355 355 354 354 353 352 351
349 350 350 350 350 350 349 349 349 350 349 349 350 349 349 349 350 352 352 352 352 353 353 353 354 355 357 358 357 357 357 357 357 356 355 355 355 354 354 354 353 352
349 350 350 350 349 349 349 349 349 349 350 350 348 349 350 349 350 351 352 352 352 352 353 353 354 355 356 357 356 356 356 357 356 356 355 355 355 354 354 354 354 353
350 349 350 349 349 349 349 349 349 349 350 349 348 349 351 350 350 350 351 352 352 352 353 353 353 354 355 356 356 356 355 356 356 356 355 355 353 354 354 354 353 353
349 349 349 349 348 348 348 349 349 349 350 350 349 349 349 351 352 351 352 352 351 352 352 352 353 353 354 355 355 356 356 356 356 356 356 356 355 355 354 354 353 353
348 348 348 348 348 348 348 349 349 350 350 350 350 349 349 350 352 353 352 352 351 351 352 352 352 353 353 354 355 356 356 356 356 356 356 356 356 356 356 355 354 353
348 348 348 348 348 348 348 349 349 349 350 350 351 350 350 350 350 352 352 352 352 352 353 353 353 353 353 353 354 355 355 355 356 356 355 356 356 356 356 356 355 354
347 347 348 348 348 348 349 349 349 349 349 349 351 351 350 350 350 350 352 353 353 353 353 353 353 353 353 354 354 355 355 355 355 355 355 355 356 356 356 356 356 355
347 348 348 348 349 349 349 349 349 349 350 350 351 350 350 350 350 350 351 352 353 353 354 354 354 354 354 354 354 354 354 354 355 354 354 355 355 356 356 356 356 356
348 348 349 349 349 349 349 349 349 350 350 351 351 351 351 351 352 352 351 351 352 352 353 354 354 353 354 354 353 354 354 354 354 354 354 354 354 354 355 355 356 356
348 349 348 349 348 348 349 349 349 350 350 350 351 351 351 352 352 352 352 351 351 352 352 353 353 354 346 335 338 353 354 354 354 354 354 354 354 353 354 355 355 355
348 348 349 348 349 349 349 349 349 350 350 350 350 351 351 352 352 350 350 351 351 352 352 353 353 352 336 330 330 334 350 354 353 353 354 354 354 353 353 353 355 355
348 348 348 349 349 349 349 350 350 350 350 350 350 350 351 352 351 350 350 350 350 351 351 353 353 339 332 329 329 328 333 353 354 353 353 354 353 354 354 354 354 355
348 348 348 348 349 350 350 350 350 350 350 350 349 351 351 351 351 351 350 351 350 349 349 350 352 336 330 328 328 327 327 337 353 354 354 353 354 354 354 354 355 354
349 349 348 349 349 350 350 350 350 349 350 351 351 351 351 350 350 350 351 351 350 350 350 350 350 335 328 325 325 325 326 330 350 353 354 354 354 355 355 355 355 355
349 349 349 349 350 350 350 350 350 350 350 351 351 350 350 350 350 350 350 350 350 351 350 349 350 333 326 323 322 322 324 327 347 351 353 354 354 355 355 355 355 356
350 350 350 350 350 350 350 349 350 350 350 351 351 351 351 351 351 351 350 350 351 351 350 349 350 331 325 323 321 320 322 336 344 347 349 351 352 354 355 355 356 356
350 350 350 350 351 350 350 350 350 350 351 352 351 351 350 350 350 350 351 351 350 350 349 350 350 337 324 321 320 319 322 340 343 345 347 349 350 352 353 355 355 356
351 351 351 351 351 350 350 351 351 352 351 352 351 350 350 350 351 351 351 352 350 350 350 350 350 341 324 320 318 318 325 342 344 345 346 347 349 351 353 354 355 346
353 352 352 351 351 351 351 351 351 352 353 353 352 352 352 352 352 351 351 352 351 351 344 348 350 342 325 320 317 316 326 344 346 346 346 347 349 349 352 352 354 350
354 354 353 353 352 352 353 353 353 353 353 353 353 353 353 353 352 352 351 351 352 351 351 350 350 351 345 320 317 315 318 343 347 347 346 347 349 350 350 352 353 354

ECMWFNIL_sfc_thetae_045.txt.gz
Theta_e
357 358 356 356 356 356 357 357 356 357 359 358 358 360 361 365 366 365 366 367 367 366 367 368 368 367 367 368 368 367 365 365 365 366 367 365 364 363 360 360 362 360
357 358 358 358 358 359 360 359 359 358 360 361 360 361 364 365 365 365 366 366 367 365 367 367 368 368 368 367 367 363 362 363 363 364 364 364 364 364 362 363 361 362
357 357 357 357 356 357 355 358 360 359 359 359 361 363 362 363 364 365 366 366 365 364 366 367 367 368 367 368 368 365 362 363 362 363 365 364 364 364 365 361 361 361
357 358 356 356 356 357 357 358 359 359 359 359 359 360 360 361 363 364 365 365 365 365 366 366 366 366 368 368 368 365 364 364 363 365 364 365 365 365 365 365 363 362
357 357 357 357 357 359 360 358 357 357 357 358 358 360 362 363 363 362 363 364 365 364 365 366 367 366 368 368 367 364 364 362 363 364 362 362 365 365 366 366 365 363
358 359 359 358 359 360 358 357 357 357 357 356 358 359 359 361 361 360 361 361 361 361 361 363 364 364 366 367 367 365 364 362 363 364 361 362 364 366 364 365 365 364
357 358 358 358 358 359 358 358 358 359 358 358 360 358 359 358 360 361 362 361 360 362 361 362 364 364 365 366 366 365 364 364 364 363 361 362 364 364 365 365 365 364
357 358 358 358 357 358 358 358 358 358 359 360 359 359 359 357 359 360 361 361 360 361 363 362 364 365 364 364 365 364 364 363 362 363 362 361 362 362 365 365 365 365
357 358 358 358 356 356 356 356 357 358 359 358 357 357 359 358 358 358 361 362 361 361 363 363 364 364 363 363 364 364 364 363 363 363 363 362 362 363 365 366 364 364
357 357 356 356 355 356 356 356 356 357 359 358 357 357 357 359 360 359 361 362 361 362 363 363 363 362 362 363 363 364 364 364 365 365 364 364 363 364 364 365 364 364
355 356 356 356 355 355 355 356 356 356 357 357 357 356 357 358 359 360 361 361 359 360 361 362 362 363 362 361 362 363 364 363 364 365 365 364 365 365 364 365 364 363
355 355 355 355 355 355 355 356 356 356 356 357 357 356 357 357 359 359 359 360 360 360 361 362 363 363 363 362 360 361 363 363 363 364 364 365 365 365 365 366 364 364
354 355 355 355 356 356 356 356 356 356 356 356 357 357 356 356 357 359 360 360 361 361 360 361 362 362 363 363 362 362 362 363 361 362 363 363 364 364 364 364 364 364
355 357 357 357 357 358 358 357 357 357 357 358 358 357 356 356 356 357 359 359 360 360 361 362 362 362 363 364 363 362 362 362 362 361 361 362 363 364 363 362 363 364
357 357 358 359 358 359 358 358 358 358 358 358 359 358 357 357 357 357 358 358 359 359 360 361 360 360 361 361 361 362 362 360 361 361 361 361 362 362 363 363 363 363
358 359 359 359 358 359 359 359 358 359 358 359 359 358 359 359 359 358 357 357 357 358 360 359 359 360 352 338 344 360 362 360 360 362 362 361 361 362 361 362 363 362
359 359 359 358 359 359 359 359 358 358 358 358 358 358 358 359 359 357 357 357 356 357 357 358 358 357 338 332 333 337 355 362 361 361 363 362 361 362 362 361 362 363
357 358 357 358 358 358 359 359 359 358 358 358 357 357 358 358 357 357 358 357 357 357 356 357 358 342 332 330 330 330 337 359 360 360 360 361 361 361 361 361 361 361
358 357 357 357 358 358 358 359 358 358 357 357 356 358 358 358 358 357 357 358 357 357 356 357 357 339 330 328 329 328 328 341 358 360 360 360 360 361 361 361 362 361
358 357 356 357 358 358 358 358 357 357 357 357 356 357 358 357 357 358 358 359 358 358 358 358 357 340 328 326 326 326 327 332 358 359 360 360 360 360 361 361 362 362
357 357 356 357 358 358 357 357 356 357 356 356 355 356 357 357 356 357 357 358 358 357 357 356 356 336 326 324 323 323 325 329 357 359 360 360 361 362 362 362 362 362
356 356 357 358 357 357 357 356 357 357 357 357 356 356 357 358 358 357 357 358 358 358 356 356 357 332 325 323 322 322 324 343 354 358 359 359 361 362 362 363 363 363
355 355 356 356 357 356 356 356 356 357 358 359 356 356 355 356 357 356 358 358 358 358 357 357 358 339 323 321 320 320 325 351 355 357 358 359 359 361 362 363 363 364
356 356 356 356 357 356 356 356 357 358 358 359 356 355 354 356 357 357 358 359 357 358 357 357 357 343 321 320 318 317 329 352 355 355 356 358 359 361 362 362 362 354
357 357 357 357 357 356 356 356 356 357 358 359 357 357 356 358 358 357 358 359 358 358 350 354 358 345 320 320 318 316 329 353 355 355 355 356 356 357 360 360 361 357
358 359 358 358 358 358 358 357 358 358 358 358 358 357 357 357 357 358 357 358 359 358 358 356 357 359 347 318 317 315 318 351 356 355 353 354 356 355 356 359 360 361

ECMWFNIL_sfc_thetae_048.txt.gz
Theta_e
362 362 360 360 359 359 360 360 358 357 358 356 355 358 358 363 365 364 366 367 369 367 368 370 370 370 367 366 367 366 365 365 364 363 365 364 363 362 359 359 361 359
362 363 362 362 361 362 361 361 362 360 360 360 358 358 363 364 366 366 365 366 367 367 367 367 369 370 368 364 366 364 363 364 365 363 364 365 364 363 360 360 360 361
362 362 362 361 360 361 359 362 364 362 361 362 362 362 362 366 367 369 367 366 365 363 365 367 368 369 367 367 367 365 362 364 363 361 365 365 363 362 363 359 359 360
363 363 362 362 361 362 361 361 363 364 363 363 363 362 362 363 366 366 367 368 365 364 363 366 365 365 368 367 368 364 363 364 364 366 364 365 365 363 362 362 360 359
364 363 363 363 362 363 364 362 361 362 362 362 364 365 365 365 365 364 366 367 368 364 364 365 366 365 367 367 368 364 363 361 364 367 365 364 366 365 363 362 363 360
364 365 364 363 363 363 362 362 362 362 363 360 363 365 364 365 365 364 365 364 364 362 360 361 363 363 363 365 366 365 362 359 360 365 364 364 363 363 361 362 364 363
362 364 362 363 362 362 363 363 363 364 363 363 365 365 365 365 365 366 366 365 363 363 360 362 364 363 363 365 366 365 364 364 363 364 365 363 364 364 363 364 365 365
362 363 363 363 361 361 362 363 363 364 365 365 363 365 366 365 366 366 365 365 364 364 365 363 365 368 363 363 364 365 365 362 362 364 366 365 364 364 365 364 366 367
362 362 363 363 360 360 360 361 363 364 365 364 362 363 366 365 365 365 366 367 366 365 366 366 367 367 366 364 364 365 366 362 362 364 365 364 363 364 364 365 364 366
362 362 361 361 359 359 360 361 361 362 364 364 363 361 363 366 365 365 366 368 366 366 366 367 367 366 366 366 366 367 367 366 365 364 365 365 363 363 363 364 364 365
360 360 360 361 360 359 359 360 360 360 363 363 363 361 362 365 366 366 366 367 366 366 366 367 367 368 368 365 365 366 367 365 366 366 366 366 365 365 365 365 365 364
360 360 359 360 360 359 359 360 360 359 360 363 363 362 362 362 365 365 365 367 368 367 367 368 369 368 368 367 363 364 365 365 365 366 365 366 366 365 365 366 365 365
360 360 360 360 361 360 360 360 360 359 359 361 363 362 361 361 362 366 366 367 368 368 366 368 368 367 368 369 366 365 364 365 362 363 364 365 366 364 364 365 365 365
360 362 363 362 362 364 363 361 361 360 361 362 364 363 360 360 361 364 366 366 367 367 367 367 368 367 369 369 368 365 363 365 364 363 361 362 364 365 364 362 362 363
363 363 363 364 363 364 364 363 362 363 363 363 365 364 362 361 362 362 364 365 365 366 366 366 365 365 366 367 367 367 365 362 364 365 363 361 363 363 364 365 364 361
363 365 365 365 364 365 365 365 364 364 364 364 364 364 365 364 364 363 363 364 364 365 365 364 364 365 359 344 350 366 366 362 363 364 365 363 363 363 362 363 364 363
364 364 365 365 365 365 366 366 365 365 365 365 365 365 365 366 365 363 362 362 363 363 363 363 363 362 343 335 336 341 362 367 364 365 367 367 365 366 365 364 363 363
363 365 365 365 366 366 367 367 366 366 365 366 365 365 366 365 364 364 364 362 362 363 362 362 363 348 334 332 333 334 343 365 365 365 365 365 366 365 365 365 363 362
366 365 365 366 366 366 368 367 367 366 365 364 363 365 366 366 366 364 365 364 362 363 361 362 363 342 331 330 331 331 332 346 361 364 364 364 365 366 366 367 366 364
366 365 365 367 367 367 367 367 366 365 365 365 364 365 365 365 364 365 365 366 364 363 364 363 363 341 328 327 328 328 330 337 362 361 363 363 365 366 366 367 367 367
366 366 366 366 367 367 367 366 365 365 364 364 362 363 364 364 364 364 365 365 364 363 362 361 361 335 326 324 324 324 327 333 361 361 362 363 364 366 367 367 368 367
365 366 366 367 366 366 366 365 365 366 365 364 363 362 364 365 365 364 364 364 364 364 361 361 362 332 323 323 322 323 325 349 359 361 361 362 364 366 366 368 369 368
365 364 365 365 366 365 364 364 364 365 365 365 363 361 361 361 363 362 365 363 364 364 362 363 362 342 322 321 320 320 328 356 359 360 361 362 363 365 366 367 368 370
365 365 364 364 365 364 364 364 364 365 364 365 362 360 358 360 362 363 364 364 363 363 362 362 362 346 320 319 318 318 333 358 360 359 361 362 363 365 366 367 369 362
364 364 364 364 365 364 364 363 363 364 364 365 362 362 360 362 362 362 362 363 362 362 354 359 363 349 319 319 317 316 334 360 360 361 360 361 361 363 366 366 367 363
364 365 365 364 364 365 365 364 364 363 364 363 363 362 360 360 360 361 361 362 363 362 362 362 362 366 346 317 317 315 321 358 361 360 359 361 362 362 363 365 366 368

ECMWFNIL_sfc_thetae_051.txt.gz
Theta_e
359 358 356 354 352 351 351 355 356 355 353 350 351 356 353 358 360 360 362 363 365 365 365 367 369 369 366 367 368 367 366 364 364 361 363 363 362 361 360 358 361 359
362 363 361 359 358 358 356 356 359 357 356 357 353 355 358 358 359 359 361 362 365 365 366 365 368 370 368 364 366 366 366 365 364 361 362 363 364 362 360 362 359 361
363 363 361 359 356 358 355 358 360 358 356 356 355 357 356 358 360 362 362 362 363 364 365 366 367 368 368 366 366 365 363 366 365 361 363 364 362 361 363 359 358 358
364 364 362 359 357 359 358 358 358 361 359 358 357 355 355 355 360 362 363 365 363 363 362 363 363 364 366 366 366 364 363 364 365 366 362 364 364 362 362 362 359 358
364 364 363 361 359 362 362 358 357 359 360 358 359 360 359 361 361 362 363 363 364 362 362 362 364 363 365 366 366 364 362 361 365 367 364 364 366 364 362 361 361 358
366 366 366 364 363 361 360 358 359 360 361 357 359 360 359 360 361 361 363 362 361 359 357 360 362 362 362 365 365 364 362 359 359 364 365 365 364 361 359 359 361 360
363 366 364 363 362 361 361 362 362 362 361 361 361 360 360 360 361 363 363 362 361 360 357 360 363 362 362 363 365 364 364 363 362 362 364 364 366 363 359 359 361 361
364 366 365 364 362 361 362 362 362 362 362 363 359 361 361 359 362 361 362 363 361 361 360 358 363 364 360 360 362 363 364 361 361 362 364 365 364 364 365 362 361 362
364 364 364 362 361 360 359 360 362 363 363 363 359 358 363 361 362 362 364 365 364 362 362 360 364 362 361 361 362 363 363 361 359 360 361 363 363 363 364 365 362 362
363 364 362 361 359 358 359 358 359 361 363 363 361 357 358 362 362 363 364 367 365 363 363 362 362 361 363 362 361 362 363 363 362 360 360 362 362 362 362 363 362 362
361 360 360 360 358 357 357 358 357 358 361 362 362 359 357 361 364 365 366 367 364 364 364 364 363 364 364 362 361 362 363 363 363 363 362 363 363 363 363 363 363 361
360 358 359 360 358 357 356 357 357 357 358 361 361 360 358 357 362 363 364 367 368 367 366 366 367 366 366 365 360 360 362 363 362 363 362 364 364 363 363 364 362 363
358 357 359 360 359 357 357 357 357 356 356 358 360 360 358 356 359 364 364 366 369 368 366 367 368 367 369 368 364 361 361 363 360 360 362 362 364 363 362 363 363 363
359 359 360 361 361 362 361 358 358 357 357 357 361 360 358 357 356 361 364 365 367 368 368 369 369 368 369 370 368 363 361 361 362 361 359 361 361 362 361 359 359 360
363 361 361 363 362 364 363 361 360 361 360 359 363 362 360 358 357 357 362 363 364 367 368 367 366 367 367 368 369 367 364 360 363 363 360 359 360 359 361 360 358 357
367 367 365 365 365 367 367 364 361 362 361 361 361 362 364 362 361 358 358 362 362 365 366 365 365 366 361 348 354 368 365 361 361 364 364 361 359 359 357 359 359 357
367 366 367 367 368 368 368 367 366 363 363 365 364 364 366 368 363 357 356 358 361 362 363 363 363 362 346 338 340 348 364 365 362 363 366 365 361 361 360 357 357 359
366 367 368 368 369 368 368 368 366 364 366 365 362 362 367 365 362 361 362 358 359 361 360 361 363 350 335 335 337 338 349 367 363 361 361 363 364 362 361 361 358 355
368 367 367 367 368 369 369 368 368 367 364 362 361 364 365 366 367 363 362 361 360 361 360 360 361 342 332 333 335 335 336 352 363 363 360 360 362 364 363 362 362 360
368 368 367 369 369 369 370 369 367 366 365 364 363 365 366 366 365 364 364 366 363 363 364 361 362 339 330 329 331 331 333 341 367 365 363 360 361 362 363 363 364 363
368 368 368 369 370 369 370 369 367 367 366 365 364 364 366 366 365 364 365 365 363 362 362 362 360 333 328 326 327 327 331 336 365 364 364 364 365 366 366 365 366 366
368 368 369 370 370 370 369 369 368 369 368 367 365 363 366 367 367 365 364 365 365 363 361 361 362 326 326 325 325 326 328 353 363 363 363 363 364 365 367 369 369 369
367 368 369 370 370 369 369 368 368 369 368 368 365 363 362 364 366 364 366 365 365 365 362 360 362 336 323 322 322 323 331 359 362 361 362 363 364 365 365 367 368 369
369 368 369 370 370 369 369 368 369 369 368 369 365 361 359 362 365 365 364 365 364 365 363 362 362 346 318 320 320 320 337 361 362 361 362 363 365 367 367 368 369 366
369 369 369 369 370 369 368 368 368 369 368 369 366 363 360 362 363 364 364 364 363 364 359 361 361 345 317 319 318 317 338 364 363 362 361 362 363 364 367 366 368 367
370 370 370 370 371 370 370 370 370 369 369 367 365 363 362 359 359 362 362 362 362 362 364 363 362 363 338 317 316 316 324 363 365 361 360 361 363 364 365 367 367 368

ECMWFNIL_sfc_thetae_054.txt.gz
Theta_e
352 352 350 350 350 349 351 355 353 353 355 352 354 356 357 361 363 363 362 365 367 367 369 372 373 373 369 373 373 371 370 369 374 373 369 368 367 361 359 359 364 367
353 352 352 350 351 352 353 356 358 356 357 358 355 359 359 363 361 364 363 364 366 365 369 368 371 372 371 369 372 370 372 370 370 362 369 368 368 364 359 363 361 368
354 353 351 349 348 349 346 351 357 359 359 356 356 361 359 359 360 362 365 363 362 361 367 368 369 371 371 371 372 369 367 370 368 363 370 369 369 365 365 358 360 360
355 354 351 347 346 348 346 348 352 358 357 357 353 352 356 354 357 360 363 366 364 365 365 365 365 366 370 370 370 368 367 370 368 371 370 370 370 365 364 366 361 363
353 354 352 350 348 350 349 347 346 353 354 355 355 354 356 362 360 359 360 363 365 365 367 366 367 366 369 369 369 367 366 366 367 370 370 369 370 368 363 364 367 363
355 355 356 353 352 354 350 349 351 351 353 352 356 356 355 358 362 358 359 360 361 361 361 362 363 362 364 368 368 366 364 361 362 367 366 365 364 364 361 365 365 363
357 357 355 356 353 355 355 354 354 355 355 355 357 357 357 355 359 360 361 361 359 360 359 360 362 361 363 365 366 366 366 367 367 369 364 365 366 366 363 363 365 363
358 357 358 357 354 353 355 356 356 356 358 359 356 358 359 356 357 359 362 362 361 361 361 361 363 365 362 363 364 365 364 362 362 365 367 363 365 365 366 364 367 367
359 359 358 356 353 352 351 352 356 357 358 359 356 355 360 359 358 357 361 364 362 362 362 361 363 363 363 362 363 364 363 362 361 361 362 362 363 364 363 364 364 365
361 361 357 355 355 353 351 352 355 355 358 358 358 356 357 360 361 359 362 364 363 363 363 360 363 361 361 361 362 363 363 363 363 363 361 361 362 363 363 363 363 363
358 358 357 356 355 354 354 353 355 356 357 356 357 356 357 359 361 362 363 364 362 363 364 360 362 361 360 359 360 362 362 362 362 364 363 362 362 363 365 364 363 361
358 358 358 357 356 355 355 355 355 357 358 358 358 357 358 358 360 361 362 363 363 363 365 363 362 362 362 360 358 359 361 361 363 363 362 362 362 363 364 364 363 363
359 356 359 359 358 357 356 356 356 357 357 357 358 359 357 356 358 361 362 364 365 365 364 364 362 362 363 363 361 360 360 361 360 362 362 361 361 361 361 362 363 362
358 359 361 361 359 358 358 357 357 356 358 360 361 359 357 355 356 359 363 363 365 365 365 366 365 362 364 365 364 362 361 361 360 360 360 361 360 362 361 360 361 361
361 361 361 362 360 360 359 357 358 358 359 360 362 360 359 358 356 358 360 360 362 364 365 365 364 363 363 364 364 363 362 359 360 360 361 360 360 359 361 362 360 359
362 362 361 362 362 361 360 359 359 360 359 360 362 361 361 361 358 359 360 360 360 364 366 364 363 363 358 347 352 363 362 357 359 361 360 360 361 360 359 360 359 357
363 362 362 361 362 362 361 361 360 360 360 361 362 362 361 363 361 358 358 360 360 361 363 363 362 361 347 338 340 348 361 361 359 360 362 363 361 362 359 358 358 359
362 363 362 361 363 363 362 362 361 361 361 361 361 360 361 362 361 359 359 360 361 362 363 363 363 351 336 335 337 338 349 364 361 360 361 362 363 360 360 359 357 356
364 363 362 362 363 363 364 362 362 362 361 360 360 361 362 361 360 360 359 359 360 361 359 362 362 345 332 333 335 336 337 354 363 361 358 360 361 363 362 360 359 358
364 364 362 363 363 364 364 363 362 361 361 361 359 360 362 361 361 360 360 360 359 361 361 361 362 343 328 330 332 333 335 342 365 365 363 360 361 363 362 362 363 361
365 365 364 364 364 365 365 363 362 362 362 360 357 357 360 362 360 359 360 360 359 360 363 359 360 335 326 326 328 329 333 339 363 365 365 363 363 363 364 364 364 364
366 365 366 365 365 365 364 364 363 362 362 361 358 356 358 364 364 361 361 361 360 358 357 358 358 328 325 325 326 327 331 349 361 363 363 364 366 368 366 367 366 365
366 366 366 366 366 365 364 364 363 363 363 363 359 357 357 358 361 360 363 361 361 361 359 359 360 331 323 323 324 325 331 355 360 362 362 361 362 366 369 370 370 368
367 367 367 367 367 365 365 364 365 364 363 364 361 358 356 357 361 363 363 363 361 361 360 361 361 340 318 321 322 322 336 357 360 361 361 361 361 363 365 366 367 370
368 367 367 368 367 366 365 365 364 364 363 364 361 359 359 361 363 362 362 363 361 361 357 360 360 346 315 321 318 319 335 359 361 361 360 359 360 360 362 363 364 365
368 369 369 368 369 368 368 369 368 365 363 361 361 360 359 359 361 361 362 362 361 362 363 362 359 361 329 318 316 317 324 359 363 360 358 359 360 360 360 362 363 364

ECMWFNIL_sfc_thetae_057.txt.gz
Theta_e
348 346 345 346 345 345 341 343 343 346 345 350 350 352 353 354 355 353 357 359 359 358 362 363 362 364 365 362 363 362 364 362 361 361 360 360 359 358 358 357 355 355
346 347 347 345 345 347 343 343 343 343 346 347 351 350 352 354 355 354 354 358 359 358 360 363 362 362 361 361 362 359 358 359 359 363 360 357 358 358 357 356 356 357
346 346 345 343 343 344 346 344 345 343 345 347 349 351 351 355 354 355 354 357 357 358 359 361 362 362 362 361 361 360 360 358 356 359 357 358 357 355 357 357 356 355
345 345 344 343 342 343 344 347 347 345 346 347 348 352 352 352 353 354 355 362 357 357 358 360 362 362 362 362 362 359 360 360 360 359 358 360 360 358 357 355 356 355
345 344 343 343 342 343 341 345 348 348 347 348 349 350 353 350 351 352 355 356 357 356 357 359 360 361 363 362 362 359 359 360 360 359 357 357 359 358 357 357 356 355
346 345 344 342 341 341 340 340 345 349 349 350 349 349 349 351 349 351 352 355 356 356 358 358 359 360 362 362 361 359 358 359 359 359 358 357 357 359 360 356 354 354
345 345 343 343 341 341 340 339 340 345 349 350 351 348 347 346 352 350 351 354 355 356 357 358 357 358 361 361 361 359 357 357 356 357 357 356 356 356 358 356 356 354
345 345 345 343 341 340 340 339 339 340 344 348 349 350 348 346 347 353 352 353 354 355 356 357 358 357 358 360 359 358 358 359 358 357 356 356 356 355 356 359 357 355
345 345 345 344 342 340 340 340 340 340 342 345 347 349 350 348 346 350 353 352 353 354 355 355 356 357 357 357 358 358 357 358 358 357 358 356 356 356 356 357 356 355
345 345 345 344 343 342 341 341 341 341 343 345 347 348 350 351 349 348 353 353 352 353 354 354 355 356 356 356 357 358 357 357 356 356 355 357 357 356 357 357 356 354
347 346 344 344 343 343 342 343 343 343 344 345 348 348 349 351 351 350 351 354 354 353 354 354 355 356 356 356 356 358 357 357 356 355 355 355 356 357 362 357 357 356
349 348 346 344 344 344 343 344 345 346 346 347 349 349 350 351 352 351 351 354 355 355 355 355 355 356 356 355 356 357 357 357 357 357 356 355 355 356 359 358 357 357
351 350 349 347 346 345 346 346 345 347 348 349 350 351 350 351 352 352 352 353 355 356 356 356 355 355 355 355 355 355 356 356 356 356 356 357 356 355 356 358 358 358
353 352 351 350 348 348 347 347 347 347 349 350 351 350 351 351 352 353 353 354 355 356 357 358 356 355 355 354 354 354 354 355 355 355 356 356 356 356 356 357 358 358
354 354 353 352 351 349 349 348 348 347 349 351 352 351 352 352 353 354 354 354 355 356 356 358 357 355 356 355 354 353 353 354 355 355 355 355 355 355 355 355 356 357
355 355 354 354 352 350 350 350 349 349 350 352 352 352 352 353 353 354 354 354 354 355 356 358 358 357 352 343 347 354 353 354 355 354 354 355 355 354 354 355 355 356
355 354 354 353 353 352 351 350 350 351 351 352 353 353 353 353 353 353 354 355 355 355 355 356 358 358 343 335 338 344 354 355 354 354 354 354 354 354 353 353 355 356
355 355 354 353 354 353 352 351 351 351 351 352 353 354 354 354 353 352 354 354 355 355 356 357 357 349 336 334 335 336 345 356 355 353 354 354 354 354 354 353 353 355
356 355 354 354 354 354 353 352 351 351 351 351 353 355 354 354 353 352 353 354 355 354 355 357 357 344 333 332 333 334 336 350 355 354 353 354 354 354 354 354 353 353
356 355 355 355 355 355 354 352 351 351 352 352 353 355 354 354 354 353 353 354 355 354 355 358 358 345 331 329 329 330 333 340 356 355 353 353 354 355 355 354 354 353
356 355 355 355 355 355 354 353 352 351 352 352 353 354 354 353 353 353 353 354 355 356 355 357 360 340 329 326 326 327 330 336 355 356 355 353 353 355 356 356 355 355
357 355 355 355 355 355 354 353 352 351 351 352 353 353 355 355 354 354 353 353 354 356 356 355 359 334 327 325 325 326 329 344 354 356 356 355 355 354 356 357 357 356
357 356 355 355 355 354 354 354 353 352 352 354 352 352 353 354 354 354 354 354 353 354 356 356 357 337 326 324 323 324 329 348 353 355 356 355 356 357 357 357 358 357
358 357 356 356 355 354 354 355 355 354 353 354 353 351 351 353 354 354 354 354 353 353 353 354 356 339 322 322 322 322 332 349 353 354 355 355 355 356 357 359 361 368
358 357 356 356 355 355 355 355 355 355 354 355 354 353 352 353 355 354 354 354 354 354 352 352 354 342 318 322 320 320 331 350 352 353 353 354 354 354 355 356 356 362
359 358 357 357 356 356 356 356 357 356 355 354 354 354 352 352 354 354 354 354 355 355 355 354 353 353 330 318 318 318 322 348 352 352 352 353 354 353 353 354 354 355

ECMWFNIL_sfc_thetae_060.txt.gz
Theta_e
342 345 342 340 338 340 342 339 340 345 348 349 350 351 351 351 355 355 355 357 357 357 358 358 358 358 358 356 359 357 355 355 356 356 357 357 355 355 356 355 354 352
342 345 346 342 339 341 341 342 341 343 346 349 350 351 351 352 352 354 354 355 357 356 358 359 357 358 357 355 357 356 355 356 354 359 356 356 356 356 355 354 353 353
342 343 345 342 339 339 340 342 342 342 344 348 349 350 351 353 352 351 353 354 355 356 355 359 358 358 358 357 357 355 354 354 354 358 356 355 355 355 354 354 354 353
342 343 345 344 341 339 340 340 340 341 343 346 348 350 352 354 352 351 350 359 354 355 355 357 359 358 358 357 357 355 354 353 354 354 355 356 355 354 353 353 354 353
341 343 343 345 344 342 341 340 340 339 341 344 348 349 351 351 351 351 350 352 354 354 354 355 358 358 358 357 357 355 355 354 354 354 353 353 355 355 353 353 352 351
342 343 344 344 344 343 342 340 340 340 339 342 345 349 349 349 350 350 351 350 353 354 354 354 356 358 358 357 357 356 355 355 355 355 353 352 353 357 356 354 352 351
343 342 342 343 343 343 342 342 341 341 339 340 343 345 348 347 347 348 349 351 352 353 353 353 354 356 358 358 357 356 355 355 355 355 353 353 353 354 356 354 352 350
344 343 342 343 342 341 342 342 342 342 341 341 340 343 346 348 347 347 348 349 351 352 353 353 354 355 357 358 357 356 356 356 355 355 354 353 352 352 353 355 352 350
344 343 342 342 341 340 340 340 341 343 344 342 341 342 344 346 347 347 346 347 349 351 352 353 354 354 356 358 357 357 356 356 355 354 354 353 352 352 352 353 353 352
343 343 343 341 340 340 339 339 339 340 344 345 344 344 344 344 345 347 347 347 347 349 351 353 354 354 355 357 357 357 356 356 355 354 354 353 353 352 352 352 352 351
343 343 342 342 340 340 339 339 338 338 339 343 345 345 346 345 345 344 346 347 347 348 349 351 353 354 354 355 357 358 357 357 356 355 354 354 354 353 358 353 352 352
343 342 342 342 341 340 339 338 338 337 337 338 341 343 345 347 346 345 344 346 348 348 349 350 351 353 354 354 355 356 357 357 356 355 354 354 354 354 354 355 354 353
343 342 342 342 342 342 341 339 338 337 337 336 338 339 341 343 346 346 346 344 346 349 349 350 351 352 353 354 354 354 355 355 355 355 355 354 353 354 355 355 355 355
345 344 343 342 342 342 342 340 339 338 337 337 338 337 338 340 342 345 346 346 345 347 350 351 351 351 352 353 354 353 354 354 355 354 354 354 354 353 353 354 356 355
347 346 345 343 343 342 342 341 340 339 338 338 338 338 339 340 342 343 345 346 346 347 349 351 351 351 352 352 352 352 353 353 354 354 354 353 353 354 353 353 354 355
349 349 347 346 344 342 341 341 340 340 339 339 338 339 339 341 342 343 345 346 346 347 349 351 352 353 349 341 344 353 352 353 354 354 354 353 353 352 353 353 353 354
352 351 350 348 346 345 343 342 341 341 340 340 340 340 341 341 343 343 345 346 347 347 348 350 352 353 342 334 336 341 351 352 352 352 353 353 352 352 351 351 353 353
354 353 351 350 349 347 346 344 343 342 341 340 341 341 343 344 344 344 345 347 348 348 348 350 351 345 335 333 333 334 341 353 351 351 352 352 352 352 352 351 351 352
355 354 353 352 351 350 349 347 345 343 342 342 341 343 344 345 345 345 346 347 348 348 349 350 351 341 333 331 331 331 333 345 351 351 350 351 352 352 352 352 351 351
356 354 353 353 352 351 350 349 347 345 345 344 344 344 345 346 346 346 347 347 348 349 350 351 351 341 331 329 329 329 330 336 351 351 351 351 351 352 352 352 352 351
356 355 354 353 353 352 351 350 349 347 346 346 346 345 345 346 347 347 347 348 349 350 350 351 352 338 328 327 326 325 328 333 350 352 351 351 352 352 352 352 352 353
356 356 355 354 353 352 351 351 350 349 348 347 348 347 347 348 349 349 349 349 349 350 350 350 353 333 327 325 325 324 327 339 347 350 351 351 351 351 352 353 353 353
355 356 356 355 354 352 351 351 351 350 350 350 348 348 347 348 349 350 351 350 350 350 350 351 352 338 326 324 323 323 326 342 346 349 350 351 351 351 352 353 353 353
354 356 356 355 354 353 352 352 352 352 351 351 349 348 348 349 350 351 352 352 351 350 351 351 352 341 323 322 321 321 329 344 347 348 349 350 351 352 352 352 354 362
353 356 357 356 355 354 354 353 353 352 352 352 351 350 349 350 351 351 352 352 352 352 349 351 352 344 322 322 320 320 329 346 349 349 349 350 351 352 353 353 353 357
353 355 357 356 355 355 355 354 355 354 353 352 351 351 350 350 350 351 351 352 352 352 352 352 353 353 338 319 320 319 321 346 350 349 349 350 351 352 352 353 354 354

ECMWFNIL_sfc_thetae_063.txt.gz
Theta_e
342 342 340 339 338 340 342 343 345 347 348 349 349 350 351 351 353 353 354 355 356 356 356 356 357 356 357 354 355 353 354 353 354 354 354 354 352 352 354 352 350 349
342 343 344 341 339 341 340 341 343 346 347 348 349 350 351 351 352 353 353 354 356 356 356 356 356 356 355 354 353 352 351 352 352 356 354 353 353 352 353 352 352 350
342 342 342 340 339 338 339 340 340 344 346 347 349 349 350 351 350 352 352 353 354 355 355 355 355 355 355 353 352 353 353 351 351 353 354 353 353 353 353 353 351 350
342 342 342 342 341 338 338 340 338 340 343 345 347 349 350 352 350 350 351 357 353 354 354 355 356 355 355 354 352 352 352 352 353 353 353 353 354 353 353 352 353 351
341 341 342 343 342 340 338 339 339 339 340 344 346 348 350 349 349 349 350 351 352 352 353 353 355 355 355 355 353 352 351 350 350 350 351 351 352 353 353 351 350 349
342 341 342 342 342 340 338 337 339 340 340 340 344 348 348 349 349 349 349 349 351 352 352 352 353 355 355 355 354 353 353 352 351 349 349 349 350 352 354 352 350 349
342 341 340 342 342 341 338 337 338 341 340 341 343 345 347 347 348 349 349 349 349 351 352 351 351 352 355 355 353 353 352 352 350 350 350 350 349 349 352 351 351 349
343 341 341 341 342 342 340 338 337 339 339 340 340 343 346 347 347 349 349 349 348 349 350 351 351 351 353 355 354 353 353 354 353 351 351 350 348 349 349 352 351 348
343 342 340 340 340 341 341 340 338 338 339 338 339 341 345 347 347 347 348 348 348 348 349 350 350 351 352 353 354 353 353 353 354 352 351 351 350 350 350 349 349 350
343 343 341 340 339 340 341 341 341 339 340 338 338 339 341 345 346 346 346 346 347 347 348 349 349 350 351 352 353 353 353 353 353 353 352 352 352 352 351 350 350 349
342 343 341 340 339 340 340 341 341 341 340 339 338 337 338 340 344 345 344 343 344 345 346 347 349 350 350 351 353 354 354 353 353 353 352 352 352 352 356 351 350 350
342 342 342 341 340 340 339 340 340 341 341 341 341 338 338 338 338 341 344 343 343 343 344 346 348 349 350 351 352 353 354 354 354 353 353 352 352 352 352 352 351 351
343 342 342 342 342 341 340 340 339 339 339 339 341 341 339 338 338 338 341 342 343 344 344 344 345 348 350 350 351 352 353 353 353 353 353 353 353 353 353 352 352 352
344 343 343 342 342 342 341 340 339 339 338 338 339 339 341 341 340 340 340 341 341 343 344 345 345 346 348 350 351 351 351 352 353 353 353 353 353 353 353 353 353 353
345 345 344 343 343 342 341 340 340 339 338 338 337 337 339 340 341 342 341 341 341 341 342 345 346 346 347 348 349 350 351 351 352 353 353 352 352 353 352 352 352 353
345 345 344 343 342 341 341 341 340 339 338 337 336 336 335 336 336 339 340 341 342 342 341 342 344 346 346 338 341 350 350 351 351 352 352 352 352 351 351 352 352 352
344 344 344 343 342 342 341 341 341 340 339 338 337 336 335 335 336 334 335 337 339 341 342 343 343 344 337 332 333 337 348 350 350 350 351 351 351 351 350 351 352 352
344 344 344 343 343 342 341 341 341 340 339 339 337 336 336 336 335 335 335 335 336 338 339 341 343 339 331 330 331 331 338 351 350 350 351 350 351 351 351 351 350 351
346 345 344 344 343 343 342 342 341 340 339 339 338 338 337 336 335 335 335 336 336 336 337 340 341 335 330 328 329 330 330 341 350 350 349 350 350 351 351 350 350 350
348 347 346 346 346 345 344 342 341 340 340 340 340 339 338 337 337 336 336 336 337 337 338 339 341 335 328 327 327 327 329 333 348 349 350 350 350 350 351 350 350 349
349 349 348 348 347 347 346 344 343 342 341 341 340 339 338 337 337 337 337 338 338 339 339 339 342 333 327 324 324 324 327 330 345 349 350 349 349 350 350 351 351 351
352 351 350 350 349 349 348 346 345 344 343 343 342 341 341 340 339 339 339 339 340 340 340 340 342 330 326 324 323 322 325 336 343 347 348 349 349 349 349 350 351 350
354 353 352 352 351 350 349 349 348 347 346 346 344 343 341 341 340 340 341 341 341 342 341 342 343 335 325 322 321 321 325 338 342 345 347 348 349 349 349 350 350 351
353 355 354 354 353 352 351 351 351 350 349 349 346 345 343 343 342 342 342 343 342 343 344 343 343 338 324 321 320 320 328 339 342 344 345 347 348 349 350 350 351 359
349 351 353 355 354 354 353 352 352 351 351 351 349 348 347 346 346 344 344 344 344 345 344 344 345 340 324 321 319 318 327 341 344 344 344 346 347 348 349 350 350 355
349 350 350 352 354 355 355 354 354 353 352 351 350 350 348 348 347 346 345 345 346 347 347 346 346 347 340 320 318 316 320 342 345 345 344 345 347 347 348 348 350 350

ECMWFNIL_sfc_thetae_066.txt.gz
Theta_e
344 343 341 340 340 343 346 348 349 349 350 351 352 352 353 354 357 356 357 358 359 359 359 360 360 360 360 359 360 359 359 358 359 359 358 358 357 356 356 357 356 357
344 344 345 342 341 343 345 348 349 349 349 351 352 353 354 355 355 356 356 356 358 359 359 359 359 360 360 359 358 358 357 357 357 359 358 358 359 357 357 357 357 357
344 344 343 341 340 340 342 346 348 349 350 350 352 353 354 355 354 355 356 356 357 358 358 359 359 359 359 359 358 358 357 356 356 357 359 358 358 358 359 357 357 356
345 344 343 343 341 340 341 343 345 347 349 349 350 352 353 354 354 354 355 359 356 357 358 358 359 359 359 359 358 357 357 357 357 357 358 359 359 358 358 358 358 357
344 344 344 344 343 342 341 341 341 343 346 348 350 351 353 354 353 353 354 355 356 356 357 358 358 358 359 359 358 357 356 356 356 357 357 357 358 358 358 358 357 356
345 345 345 344 344 342 340 340 341 341 343 345 348 351 351 352 352 352 352 353 354 355 356 356 357 357 358 359 358 358 357 356 356 356 356 356 356 357 357 358 357 356
344 344 343 344 344 343 341 340 341 342 341 343 347 348 350 350 351 351 352 353 354 355 355 355 356 356 358 359 358 357 357 357 357 356 355 355 356 355 356 358 358 356
345 344 344 344 343 343 343 341 339 341 342 343 342 345 349 349 350 351 352 352 352 353 354 355 355 355 356 357 357 357 356 355 355 356 355 355 355 355 355 356 357 357
345 344 343 343 342 342 342 342 340 340 342 342 341 342 346 348 349 350 351 351 351 352 353 354 354 354 355 356 356 356 356 356 356 356 356 355 354 355 355 355 355 356
345 345 343 342 341 342 342 342 342 340 341 341 341 342 343 347 348 349 350 350 350 350 351 352 353 353 354 354 355 356 356 356 357 356 356 356 356 356 355 355 355 355
344 344 343 342 341 341 341 342 342 341 340 340 340 341 342 344 348 349 349 349 349 349 350 350 351 353 353 353 354 355 356 356 356 356 356 356 357 357 357 357 356 355
344 344 343 343 342 341 341 342 342 342 341 341 340 340 340 342 345 347 348 347 349 350 350 350 351 352 352 353 353 354 355 356 356 356 356 357 356 356 357 358 356 356
344 344 344 343 343 342 342 342 342 342 342 341 341 340 339 339 341 344 347 347 347 349 349 350 350 351 352 352 353 353 354 355 355 355 356 356 356 356 356 356 357 356
345 345 345 345 344 344 343 342 342 342 342 343 343 341 340 339 339 340 343 346 347 347 347 349 349 349 351 352 352 353 353 353 354 355 355 355 356 356 356 356 356 356
346 346 346 345 346 345 344 342 342 342 342 342 343 343 343 341 341 340 340 341 344 345 346 347 346 346 347 349 351 352 353 352 353 354 354 355 355 355 356 356 356 356
347 347 346 345 345 344 344 344 343 342 341 341 341 341 342 343 343 342 341 340 340 342 343 344 345 346 344 337 340 350 351 351 352 353 354 354 354 354 355 355 355 356
347 346 347 345 345 345 345 344 344 343 342 341 341 340 340 341 342 341 342 342 341 341 341 342 343 344 337 331 331 335 347 351 351 351 353 354 354 353 354 354 355 356
346 347 346 346 346 345 345 345 344 344 343 342 340 339 340 340 339 339 340 341 342 342 342 342 343 337 330 329 330 330 336 350 351 351 351 352 353 353 354 354 354 355
346 346 346 346 346 346 345 345 344 343 343 342 340 341 340 339 338 338 338 338 339 339 340 342 343 335 328 327 328 328 329 339 350 351 351 351 352 353 353 353 354 354
346 346 346 346 347 346 346 345 344 343 343 343 342 342 341 339 338 338 338 338 337 337 338 339 339 333 327 325 325 326 327 331 348 350 350 350 351 352 353 353 353 354
347 346 346 346 346 346 346 345 344 344 343 343 343 342 341 340 339 338 338 338 337 337 337 337 337 329 323 322 322 322 325 329 345 348 350 350 351 352 352 353 353 354
348 347 346 346 346 346 345 344 344 344 343 344 344 343 343 343 342 341 339 339 339 338 337 337 338 326 322 321 320 321 323 336 342 346 348 349 350 351 352 353 354 354
350 348 348 347 347 346 345 345 344 344 344 345 343 343 342 342 341 341 342 341 340 340 338 338 338 331 321 319 318 319 323 338 342 344 346 348 349 351 352 353 353 354
344 352 350 349 349 347 347 346 346 346 346 346 344 343 342 342 342 342 342 343 341 340 340 339 339 334 321 317 317 317 326 339 341 343 345 347 348 351 352 353 354 357
338 343 351 352 350 350 349 348 348 348 348 348 346 346 345 345 345 343 343 343 342 342 340 341 341 336 321 318 316 315 325 340 343 343 344 346 347 348 351 352 352 355
337 340 343 350 355 353 352 351 352 351 351 350 349 348 347 347 347 346 344 344 344 344 343 343 342 343 340 318 316 314 318 341 344 343 343 344 347 348 348 351 352 353

ECMWFNIL_sfc_thetae_069.txt.gz
Theta_e
358 358 356 354 354 355 357 358 357 358 361 359 359 361 363 366 368 368 368 368 368 366 368 369 370 370 368 370 371 370 369 368 368 368 368 367 366 363 360 362 364 363
358 358 358 356 356 357 358 358 360 359 362 363 362 363 366 367 366 367 367 366 367 366 369 368 369 370 369 367 369 367 368 368 367 366 367 368 367 365 362 363 363 365
357 357 356 354 353 353 352 356 359 360 359 360 362 365 364 365 365 366 367 366 366 364 368 368 368 370 368 368 369 367 365 368 366 364 368 368 366 365 366 362 363 363
357 357 355 354 354 353 353 355 357 359 359 360 360 361 362 361 364 365 366 366 366 366 367 366 366 367 368 368 369 366 366 367 365 368 367 368 368 365 365 366 363 363
356 356 355 355 355 355 355 354 353 355 356 357 359 362 363 364 364 363 364 365 367 366 367 367 368 367 369 369 369 367 366 365 367 369 367 365 368 367 365 365 365 363
357 358 357 355 356 355 352 352 353 353 355 355 357 359 360 363 363 363 363 363 363 363 363 364 365 365 366 368 368 367 365 362 364 368 366 365 364 365 362 364 365 364
355 356 355 355 354 354 353 352 353 354 353 354 359 358 360 360 362 363 364 364 363 364 362 364 366 365 366 367 368 367 367 367 367 368 366 364 366 365 364 365 366 364
354 354 355 355 353 353 353 352 352 352 354 356 355 358 360 358 361 361 363 363 362 363 365 364 367 368 365 365 366 366 366 363 364 367 367 365 366 365 366 364 365 365
354 354 354 354 352 352 351 350 351 352 353 352 351 353 358 358 359 359 362 364 362 363 365 365 367 365 365 365 365 366 365 363 362 364 364 363 363 364 363 365 364 365
354 353 352 352 351 351 351 351 350 350 352 350 350 350 352 357 359 359 362 363 361 363 364 364 365 364 364 365 365 365 365 365 365 365 364 363 362 362 362 363 363 363
352 352 351 351 350 350 350 351 351 350 350 350 349 349 350 353 357 360 361 362 358 360 361 362 362 363 363 362 363 364 365 363 364 365 365 364 364 364 363 364 363 362
352 351 351 351 350 350 350 350 351 350 350 350 350 349 350 350 353 355 357 359 360 359 360 362 363 363 363 362 361 361 363 363 363 365 363 364 364 363 364 365 363 364
351 351 352 351 351 351 351 351 350 350 350 349 350 349 349 349 350 353 355 356 359 359 358 360 361 361 363 363 362 362 362 363 361 362 362 363 363 362 361 363 363 363
351 353 353 353 353 354 353 351 351 350 351 351 351 349 348 349 349 350 354 355 356 357 358 360 361 360 363 363 363 361 361 361 361 360 360 361 361 362 361 360 361 362
353 353 354 354 354 354 354 352 352 352 352 352 352 350 349 349 349 349 351 352 354 355 356 357 356 357 358 360 361 361 361 359 360 360 359 359 360 359 360 361 361 361
355 355 355 355 355 355 356 354 352 352 351 352 351 351 351 351 350 350 349 350 351 354 355 354 354 355 352 341 345 359 361 358 359 361 360 359 359 359 358 359 360 359
356 356 356 355 356 356 356 355 354 352 352 352 352 352 351 353 351 349 347 347 348 350 351 351 352 351 339 333 333 337 354 360 359 360 361 360 358 360 359 356 358 360
355 356 356 355 356 356 356 356 355 353 353 353 351 350 353 352 350 349 350 348 347 347 348 349 350 341 331 330 330 330 337 356 357 356 356 357 357 356 357 357 356 356
356 356 356 356 356 356 357 357 356 354 353 351 349 350 350 351 351 350 350 349 348 348 346 347 348 337 329 327 328 328 328 340 353 355 354 354 355 356 356 357 358 358
356 355 355 356 357 357 357 356 354 354 352 352 350 351 351 350 349 350 350 351 350 349 350 349 348 337 327 325 325 325 326 331 352 354 355 353 354 354 355 356 359 359
357 356 356 357 358 358 357 356 354 355 353 352 351 350 351 350 348 348 349 350 349 349 349 348 347 333 325 323 322 322 324 328 349 353 354 354 355 356 357 356 358 358
349 355 356 357 357 357 356 355 355 355 355 353 352 350 351 351 351 349 348 348 348 348 346 346 347 329 323 321 320 320 323 339 347 352 353 353 355 357 358 359 358 358
343 345 352 355 356 356 355 354 355 355 355 356 352 351 349 349 350 349 350 349 348 348 347 346 346 335 321 319 319 319 324 343 348 350 352 353 353 355 357 358 358 359
341 344 346 349 355 355 355 355 354 355 355 355 352 351 349 350 351 350 351 351 349 348 347 347 346 338 320 317 316 317 327 345 349 349 350 352 354 355 357 358 358 354
336 340 344 345 348 354 354 354 354 354 355 355 353 353 352 353 352 351 351 351 350 349 344 345 347 340 320 317 315 315 326 346 349 349 348 349 350 351 355 355 357 354
334 337 341 343 345 347 354 356 355 354 354 353 353 353 352 352 352 352 350 351 351 350 349 348 348 350 345 316 315 313 316 343 349 347 346 347 349 348 350 353 354 356

ECMWFNIL_sfc_thetae_072.txt.gz
Theta_e
364 363 361 361 360 360 360 359 358 358 359 356 354 360 359 364 364 366 367 368 366 365 366 368 370 371 370 372 375 371 370 371 368 369 369 368 366 363 361 363 363 360
365 365 364 362 361 362 362 361 361 359 359 360 358 359 363 364 364 365 365 366 367 364 366 365 367 369 371 369 371 369 370 369 368 365 367 369 367 366 362 364 364 367
365 364 362 361 358 360 358 361 362 361 358 359 359 360 361 363 363 366 366 365 364 361 365 366 366 367 367 368 370 369 367 368 368 365 368 368 367 367 368 363 364 364
366 365 361 359 357 358 359 359 360 361 360 358 358 358 358 357 360 362 367 367 364 364 364 365 364 364 366 366 368 365 367 368 367 368 369 368 368 367 368 367 364 364
365 364 362 360 358 359 360 358 357 358 359 357 358 361 361 361 361 360 362 366 366 364 364 365 365 364 366 367 367 365 365 364 367 369 368 367 369 368 366 366 367 362
366 367 365 361 360 360 358 358 359 357 359 355 358 359 359 362 361 359 360 361 362 359 359 361 362 361 363 365 367 365 363 361 363 366 365 366 364 366 362 365 366 364
363 364 363 361 359 359 360 359 360 360 357 357 359 359 359 359 360 359 361 361 359 360 358 361 363 361 362 363 365 365 365 365 365 366 365 363 364 364 362 364 364 363
362 362 363 362 359 358 360 358 358 359 360 360 357 360 360 357 359 358 359 360 359 360 361 360 363 365 361 361 362 364 364 361 362 364 367 365 364 363 364 362 363 363
360 361 362 361 358 356 355 354 356 359 360 359 356 355 360 359 356 357 359 361 360 360 363 361 363 362 361 360 361 363 363 360 358 361 363 363 362 363 363 364 362 363
360 360 359 359 357 355 354 355 353 355 359 358 357 354 353 359 358 357 358 362 362 361 363 364 362 361 360 360 361 363 364 364 364 363 362 362 361 360 361 363 362 363
358 358 357 358 357 354 354 354 353 352 356 357 356 353 352 354 359 359 359 362 361 360 361 363 362 363 362 359 359 361 362 361 362 363 363 362 361 361 361 362 361 361
357 357 356 357 357 356 354 353 353 352 353 356 356 354 353 351 355 358 358 360 363 361 360 363 364 363 363 362 357 358 359 360 359 360 358 360 360 359 359 361 359 360
356 356 357 356 357 357 356 355 354 353 352 353 356 354 353 351 351 357 359 359 362 362 358 360 363 362 363 364 361 358 358 360 356 356 357 358 359 357 355 356 356 357
355 357 358 359 358 360 359 357 356 355 355 355 357 356 353 353 351 352 357 358 358 359 360 360 361 362 364 365 364 359 357 358 359 356 354 356 356 356 354 352 352 352
357 357 358 360 360 360 360 359 358 358 358 358 358 358 355 355 354 353 354 355 356 356 357 356 355 357 359 361 363 362 359 355 357 357 355 353 354 354 355 356 354 350
358 360 359 359 361 361 362 361 359 359 358 359 358 358 359 359 358 356 354 354 355 356 356 353 353 352 355 345 350 360 360 354 353 357 358 356 356 356 354 353 352 353
359 360 360 359 362 363 363 363 361 360 359 360 359 359 359 361 358 356 354 354 353 354 355 353 351 350 342 335 336 341 357 360 359 358 360 361 358 359 359 355 352 352
357 359 361 361 361 363 364 364 363 361 360 360 359 358 360 359 357 357 357 355 353 354 353 353 353 343 332 332 333 334 342 356 354 355 356 357 360 358 357 357 356 353
358 357 358 360 360 361 364 364 364 362 360 359 357 359 358 359 360 357 357 356 355 354 353 353 353 340 330 329 331 331 331 344 353 352 351 353 355 358 359 358 358 356
358 357 357 359 359 362 363 363 363 362 360 359 358 359 359 358 358 359 358 359 357 356 356 355 354 342 328 326 327 327 329 335 357 355 352 351 353 355 355 357 359 359
355 356 356 358 360 360 361 360 361 362 361 359 357 357 358 358 357 358 358 359 357 357 356 354 354 336 327 323 323 323 326 331 356 357 355 354 354 354 356 356 357 357
346 353 356 358 358 360 360 360 360 362 361 361 359 356 358 358 358 358 357 357 358 357 356 355 356 333 326 322 321 321 324 344 353 356 355 354 354 356 357 358 359 358
342 346 353 355 357 357 358 357 360 359 361 363 360 358 356 356 357 357 360 358 357 358 357 357 356 341 324 321 319 319 326 348 353 353 354 354 354 356 357 358 358 360
342 343 345 351 354 355 356 361 358 358 359 362 360 358 357 356 357 358 359 359 358 357 356 356 357 347 323 319 317 317 330 351 353 352 353 354 356 357 357 357 358 355
340 342 343 344 349 353 354 356 356 354 356 356 358 360 357 360 360 359 358 359 358 357 353 354 356 349 322 319 317 316 330 352 353 353 352 353 353 354 357 357 358 356
340 341 341 343 345 349 352 353 354 351 350 354 352 353 355 360 357 358 358 358 358 358 357 356 355 358 355 317 316 314 318 351 354 352 351 352 354 353 354 356 357 359

ECMWFNIL_sfc_thetae_075.txt.gz
Theta_e
361 361 360 359 360 360 359 357 355 356 358 357 355 358 359 363 365 365 365 367 365 364 365 369 371 371 368 374 373 368 370 365 361 365 366 366 366 361 359 359 362 359
361 362 362 360 360 361 360 358 359 357 358 360 357 358 361 365 360 363 365 365 366 364 366 364 367 370 372 369 372 368 369 370 368 363 367 367 363 364 361 361 360 364
362 360 359 358 356 359 356 359 361 359 357 357 359 361 360 361 363 363 363 363 364 361 363 365 365 366 366 369 373 367 364 370 368 363 366 367 366 364 366 361 360 359
364 362 358 357 355 355 356 357 358 360 358 357 356 356 358 358 360 361 363 364 363 363 362 362 363 362 365 366 369 369 366 371 368 369 369 371 367 365 365 364 362 362
365 362 359 358 356 356 358 355 354 356 356 355 356 358 358 360 361 359 360 362 364 362 362 362 363 362 364 365 365 364 362 364 366 367 367 370 370 367 363 364 365 362
367 366 364 359 357 356 354 354 355 355 356 353 355 356 356 357 358 359 359 359 359 359 358 359 360 360 361 363 364 364 361 359 361 365 364 365 362 363 361 363 366 362
364 366 363 359 356 356 354 355 356 357 355 354 356 356 357 356 358 359 360 359 358 359 356 359 362 360 360 362 364 364 363 363 363 365 364 363 364 362 363 363 366 366
363 365 366 362 356 355 355 353 355 355 356 356 353 355 357 356 358 357 358 358 358 358 359 356 360 363 358 359 360 361 362 359 358 363 365 364 363 363 362 360 362 362
363 363 363 361 356 353 352 351 352 355 356 355 352 352 356 357 357 357 359 359 359 359 360 358 361 360 360 358 359 359 360 358 355 358 360 360 359 361 361 362 359 361
360 363 360 359 355 352 352 351 349 351 355 354 353 350 351 356 357 357 358 360 358 359 359 360 359 359 360 359 359 359 360 361 360 358 357 358 358 359 358 359 358 359
358 364 360 359 358 353 351 351 349 348 351 353 352 349 348 352 356 357 359 359 356 358 359 360 360 360 361 358 358 358 360 358 359 360 359 359 359 359 359 359 358 357
355 358 359 356 355 353 352 350 349 348 348 351 352 349 349 347 351 354 355 357 359 360 360 361 362 362 362 361 357 355 356 358 357 358 358 359 360 358 358 359 357 358
353 356 359 358 357 356 354 353 350 349 347 348 350 350 348 346 347 353 355 355 358 359 359 360 360 360 363 363 361 358 354 356 354 355 355 356 357 355 353 354 354 354
356 357 360 361 361 362 358 356 353 351 350 349 350 349 348 347 346 347 353 355 355 357 360 360 360 360 362 364 363 360 355 354 355 354 352 353 351 352 351 350 350 351
358 360 361 361 360 362 362 360 358 355 354 353 353 350 348 347 346 345 349 353 355 356 358 356 353 355 358 361 360 361 358 353 354 355 354 352 351 349 350 351 349 348
359 361 364 361 360 364 366 363 360 359 356 354 353 351 354 354 353 349 346 348 351 354 354 353 352 351 355 348 352 360 360 353 352 356 357 355 353 351 348 349 349 348
357 358 361 361 363 363 366 365 363 361 359 362 358 356 358 362 356 351 348 347 347 350 351 349 348 347 344 336 338 344 358 358 354 355 358 357 353 356 353 348 347 347
358 357 359 361 363 362 364 365 363 363 363 361 358 356 360 356 354 355 357 351 348 348 347 348 347 343 332 332 334 335 345 359 354 352 351 351 353 352 351 351 349 346
354 356 356 357 362 362 364 361 357 355 356 357 357 359 358 360 361 357 358 357 354 352 348 348 347 339 328 329 332 333 334 348 352 352 349 348 349 352 354 353 353 351
353 352 353 356 359 359 359 357 356 355 357 356 356 358 360 358 358 359 358 361 359 357 357 353 350 342 327 326 328 329 331 339 360 355 348 346 350 348 349 353 357 356
349 350 351 352 353 357 355 354 354 355 355 357 357 356 356 359 359 358 359 360 359 358 358 355 353 339 326 323 324 325 328 335 361 359 354 351 349 349 354 350 355 355
344 347 349 351 353 353 353 354 355 356 355 357 355 359 356 358 361 360 359 359 359 360 357 356 356 335 327 322 321 322 326 347 358 361 357 355 356 357 355 356 354 355
342 346 348 349 349 350 351 352 353 355 357 358 355 354 355 359 356 357 356 358 359 361 359 359 358 344 326 321 319 320 328 352 358 357 357 357 356 358 359 358 356 358
340 344 345 346 347 347 349 352 353 354 355 358 357 357 356 355 357 355 356 358 359 359 359 359 359 350 325 319 318 318 334 355 357 356 356 356 358 359 359 360 361 358
334 338 342 344 346 347 348 350 350 352 354 356 356 357 354 355 356 356 356 356 355 357 359 358 359 352 325 319 317 316 333 358 359 356 354 355 355 356 359 360 360 360
336 336 339 343 344 347 350 353 352 351 351 353 355 356 354 353 354 356 356 356 355 356 357 358 356 360 357 318 317 315 320 357 360 356 354 355 357 356 357 359 360 361

ECMWFNIL_sfc_thetae_078.txt.gz
Theta_e
363 363 361 361 364 363 362 360 356 357 363 359 358 360 363 367 369 368 367 368 368 368 370 371 370 369 369 372 372 369 371 367 377 365 370 370 367 362 356 356 358 364
363 364 363 361 365 367 368 362 361 361 363 368 361 364 364 366 363 365 366 366 367 365 370 368 371 372 370 370 372 370 372 370 368 363 368 367 369 363 359 361 358 371
361 362 359 358 356 359 357 359 363 361 359 357 361 367 361 362 362 368 369 367 365 361 369 369 370 371 369 371 373 371 365 371 365 361 366 368 369 367 368 358 359 360
363 361 358 356 356 357 357 359 361 362 359 359 357 355 357 356 363 363 367 367 367 367 364 365 366 365 368 369 373 373 368 371 370 369 370 370 372 367 367 366 364 365
360 360 359 358 357 360 360 358 355 357 356 358 355 360 365 370 364 360 364 365 369 365 367 366 367 365 368 369 369 369 366 365 367 371 370 371 374 370 364 369 368 364
364 364 363 360 360 359 355 355 356 356 357 354 356 356 357 362 363 360 360 360 358 359 359 359 361 361 363 367 367 366 364 360 363 368 367 368 365 365 359 365 366 368
360 360 359 358 355 355 355 356 356 358 355 355 358 356 357 355 359 362 362 361 359 360 358 361 365 363 363 367 367 368 368 369 366 367 368 366 368 366 361 366 371 371
356 356 357 359 355 352 353 354 355 355 359 358 354 358 358 353 358 356 360 361 358 360 361 360 365 368 359 361 364 365 364 359 360 369 367 367 368 366 365 362 368 370
356 357 356 357 354 353 350 350 353 354 357 356 352 352 357 357 357 355 361 364 361 363 365 362 366 362 361 362 363 364 363 359 357 361 364 363 363 365 364 365 363 367
357 358 356 358 353 351 351 349 350 352 355 353 352 351 351 357 359 358 361 364 362 365 366 364 367 361 361 360 365 364 362 363 364 367 361 361 361 361 360 362 361 363
357 362 360 360 359 353 350 350 349 350 352 352 352 350 351 353 357 362 364 364 357 360 363 363 362 364 364 359 358 359 362 360 360 362 364 364 362 363 364 365 363 360
355 355 356 357 361 358 355 349 348 347 348 351 352 352 353 351 355 355 357 364 361 360 361 363 364 363 365 363 358 357 359 359 361 362 360 361 362 362 363 363 360 363
357 356 356 356 359 357 356 353 350 347 346 347 350 351 350 348 351 355 356 359 363 361 359 361 363 362 365 365 362 361 360 359 357 359 358 358 359 358 357 358 359 358
354 357 357 357 359 364 362 357 354 351 349 350 352 351 349 348 346 351 355 355 358 358 360 363 364 362 365 366 364 361 359 359 358 357 354 355 356 358 356 354 355 354
358 356 359 360 360 363 364 362 361 362 361 357 357 351 348 348 348 346 350 352 353 356 358 358 357 357 358 361 362 363 362 358 356 355 355 355 355 353 355 354 352 351
354 352 352 356 354 352 352 355 360 358 356 356 357 354 356 356 354 352 348 350 352 355 356 354 354 355 357 349 353 360 361 357 355 356 355 355 357 356 352 352 349 348
350 350 353 355 358 358 357 360 359 359 360 359 357 360 361 364 358 352 347 346 348 350 352 351 352 353 346 337 339 347 360 361 359 360 360 359 357 359 356 352 350 350
349 350 353 353 351 349 351 356 358 356 357 354 351 354 355 354 354 357 357 353 347 346 347 350 351 348 335 332 335 336 347 360 359 357 355 356 356 355 356 354 351 348
352 350 349 349 348 349 350 354 355 353 353 355 356 356 355 358 356 352 352 356 354 355 350 347 349 341 331 329 332 333 335 349 356 357 354 351 351 355 354 355 355 352
345 350 350 351 350 350 352 354 354 353 356 358 358 359 358 357 356 358 357 356 354 356 358 357 353 344 329 326 328 330 332 338 356 356 356 353 352 352 352 353 355 354
342 346 350 350 351 351 350 350 351 352 354 356 357 359 358 357 357 357 358 357 355 354 354 355 354 340 330 322 323 325 329 335 354 356 354 352 352 354 357 355 357 355
338 342 345 347 349 349 349 349 349 349 350 355 359 360 359 359 358 357 356 354 355 354 354 356 356 336 332 321 320 322 327 344 351 355 354 352 351 351 352 355 355 355
337 340 342 346 347 347 346 348 351 352 354 357 355 356 355 356 357 356 356 355 354 354 353 355 357 345 332 323 317 319 326 344 350 354 356 355 353 353 353 354 354 354
338 338 338 342 343 344 346 348 352 353 354 357 354 354 354 355 356 357 357 357 355 353 353 354 355 351 333 325 317 317 330 345 350 353 354 356 357 358 358 358 359 360
337 335 334 334 338 342 342 346 349 350 351 353 353 352 353 355 356 355 354 355 356 356 358 355 355 351 335 326 316 315 327 348 353 353 353 353 354 356 357 358 358 360
333 340 339 337 335 338 339 341 344 345 348 347 349 350 350 350 350 352 353 354 355 355 355 356 355 357 356 332 316 313 317 348 357 355 353 353 354 355 355 357 358 359

ECMWFNIL_sfc_thetae_081.txt.gz
Theta_e
354 358 356 358 357 357 355 356 357 356 355 357 358 356 358 359 359 358 360 361 362 359 362 362 363 362 368 366 364 361 364 362 366 362 363 361 361 362 361 357 356 354
355 357 359 358 358 361 357 357 356 354 355 355 356 356 360 361 360 363 360 361 362 362 363 362 363 362 364 365 363 359 362 363 360 365 362 363 362 360 358 357 357 362
356 356 356 355 356 358 360 357 356 355 355 357 356 356 359 361 360 360 361 362 359 361 363 364 364 365 364 364 364 363 365 363 358 360 358 359 362 361 361 361 356 358
356 356 356 355 354 356 356 356 355 356 356 353 354 360 357 360 358 357 361 367 358 358 362 362 363 364 363 364 364 363 361 363 364 362 362 363 363 364 361 360 362 359
356 356 355 354 353 355 355 354 353 355 353 353 353 354 356 355 357 356 361 361 359 360 360 361 360 361 363 362 364 361 361 359 361 361 360 357 361 365 364 361 359 358
356 356 356 354 353 354 354 353 353 353 353 353 352 353 353 360 355 356 359 358 359 359 359 358 360 360 361 361 364 362 361 360 359 360 361 360 361 364 363 361 357 358
357 356 356 356 355 354 353 352 353 354 353 352 353 351 352 356 355 355 356 357 357 357 355 356 356 356 359 359 361 360 359 359 357 359 360 359 361 360 361 360 361 358
358 357 356 355 355 353 352 351 351 352 353 353 352 351 351 352 354 356 355 356 354 354 354 355 356 355 356 358 358 358 358 361 361 358 357 358 358 357 356 359 360 359
358 356 354 353 353 353 350 350 351 351 353 352 351 351 352 351 351 352 355 355 354 354 354 354 356 357 356 356 357 357 357 356 356 359 358 358 358 358 358 357 355 357
356 354 353 353 353 355 353 350 349 350 352 352 351 349 351 352 352 351 352 356 354 354 354 353 357 356 356 355 356 357 356 355 355 355 356 358 357 357 358 357 356 354
353 354 353 353 352 351 346 346 348 346 350 350 350 348 349 350 353 352 351 353 355 355 358 355 358 356 354 354 356 358 357 356 355 354 356 356 356 356 362 355 354 354
348 348 350 349 351 351 351 353 349 348 348 349 349 348 347 349 349 353 353 353 353 353 355 357 356 357 355 353 353 354 356 356 356 354 353 355 357 356 356 357 356 355
351 351 350 351 353 353 353 353 352 352 350 350 349 348 348 347 349 350 355 355 354 353 353 355 356 356 356 356 354 353 352 353 353 355 355 354 353 354 355 356 355 354
352 354 353 352 353 352 352 353 353 351 353 355 355 348 347 347 348 349 349 356 355 354 353 354 355 355 355 357 356 355 354 353 351 352 353 353 352 352 353 352 352 353
350 351 353 352 352 351 350 350 353 353 356 357 356 353 349 347 346 349 349 349 354 354 354 355 355 355 355 356 357 355 354 353 353 352 351 351 351 351 352 352 352 352
348 352 354 353 350 350 349 350 351 357 358 357 356 355 353 352 351 347 348 348 348 352 353 354 354 356 357 349 353 357 355 354 354 352 351 350 350 349 349 351 352 351
349 351 352 350 353 355 354 356 358 358 357 356 352 352 353 353 352 350 349 346 348 348 350 352 353 354 348 337 339 346 357 355 353 352 350 349 348 348 348 348 348 349
348 349 348 348 348 347 348 350 354 353 351 350 351 353 352 354 352 352 351 352 350 348 347 349 351 349 337 334 335 336 346 356 354 353 353 351 349 348 349 349 348 347
347 348 348 348 348 348 349 351 352 352 352 353 356 356 355 353 351 352 351 352 352 351 352 352 348 342 332 331 332 332 334 347 354 354 352 351 350 350 349 349 349 348
343 345 348 348 348 349 348 347 350 350 352 355 356 355 353 354 354 353 353 351 352 352 350 351 351 349 333 326 326 328 331 337 352 353 353 352 351 349 349 349 348 348
337 341 344 348 347 348 348 347 347 346 348 350 355 356 354 353 353 352 353 353 352 352 351 351 352 341 334 327 321 321 325 332 348 352 352 351 351 349 348 348 348 349
333 336 339 341 345 346 345 346 348 349 349 352 354 355 356 355 355 354 353 352 352 352 351 351 352 336 331 330 323 318 323 333 341 347 350 350 349 349 348 348 348 348
339 338 339 341 344 343 343 344 346 349 351 353 351 352 352 353 353 354 354 354 353 353 351 350 351 342 332 323 322 321 323 332 338 342 346 348 348 347 347 346 346 346
339 339 337 337 336 338 340 341 342 343 346 349 349 350 349 350 352 353 354 355 355 354 354 352 351 346 320 325 323 319 326 333 337 340 341 344 347 349 348 347 348 356
332 336 335 334 333 333 339 338 339 340 342 345 347 347 348 349 351 350 351 352 353 353 357 355 354 344 323 326 328 319 326 337 340 341 341 342 344 347 349 350 350 355
325 332 337 338 335 335 337 336 340 340 341 343 343 343 343 346 348 348 347 348 350 351 354 353 351 351 345 323 323 318 320 342 343 343 342 342 344 345 346 348 350 351

ECMWFNIL_sfc_thetae_084.txt.gz
Theta_e
350 354 352 350 349 350 351 350 353 353 352 354 355 354 355 357 359 358 360 359 360 359 358 357 359 359 363 360 359 358 358 358 360 358 359 356 354 355 357 356 354 352
350 354 357 353 353 356 353 352 353 354 353 354 354 354 357 358 358 357 358 358 361 358 358 357 359 358 358 361 358 355 356 358 353 363 357 358 356 357 356 355 355 355
351 352 355 354 353 355 353 354 354 354 354 354 356 355 357 359 358 357 358 358 359 357 358 357 358 358 359 360 358 356 357 357 355 356 355 353 356 357 358 357 356 356
352 352 354 354 354 355 355 354 354 353 353 354 353 355 358 360 358 358 358 364 358 359 359 358 358 360 360 360 359 357 357 358 357 356 355 357 359 359 360 358 359 359
353 352 353 353 354 355 356 354 353 353 352 353 354 354 356 357 357 357 357 360 356 357 359 360 359 360 361 359 360 358 357 358 358 356 354 354 354 358 360 361 358 355
354 354 354 353 352 352 353 353 353 353 353 352 351 354 354 355 356 355 357 358 357 356 359 359 359 360 360 359 360 359 359 358 357 355 355 355 355 357 361 360 356 355
354 354 354 353 352 352 352 352 352 353 353 352 352 350 351 354 354 354 356 357 357 356 357 358 357 357 358 358 359 358 357 357 356 355 354 355 357 357 359 359 358 355
346 348 350 353 352 351 352 351 352 352 352 351 351 351 350 354 353 354 355 356 356 355 356 356 356 356 357 357 357 357 357 359 358 355 354 355 354 355 357 357 355 354
346 345 345 346 348 347 347 350 351 352 352 351 350 350 350 350 353 353 354 355 355 355 354 354 355 355 356 356 356 357 356 356 357 356 355 354 354 355 355 355 354 353
348 349 349 348 348 347 346 345 345 346 352 351 351 350 350 350 351 353 354 353 353 353 352 352 353 353 353 355 355 355 355 354 354 353 354 355 354 355 356 356 355 353
348 350 348 349 349 351 350 349 346 345 346 347 349 349 350 349 350 350 352 353 352 352 351 351 352 353 353 353 354 355 355 354 354 353 352 353 355 354 360 355 354 353
348 349 349 348 350 351 351 352 349 347 346 347 349 349 347 349 349 349 349 351 352 352 352 352 351 353 353 353 353 354 354 354 354 353 352 353 354 354 354 356 354 353
348 349 350 351 352 351 352 352 351 350 349 347 349 352 349 345 348 349 350 348 350 352 352 353 353 353 353 352 352 352 354 354 353 352 352 351 352 354 354 354 354 354
347 350 351 351 351 351 350 351 352 352 351 349 351 352 352 348 345 348 349 349 349 350 351 353 353 353 353 353 352 351 351 353 353 353 352 351 351 351 352 353 354 354
350 350 351 352 351 349 348 349 351 350 351 353 354 354 356 352 347 346 347 350 350 349 349 350 351 352 353 353 353 352 350 349 350 351 351 351 350 350 350 350 350 350
348 351 351 349 348 347 346 347 349 353 354 354 354 355 353 353 351 345 346 347 350 351 350 350 350 351 354 347 351 354 352 352 351 350 349 348 349 349 349 349 350 350
348 348 347 347 349 350 350 351 352 354 354 353 351 351 350 351 352 349 349 345 346 349 351 351 351 352 346 337 337 344 354 351 350 350 350 349 348 347 347 348 348 349
346 346 345 346 346 345 346 347 350 350 349 349 349 351 351 354 352 351 349 350 349 347 347 350 351 349 337 333 334 334 343 353 352 351 350 349 348 347 347 347 347 347
344 346 346 345 346 345 345 347 347 349 349 351 352 353 354 351 350 351 350 350 350 348 349 351 351 342 335 331 331 331 331 343 352 352 351 350 350 349 348 346 346 346
341 344 344 343 346 346 346 346 346 345 347 349 352 352 351 351 352 350 349 348 349 349 348 350 349 347 335 329 325 325 327 330 344 351 352 352 351 351 350 349 347 346
336 337 340 342 344 345 345 345 345 346 348 350 352 352 351 351 351 349 349 351 351 350 349 349 351 339 332 332 326 321 322 328 337 342 348 351 351 352 351 350 349 349
334 335 337 339 342 344 343 343 344 345 344 346 348 349 351 351 351 352 350 350 351 351 350 349 351 334 332 332 328 324 323 332 334 337 340 345 349 350 350 350 350 349
336 335 335 335 337 337 339 339 340 339 340 344 344 343 342 345 347 349 351 352 352 351 350 350 351 338 327 325 323 323 326 334 334 336 338 340 344 347 349 349 348 348
329 331 333 335 333 333 336 338 338 340 339 341 344 342 341 341 344 347 348 350 351 352 353 351 352 347 326 319 318 319 329 335 334 335 336 338 340 343 346 347 349 355
322 325 327 330 331 332 335 337 336 336 339 341 343 343 342 342 343 344 345 346 348 349 355 353 352 348 329 320 322 315 325 335 336 336 336 337 338 339 341 344 345 351
323 325 326 325 324 325 328 332 338 338 335 337 339 341 341 342 344 340 339 341 342 342 343 345 349 350 344 325 322 319 319 340 340 338 339 339 340 340 340 341 343 344

ECMWFNIL_sfc_thetae_087.txt.gz
Theta_e
349 348 348 347 345 346 348 348 349 349 349 350 351 351 353 355 357 358 359 358 357 357 357 356 356 356 360 356 356 356 356 352 354 353 353 353 350 350 352 353 352 350
348 351 353 350 349 351 349 349 351 351 350 350 353 352 353 355 356 357 357 357 357 357 357 356 356 356 355 357 355 352 352 354 351 361 353 353 352 353 355 354 353 352
347 350 352 349 348 349 350 350 352 352 351 352 353 354 354 356 356 356 356 357 357 357 356 355 355 356 355 356 356 354 353 352 352 353 353 351 351 352 353 356 354 354
347 349 352 353 350 350 351 351 350 352 352 352 353 355 356 357 356 356 355 362 356 356 356 355 355 355 355 356 357 354 353 354 354 352 352 353 354 355 353 355 358 357
349 348 350 352 352 352 352 351 351 351 352 352 353 354 355 356 356 355 355 356 356 356 356 356 355 355 356 356 357 355 354 354 354 353 352 351 351 353 355 357 355 354
350 349 350 351 352 352 353 351 351 351 351 351 352 354 353 354 355 355 355 355 356 356 356 357 356 355 357 356 356 356 356 355 354 353 353 351 353 353 356 356 354 353
351 351 350 351 351 352 353 352 352 353 352 352 352 351 352 352 354 354 354 355 356 355 355 356 356 355 356 356 356 355 355 355 354 352 352 352 352 352 354 354 355 353
348 347 348 350 351 349 350 351 351 352 352 352 351 350 350 351 352 354 354 354 355 355 354 355 356 355 356 356 355 355 355 357 356 352 351 351 349 350 352 355 353 350
347 347 347 348 348 347 349 350 350 350 351 351 351 351 350 350 351 352 353 353 354 354 354 354 354 355 355 355 354 354 354 355 357 354 353 352 351 351 352 353 351 350
347 347 348 348 348 346 346 345 346 346 349 350 350 350 350 350 350 351 351 352 353 353 353 353 353 354 354 354 354 354 354 354 354 354 353 353 352 352 352 352 352 350
347 347 347 347 348 348 347 347 346 344 346 347 348 349 349 348 349 350 350 351 352 352 352 352 352 353 353 353 353 354 354 354 353 352 352 352 353 352 357 352 352 352
347 347 347 347 348 348 349 349 348 346 345 345 346 347 347 348 347 348 350 350 351 351 352 352 352 352 352 352 352 353 353 353 353 352 352 351 351 351 352 353 353 352
347 347 347 348 349 349 350 350 350 349 347 345 347 347 345 345 346 347 348 349 351 351 351 351 351 351 351 351 351 351 351 352 352 351 351 351 350 351 352 352 352 353
347 348 349 349 349 349 350 351 351 350 349 348 347 346 349 348 344 345 346 348 348 350 351 352 351 350 350 350 351 351 350 350 351 351 351 350 350 350 351 351 352 352
345 348 349 349 351 349 348 348 349 348 349 348 349 349 351 351 350 346 345 346 347 347 349 351 351 351 351 351 350 350 350 350 350 351 351 350 350 349 349 349 349 351
346 348 349 348 347 346 345 345 346 347 349 348 350 351 351 351 349 349 345 345 346 346 347 348 349 351 354 347 350 352 350 350 349 349 350 350 349 349 349 349 349 349
347 347 348 347 348 348 347 348 348 347 348 350 350 350 348 347 350 347 347 344 344 346 347 347 348 349 345 337 337 343 353 349 348 348 348 348 348 347 347 347 348 348
346 345 345 346 345 345 346 348 350 350 347 345 346 348 348 351 350 348 347 347 346 344 346 348 348 347 337 333 333 333 343 352 350 349 349 347 347 347 347 347 347 347
344 343 343 343 344 344 345 346 347 346 346 347 348 350 350 347 346 347 347 348 348 345 344 345 348 343 336 334 332 331 331 342 349 349 348 348 347 347 347 347 346 346
340 342 341 342 343 343 343 344 345 345 347 348 350 351 350 349 349 347 347 345 346 346 345 347 347 346 335 331 329 328 329 333 345 347 349 349 349 348 348 347 347 346
335 336 337 340 342 342 341 341 342 342 342 343 347 347 347 348 350 349 348 350 350 349 347 349 350 339 333 329 324 322 324 329 340 344 345 347 348 349 349 349 349 349
330 332 333 334 335 338 338 337 338 340 341 342 346 342 341 342 343 346 347 348 349 350 348 348 351 336 330 328 326 324 323 333 335 337 339 342 344 346 348 349 350 349
326 327 330 331 330 329 330 334 337 338 339 343 343 342 341 341 339 342 344 345 346 347 347 347 349 342 333 327 324 323 327 334 334 336 336 337 339 341 344 346 348 349
324 325 325 324 323 323 326 328 331 335 337 340 341 340 340 341 342 342 342 342 341 343 345 345 345 342 326 324 321 322 327 337 337 336 336 337 338 339 340 342 344 353
323 325 324 322 321 322 325 325 327 331 335 338 337 338 339 338 342 341 341 341 342 341 344 344 344 343 329 324 321 320 329 337 337 336 336 337 338 338 339 340 340 347
322 324 324 322 320 321 322 324 328 326 326 330 333 336 337 338 340 340 338 339 341 344 343 344 344 345 344 329 322 321 319 334 337 336 337 338 338 339 339 340 341 341

ECMWFNIL_sfc_thetae_090.txt.gz
Theta_e
347 348 348 348 347 348 348 348 349 350 350 351 351 352 353 356 359 360 362 362 362 362 361 361 361 361 361 361 363 360 361 359 360 359 358 358 357 356 356 357 358 358
348 350 353 350 349 351 350 350 350 350 350 351 352 353 355 357 358 360 360 361 362 361 361 360 360 360 360 361 361 359 360 361 360 362 360 360 360 359 359 360 359 359
349 350 351 349 348 349 349 351 352 351 351 352 353 354 354 357 358 359 360 361 360 360 360 360 360 360 360 361 361 360 358 358 359 358 362 360 359 360 360 360 361 360
349 351 351 351 350 350 350 351 353 353 353 353 353 355 356 356 358 358 359 363 360 360 360 360 360 359 360 360 361 360 358 358 359 359 359 361 361 361 361 361 363 362
348 349 352 353 352 352 352 351 351 353 353 354 354 356 358 358 358 358 358 359 360 359 359 360 359 359 360 359 360 360 359 358 359 360 359 358 359 360 359 362 362 361
349 349 351 353 353 353 352 352 352 352 354 353 354 356 356 357 358 358 358 357 358 358 359 359 359 358 358 359 359 359 360 359 359 359 359 359 359 359 358 360 361 360
349 349 349 352 353 353 354 353 353 354 353 355 356 355 356 355 356 358 358 358 358 359 358 359 359 359 359 360 359 359 359 360 360 359 359 359 359 359 357 359 360 360
350 350 350 351 351 352 353 354 354 354 354 355 353 355 355 355 356 357 358 358 358 358 359 358 360 360 358 359 359 359 359 359 359 359 358 358 357 357 358 357 359 358
352 351 351 351 351 351 352 353 354 354 355 354 353 353 355 355 355 355 356 357 357 358 358 358 359 359 359 359 359 359 359 359 360 359 358 358 356 357 357 357 357 357
351 351 351 351 351 351 351 352 352 353 354 353 353 354 353 354 354 354 355 356 356 357 358 358 358 358 358 359 359 359 359 359 359 359 359 358 357 357 357 357 357 357
350 351 350 351 351 352 351 351 350 350 351 353 352 352 353 353 354 354 354 354 354 355 356 357 357 357 357 357 358 359 359 358 359 358 358 358 358 358 359 358 357 356
350 350 350 350 351 351 351 350 349 348 347 350 351 351 352 352 352 352 353 353 354 355 356 356 357 357 357 357 357 357 357 358 358 358 357 357 357 357 357 358 357 358
350 349 348 348 350 351 352 352 351 350 348 346 349 349 348 349 350 351 353 353 354 354 354 356 356 356 356 357 357 357 357 357 356 357 357 357 356 356 356 356 356 357
347 347 346 343 346 347 350 352 353 352 352 351 350 349 349 350 348 348 349 352 352 353 355 356 356 355 356 356 356 356 355 355 356 356 355 355 355 356 355 355 356 356
345 346 345 345 346 345 346 348 350 352 352 352 352 351 350 351 352 351 349 349 350 352 353 354 353 353 354 354 354 355 355 354 354 354 354 355 355 354 355 355 355 355
346 347 347 347 346 345 346 346 348 349 351 351 351 351 352 353 353 353 352 349 348 350 350 350 352 353 354 346 348 355 355 354 354 355 355 355 355 354 354 354 353 353
346 346 346 346 347 347 347 347 348 348 348 350 353 353 353 352 354 353 352 350 348 347 348 348 349 351 346 337 336 340 354 355 354 354 355 355 354 354 354 354 354 354
345 345 345 345 346 345 346 347 349 349 348 348 351 351 352 353 352 352 352 351 351 349 347 347 349 347 335 333 334 334 342 355 354 354 353 353 353 353 353 353 353 352
343 343 344 344 345 345 346 346 346 346 347 349 351 353 353 352 352 352 353 352 352 351 351 351 349 342 334 332 330 330 331 344 354 355 354 353 353 353 353 353 353 353
342 342 341 342 343 343 343 343 342 341 342 345 344 345 346 348 350 350 351 352 352 352 352 353 352 341 331 328 327 328 328 333 349 353 354 354 354 354 352 353 353 353
335 335 336 338 340 340 338 337 338 339 340 343 342 341 341 341 342 345 346 347 348 349 350 349 347 332 330 329 325 322 323 330 342 346 349 351 352 353 354 354 354 353
328 328 328 328 329 330 332 334 337 338 339 343 342 343 343 344 342 342 341 341 343 345 345 344 345 330 326 326 324 323 326 340 342 343 344 345 347 348 350 352 353 354
326 325 326 325 326 326 326 328 331 334 339 343 342 343 342 341 340 341 341 340 340 342 344 346 346 336 324 322 322 322 333 343 343 343 343 343 344 345 346 347 349 350
326 325 324 324 324 325 326 327 328 331 333 338 339 340 341 341 341 343 344 343 339 339 342 344 345 342 325 322 321 321 330 341 343 343 343 343 345 345 346 347 347 349
324 325 323 323 323 324 326 326 327 327 329 333 336 339 340 342 342 343 344 344 341 339 339 345 346 343 330 325 323 320 330 341 342 343 343 345 344 345 347 348 348 348
323 324 324 323 323 324 325 325 327 326 327 328 330 332 336 339 341 343 342 343 345 344 344 346 346 346 344 328 323 321 320 334 341 343 344 345 346 347 347 348 348 349

ECMWFNIL_sfc_thetae_093.txt.gz
Theta_e
361 361 360 360 360 360 361 360 359 360 363 361 360 361 363 366 369 368 368 370 370 369 370 371 371 370 367 368 369 367 367 366 366 364 365 364 362 360 358 360 362 361
361 362 363 361 363 364 363 361 362 362 364 365 364 364 367 367 366 367 368 368 369 369 371 369 370 370 369 366 368 366 366 366 366 363 364 364 363 362 361 362 361 365
360 360 359 359 356 359 356 360 363 362 361 361 364 366 364 365 365 368 369 368 367 366 370 371 370 371 369 369 369 367 363 366 364 364 367 365 363 362 363 360 361 362
361 360 357 357 357 358 359 361 362 363 363 362 361 361 363 361 365 366 368 369 369 369 369 369 368 368 369 369 370 368 366 366 365 367 366 367 366 363 362 363 361 361
358 359 359 359 359 361 361 359 357 360 361 361 362 365 366 367 367 365 367 367 370 368 369 369 370 369 371 370 370 367 367 363 365 368 366 365 367 364 362 363 362 361
359 362 362 360 361 361 358 358 359 359 360 358 361 363 363 366 366 365 365 364 364 364 364 366 367 366 367 369 369 368 365 362 363 367 365 364 363 364 361 363 364 362
356 358 357 359 359 360 359 360 361 362 360 360 364 363 364 363 365 367 367 365 364 365 363 366 369 368 368 370 370 369 368 367 367 367 365 364 366 365 365 365 366 364
357 357 357 359 358 359 359 360 360 362 363 365 361 364 365 362 365 363 365 365 364 365 367 366 369 371 367 367 367 367 366 362 364 367 367 365 366 365 365 364 365 365
359 358 357 356 355 356 355 355 357 359 363 362 359 359 364 363 363 362 366 368 365 366 368 367 369 368 368 368 367 368 366 363 361 364 365 363 362 364 363 365 363 364
360 360 358 355 354 354 354 354 354 357 361 359 358 358 359 364 364 364 365 368 365 366 367 367 367 366 366 367 368 368 366 366 366 366 365 364 362 362 361 363 362 362
359 361 359 360 359 360 356 355 355 355 358 357 357 357 359 361 364 365 366 366 362 364 365 366 366 366 367 365 366 367 367 365 364 366 366 365 365 365 364 365 364 362
358 359 360 360 361 361 361 358 356 356 357 358 358 358 360 358 360 362 362 364 364 364 365 366 367 367 367 366 364 365 366 366 366 367 365 365 365 365 365 365 363 363
357 358 359 361 362 363 363 361 359 358 357 356 358 358 358 357 357 361 362 362 363 363 362 364 365 364 367 368 366 365 365 366 363 365 365 365 365 363 362 363 363 363
356 356 355 356 358 359 361 361 360 358 358 358 358 357 356 357 356 357 359 360 361 361 363 364 365 364 366 367 366 365 364 364 365 364 363 363 363 364 363 361 362 361
351 351 349 347 348 352 354 356 358 359 359 359 359 358 356 357 357 356 356 357 358 360 361 361 359 359 360 363 364 365 364 362 363 363 363 363 363 361 362 364 364 361
346 347 347 348 348 348 348 350 354 356 357 358 358 358 360 360 361 360 357 356 356 357 358 356 356 357 362 354 355 361 363 361 361 364 363 363 363 363 361 362 361 360
347 347 346 345 348 348 348 350 352 353 354 354 356 358 360 361 360 359 358 357 356 356 355 354 354 354 347 342 339 340 356 360 362 364 365 364 362 363 363 361 361 362
346 346 345 346 346 347 348 351 353 353 353 353 354 354 357 357 357 359 360 359 358 358 356 355 355 340 332 334 335 335 345 357 358 360 360 361 361 360 360 360 360 359
347 346 346 347 347 349 350 352 353 352 352 353 354 355 356 356 358 358 358 359 360 360 358 358 355 335 329 329 331 331 334 348 356 359 359 359 360 361 361 361 362 361
347 347 345 346 348 349 349 350 349 348 350 352 354 356 354 353 354 355 356 357 358 359 361 359 351 335 328 327 327 329 331 341 359 360 359 359 360 361 360 360 362 362
332 332 335 338 341 344 345 344 345 345 347 348 349 350 350 349 348 347 349 353 355 357 358 354 345 328 326 325 324 327 328 340 360 359 358 359 360 360 361 360 361 360
328 330 331 332 333 335 338 340 342 342 343 345 346 348 351 350 348 345 345 348 351 353 354 353 347 325 324 324 324 328 335 357 359 360 358 358 359 359 358 360 359 359
328 328 329 329 330 329 330 331 334 337 342 345 345 346 346 348 347 344 345 344 345 349 350 350 351 334 322 321 320 323 344 358 359 358 359 359 359 359 359 359 359 358
330 329 328 328 329 329 329 331 333 336 339 342 344 343 344 345 347 347 347 345 342 342 345 346 347 333 319 318 318 318 339 356 356 356 357 358 358 359 360 360 358 351
328 329 328 329 330 330 331 332 333 334 336 341 343 342 343 345 345 346 346 346 346 345 345 346 342 331 318 317 317 318 338 354 353 354 353 354 354 355 358 358 359 356
327 328 329 329 330 330 331 331 333 333 334 336 337 340 341 343 343 343 343 344 341 337 335 333 332 333 325 314 314 316 322 349 351 351 349 349 351 352 352 354 355 356

ECMWFNIL_sfc_thetae_096.txt.gz
Theta_e
362 363 361 360 362 362 363 362 361 362 363 361 359 362 362 366 366 367 367 368 369 370 373 374 374 369 368 370 372 370 368 368 369 366 365 364 363 359 357 360 359 358
362 363 362 361 363 364 364 363 363 363 363 364 364 363 366 367 366 367 367 366 369 368 372 371 371 370 370 368 371 367 368 369 368 365 364 365 364 361 359 361 359 361
362 362 360 359 357 360 359 361 362 362 361 362 363 366 363 364 366 366 368 368 367 366 371 371 373 372 369 369 368 367 365 369 366 365 367 367 364 362 362 359 359 361
362 362 359 358 357 357 358 360 361 361 362 361 361 361 361 360 364 366 367 366 368 368 369 371 370 370 370 370 370 367 367 366 366 369 368 369 368 365 364 364 361 361
360 360 360 359 358 361 360 359 358 358 359 359 360 363 364 365 365 364 366 367 369 368 368 369 370 369 370 371 371 369 368 364 367 369 367 366 369 366 363 363 362 360
361 362 362 360 359 359 357 358 358 358 360 357 359 361 362 363 363 362 363 363 364 363 364 366 368 367 367 370 371 369 367 363 365 369 365 367 365 366 361 364 365 362
358 359 358 359 357 358 358 358 358 360 358 359 362 361 362 362 362 363 364 363 363 365 363 367 369 368 368 370 370 370 369 366 368 367 366 366 367 366 365 366 367 364
357 357 359 357 355 355 356 355 356 358 360 361 359 361 360 361 363 362 363 364 363 364 365 366 368 369 366 367 369 368 369 364 363 365 367 365 366 367 367 364 366 365
358 356 356 355 352 352 351 351 353 356 359 358 355 354 360 361 361 361 363 367 365 366 367 368 368 368 367 367 368 367 367 365 362 366 366 365 364 366 364 366 364 364
360 359 356 352 349 349 349 350 350 351 355 355 353 351 353 362 363 364 366 368 367 367 368 368 367 367 367 368 367 367 367 367 367 367 366 366 365 364 363 363 362 363
362 361 359 359 359 356 351 349 349 348 350 352 351 349 350 358 364 365 366 368 364 365 366 367 367 367 367 365 366 367 367 366 367 367 367 367 367 366 364 364 363 362
359 357 358 360 361 361 360 355 352 350 350 350 352 351 352 353 359 362 362 365 366 366 366 367 367 368 368 368 365 364 365 365 366 367 365 366 366 365 365 365 364 364
353 357 358 361 363 364 364 362 357 353 351 351 353 352 351 351 353 357 360 361 362 362 362 365 366 365 367 368 367 366 365 365 363 365 365 364 365 362 361 363 363 362
357 358 360 363 366 366 366 365 362 358 357 358 358 356 353 353 352 354 356 358 358 358 360 364 366 366 368 368 367 365 364 364 363 362 362 362 362 363 361 360 360 360
359 358 360 362 363 363 363 364 365 363 361 361 361 359 356 355 354 353 355 357 357 358 358 361 360 361 362 364 364 363 364 362 362 362 361 360 360 360 361 362 360 359
358 359 358 357 357 357 358 360 360 361 361 362 361 360 360 360 359 358 357 356 357 359 358 357 357 358 364 360 362 363 365 362 361 364 363 362 361 361 359 359 359 359
355 356 355 353 352 352 355 356 356 358 359 360 360 361 362 364 362 360 357 357 356 356 356 353 354 356 345 346 346 350 359 360 360 363 366 365 363 363 362 360 360 360
352 354 354 355 354 353 352 353 354 355 357 357 358 358 361 362 363 363 364 362 359 358 357 355 356 334 333 334 340 341 350 360 358 358 360 362 363 362 362 361 360 359
353 353 353 354 355 356 356 356 355 353 354 355 355 358 358 360 363 363 363 363 363 363 361 360 360 333 331 333 333 335 337 352 357 358 356 358 360 362 363 363 364 362
355 353 352 353 354 354 354 354 354 353 355 357 357 358 357 359 362 362 363 364 363 363 364 362 357 335 330 330 331 331 333 340 361 362 360 358 359 361 360 363 365 365
346 346 347 348 350 351 352 353 353 353 352 353 355 357 356 358 360 360 361 361 360 360 360 356 345 328 327 328 328 329 331 340 361 365 365 362 363 364 366 363 364 364
338 339 341 342 345 349 350 348 349 350 351 354 354 357 357 357 357 357 357 357 358 358 357 348 341 322 325 325 324 325 332 356 365 366 364 364 367 367 367 369 367 366
335 334 335 337 338 338 339 341 344 345 348 350 353 354 354 353 354 353 355 354 355 356 356 350 343 325 318 319 320 322 340 363 365 364 365 365 365 366 366 366 367 365
336 338 338 335 334 333 334 338 340 341 344 348 348 349 351 350 351 350 350 351 350 351 352 344 336 323 314 315 316 318 338 361 363 361 362 362 363 363 365 365 363 359
333 333 333 335 336 336 337 338 338 339 342 345 347 348 347 350 352 349 348 349 349 346 344 341 337 329 314 313 313 314 336 359 360 359 358 359 359 360 361 361 358 358
330 332 333 333 334 334 336 338 339 339 341 343 346 349 352 349 350 345 342 344 345 345 344 339 334 331 324 311 311 313 317 350 357 355 350 355 357 357 358 358 356 351

ECMWFNIL_sfc_thetae_099.txt.gz
Theta_e
363 362 363 363 362 360 361 361 359 361 360 357 355 358 361 360 367 365 365 368 367 370 371 373 371 368 366 367 371 366 366 364 363 364 366 365 363 360 354 358 355 353
364 363 363 362 363 364 365 362 362 360 361 366 361 361 363 367 363 366 366 367 368 366 373 370 368 370 371 368 368 365 371 370 367 362 365 365 362 360 357 358 355 357
363 363 361 361 359 361 360 362 363 362 361 359 362 364 360 364 366 365 369 368 364 363 367 372 372 369 365 369 370 366 363 366 363 363 368 366 362 364 361 358 358 360
362 363 360 357 358 356 360 361 361 362 362 359 361 360 360 357 361 364 368 366 367 367 367 367 367 366 366 368 369 365 367 365 366 369 368 368 366 363 364 362 359 359
361 360 361 360 359 360 360 358 358 357 358 358 359 362 361 364 364 363 365 365 368 368 368 371 369 366 370 369 367 365 366 367 364 367 364 363 367 365 359 361 362 357
361 362 362 359 361 358 357 357 357 357 357 356 358 359 361 361 360 361 362 363 363 362 363 363 366 364 366 368 368 365 363 359 366 369 364 364 364 365 361 362 366 361
357 359 358 358 356 358 358 358 358 358 358 357 358 358 360 360 360 362 363 362 362 361 360 364 367 366 366 368 369 370 365 365 368 368 364 365 367 364 361 363 363 363
358 358 359 357 354 353 354 355 356 357 359 360 357 359 360 360 362 361 363 363 360 361 363 363 367 369 367 365 366 368 367 363 357 362 364 363 367 368 366 359 364 364
355 355 355 354 352 351 350 350 352 354 357 357 354 357 361 358 360 360 361 363 362 361 364 364 370 369 366 365 366 368 368 363 359 363 363 361 360 361 359 362 361 363
353 353 351 351 350 349 348 349 348 349 353 354 353 353 352 358 358 360 361 367 363 365 369 365 367 364 365 366 366 368 366 364 362 364 366 364 362 362 363 364 361 363
354 353 351 353 353 350 347 348 348 348 350 351 352 351 350 353 359 360 363 367 362 363 365 364 364 365 365 365 366 365 364 361 364 364 362 362 363 364 363 363 363 363
356 354 354 354 354 354 353 348 347 347 348 350 351 352 350 348 354 359 361 366 365 364 364 365 365 366 367 365 364 364 364 364 365 366 363 364 363 361 361 361 359 358
359 357 355 355 358 359 359 357 351 347 347 347 350 350 350 348 348 357 361 363 365 364 363 364 367 365 367 367 365 365 364 364 362 363 362 362 362 359 359 361 360 359
360 358 359 361 360 361 361 360 356 350 349 349 349 350 349 348 347 349 356 359 362 362 363 364 366 366 366 368 368 364 363 363 363 363 361 362 361 362 359 358 359 358
361 359 362 365 365 367 367 366 363 357 353 352 352 350 349 351 349 347 350 354 356 356 358 357 356 358 361 363 362 363 362 360 361 362 362 360 361 360 360 359 358 357
363 364 364 365 365 365 368 368 366 365 362 359 356 355 357 357 356 351 349 351 353 355 355 352 352 353 365 364 364 364 362 359 355 359 361 360 360 358 357 358 358 357
359 359 360 361 363 363 363 363 362 362 361 361 361 362 361 361 356 354 351 349 350 353 355 352 351 356 349 344 346 354 361 363 361 364 366 366 364 365 363 360 360 359
356 357 357 357 357 357 358 359 360 359 359 362 362 360 363 360 356 356 357 354 352 353 352 351 349 335 333 336 341 342 356 363 357 356 357 358 360 359 360 360 358 356
354 354 353 354 356 356 356 356 358 358 358 358 357 359 359 359 358 356 357 357 354 355 354 354 353 333 331 333 334 336 338 356 355 355 354 354 356 357 359 360 360 359
354 353 353 354 356 356 356 355 355 356 357 358 357 358 358 359 358 357 359 361 359 359 362 355 353 332 328 329 331 332 335 343 360 360 357 355 355 356 357 359 362 361
350 351 351 350 352 353 352 354 359 357 356 357 360 361 359 357 357 353 357 356 359 358 355 348 340 325 325 327 326 327 329 342 358 361 359 358 357 355 357 357 361 361
343 344 346 347 347 348 350 351 354 353 357 360 360 356 352 354 358 357 353 350 349 350 351 351 337 317 320 321 322 324 330 353 360 360 361 360 359 361 363 366 366 364
342 341 341 341 343 345 345 345 345 347 348 352 354 356 353 353 351 352 355 351 347 348 346 346 337 322 316 317 318 319 339 357 361 360 355 348 350 352 354 359 355 354
340 340 339 338 338 338 339 341 343 346 347 349 349 350 351 350 349 353 351 348 348 344 346 337 334 323 313 314 315 316 333 352 359 356 354 355 355 353 354 354 357 361
337 337 337 338 337 337 338 339 339 343 346 349 349 348 348 350 352 352 353 349 348 346 344 339 336 330 314 312 312 314 333 353 361 358 354 354 354 351 354 354 354 347
332 335 335 335 337 337 337 337 339 342 343 346 348 349 349 348 348 351 346 346 345 340 338 336 335 332 324 311 311 312 314 344 358 360 352 352 352 355 353 352 353 343

ECMWFNIL_sfc_thetae_102.txt.gz
Theta_e
364 361 360 360 364 363 364 360 360 359 365 361 360 364 367 365 366 366 365 370 368 367 369 372 374 372 363 371 376 368 379 370 373 370 371 368 369 360 353 354 364 363
365 364 366 362 365 369 368 363 363 363 366 366 370 369 366 367 363 366 365 368 368 367 370 368 370 372 372 371 372 370 375 374 370 361 366 367 366 362 359 360 356 363
363 362 361 359 358 359 360 360 364 362 360 363 364 367 361 366 361 369 368 368 367 362 370 371 371 371 369 371 374 370 366 370 366 361 373 369 366 367 366 355 357 357
362 362 359 358 358 359 359 363 363 365 362 361 359 359 358 358 364 362 370 369 368 369 367 367 368 365 368 369 371 369 370 373 370 375 371 371 370 366 364 366 359 363
357 358 356 357 358 361 360 359 357 357 357 362 357 363 366 365 363 363 365 365 368 366 369 371 368 367 371 372 371 370 368 370 369 373 371 368 371 368 360 363 372 360
362 364 365 359 360 360 356 355 357 355 355 357 357 360 355 362 361 362 363 360 359 359 361 362 366 363 365 368 370 369 366 360 366 370 368 369 364 363 357 362 365 362
356 358 356 357 354 356 356 358 357 358 355 353 359 358 359 358 360 361 362 362 359 363 359 366 366 367 366 371 371 369 371 371 369 370 368 367 370 365 360 361 368 363
357 356 356 357 354 354 355 354 353 355 359 359 354 358 359 356 361 355 359 361 357 361 363 363 366 372 363 365 368 369 365 358 359 368 368 366 369 372 371 361 365 370
357 357 357 354 352 351 350 351 352 354 357 355 353 353 357 359 358 356 365 365 363 365 366 362 366 365 366 365 366 368 366 361 359 363 364 361 360 364 362 366 362 366
357 359 355 354 351 350 349 349 349 351 355 353 353 352 353 359 361 360 366 370 363 366 367 367 369 367 366 363 367 366 367 369 367 367 363 363 362 361 360 363 363 367
354 356 353 357 359 356 349 349 348 347 349 350 351 351 351 353 361 362 364 369 358 361 364 368 365 366 366 360 364 363 367 362 364 365 364 365 364 366 363 367 366 364
350 349 352 354 357 358 356 348 347 346 346 347 348 350 353 350 354 354 356 366 366 364 363 365 366 366 367 365 360 362 362 363 364 366 362 364 363 360 362 364 360 363
351 351 351 353 359 362 361 355 349 346 344 345 347 349 349 348 347 355 360 360 366 363 360 363 365 362 367 367 364 362 363 363 359 361 365 362 360 359 357 358 358 358
360 358 361 364 366 365 365 363 358 354 352 352 355 349 346 346 347 347 352 355 359 361 363 365 366 364 368 368 366 363 359 362 361 361 361 358 359 362 357 354 355 357
365 367 367 368 368 367 365 365 363 358 358 357 357 352 345 347 347 346 348 351 355 361 363 360 356 360 363 363 361 366 362 359 358 358 359 359 359 356 357 360 359 356
366 366 365 365 367 367 367 367 364 364 361 363 363 363 360 360 363 359 349 347 350 353 356 356 354 353 358 365 363 363 364 360 358 364 361 361 362 361 358 356 355 355
365 363 364 364 365 365 366 367 366 366 365 364 364 364 367 366 365 359 353 349 345 346 350 349 349 344 335 339 348 358 362 364 364 367 365 364 360 361 362 362 359 358
361 361 361 360 361 361 362 362 363 363 362 362 361 360 364 360 358 359 360 356 349 349 349 351 345 333 330 333 336 337 352 365 358 360 359 361 360 356 356 356 355 354
357 357 356 357 358 358 360 360 360 360 360 359 355 356 359 359 357 357 359 353 348 349 352 351 345 329 329 330 331 333 337 356 358 361 354 353 356 358 355 352 349 349
353 354 352 354 354 356 359 359 358 357 358 357 356 357 358 359 358 361 361 354 351 352 354 349 343 329 326 328 329 331 334 347 360 360 357 356 359 356 352 354 352 352
349 350 349 350 352 354 354 354 354 354 353 355 357 357 356 357 360 360 356 351 352 355 355 349 333 321 323 324 325 328 333 351 361 360 360 360 357 356 354 353 356 356
343 343 344 346 348 349 349 350 350 350 350 353 353 353 355 358 359 357 353 351 350 352 351 350 333 318 318 320 322 325 333 357 361 362 360 356 355 354 355 356 355 354
343 343 343 342 343 342 342 343 344 346 348 349 347 350 353 353 354 351 352 351 349 350 349 341 332 320 316 316 318 321 342 357 360 360 359 357 356 355 355 357 358 358
343 343 342 342 341 340 341 343 345 346 347 347 345 344 347 351 352 349 351 348 348 347 345 336 330 321 314 314 314 317 335 353 359 358 355 357 356 355 355 356 353 355
340 340 342 342 340 339 340 340 342 344 347 349 348 347 347 350 352 348 348 348 349 346 343 337 332 326 314 312 313 314 331 350 358 356 352 354 354 354 354 356 347 337
333 337 338 337 337 339 341 341 343 345 347 347 347 348 345 345 347 347 346 346 346 342 340 334 329 326 320 311 311 313 317 344 355 350 348 347 350 351 351 353 349 338

ECMWFNIL_sfc_thetae_105.txt.gz
Theta_e
359 359 357 358 359 359 358 359 358 360 359 360 356 358 357 360 367 361 363 364 366 365 366 366 366 365 369 367 368 365 370 365 362 365 365 364 361 360 357 353 355 354
357 359 360 358 360 363 361 359 357 358 359 360 362 361 360 361 361 363 361 363 366 364 365 365 367 364 364 363 365 361 365 365 360 367 363 363 357 359 356 355 354 358
359 359 360 357 356 359 361 358 358 358 359 359 360 359 362 364 362 362 360 364 363 364 364 365 364 363 364 367 363 365 365 361 360 360 364 365 365 360 361 358 354 356
360 359 360 359 357 358 357 357 358 357 360 358 354 360 359 361 360 362 360 371 362 364 364 365 364 363 364 365 365 364 364 364 362 365 362 364 366 361 359 359 362 353
359 358 357 356 356 357 357 357 356 354 356 358 356 356 359 361 359 359 361 363 361 363 363 364 364 361 362 365 364 361 362 364 364 363 360 361 360 362 359 359 360 354
359 357 356 356 355 355 355 355 356 355 354 357 355 357 358 358 356 359 358 361 360 361 362 363 363 362 364 364 364 360 359 364 362 361 361 359 360 360 360 360 358 359
355 356 355 355 355 355 353 353 354 357 353 354 356 357 355 355 356 356 357 359 358 358 360 359 362 360 362 362 361 360 361 362 362 360 360 360 362 360 360 359 359 360
354 355 355 355 354 354 353 353 353 354 354 353 354 355 354 356 358 355 356 358 357 358 356 358 360 361 362 363 361 361 362 365 362 360 360 360 359 359 360 362 363 357
353 354 354 353 352 352 352 353 353 352 353 353 353 353 355 355 356 356 354 356 354 356 357 357 359 361 362 360 360 361 361 361 359 361 360 360 359 357 359 360 358 357
352 353 353 352 350 349 349 349 350 351 353 351 351 350 352 354 354 354 354 356 354 357 358 357 357 358 362 360 358 361 361 361 361 358 357 359 358 356 356 356 355 355
353 352 351 351 350 348 347 348 347 347 351 350 349 349 347 352 354 354 355 359 355 358 358 358 360 361 362 361 361 361 361 361 361 360 359 358 358 358 366 359 357 356
351 351 350 351 351 351 352 348 345 344 346 349 348 347 348 349 351 350 350 359 356 356 357 360 361 362 361 359 359 359 360 360 360 360 360 360 359 359 358 358 358 357
348 348 348 350 351 351 352 349 349 350 348 345 347 346 346 345 352 349 350 357 357 359 359 360 361 360 359 360 360 358 358 357 358 357 358 360 360 358 358 356 357 355
347 347 347 347 351 353 352 352 355 355 354 355 354 352 344 344 344 349 350 355 360 359 359 359 360 360 360 362 362 359 358 359 358 357 358 358 357 357 357 355 355 354
354 355 355 353 357 353 353 353 354 356 355 357 359 359 359 357 354 347 348 351 358 359 359 359 358 354 353 354 356 360 359 357 357 354 357 356 357 359 355 347 348 351
347 346 347 353 356 356 355 355 356 357 361 360 360 360 360 361 358 356 351 348 348 354 356 353 348 350 352 347 349 357 359 358 357 356 356 356 357 357 355 350 352 356
346 346 345 343 345 346 354 360 360 360 358 357 358 360 358 357 356 356 353 348 348 348 348 348 345 339 335 335 338 347 363 357 358 358 357 358 355 354 354 351 348 350
345 348 346 346 349 348 349 352 357 358 356 355 356 357 356 356 354 354 350 348 350 349 348 345 339 331 329 331 335 337 349 362 359 360 359 357 357 353 350 350 349 349
346 347 346 347 349 353 352 355 355 355 355 355 354 354 359 354 353 355 349 349 351 350 347 343 337 328 328 330 331 333 338 359 357 357 353 352 350 349 349 349 350 350
348 348 347 348 350 351 353 353 352 351 352 352 353 352 352 354 355 357 353 350 351 351 346 340 333 326 326 328 328 330 333 347 355 355 355 352 350 350 352 351 349 349
345 346 345 345 346 348 349 349 349 348 348 348 349 349 348 350 352 354 352 352 353 350 341 333 328 322 323 325 325 327 330 349 356 358 355 354 352 351 351 351 350 354
342 341 340 341 342 345 345 345 345 345 344 347 348 348 347 349 353 352 350 348 350 351 340 331 326 318 319 321 322 324 333 356 358 355 352 352 351 351 351 351 350 349
342 341 341 340 340 340 341 342 342 342 344 345 343 343 346 348 349 350 349 347 348 347 336 329 326 319 316 316 318 320 339 356 357 356 353 352 351 351 350 350 351 352
340 341 339 340 339 339 340 341 342 343 343 344 341 341 342 344 347 348 349 346 346 339 331 327 324 320 314 314 314 317 336 350 355 354 353 352 349 349 351 346 347 355
336 338 339 338 337 338 340 340 341 342 344 344 343 343 342 342 347 347 345 344 344 338 337 327 325 323 314 313 313 316 333 345 354 351 349 350 349 349 349 339 333 338
329 331 332 334 336 338 339 339 342 342 343 342 339 338 338 340 342 340 342 343 340 334 329 326 323 322 320 312 312 317 327 343 342 346 345 344 344 347 348 341 332 330

ECMWFNIL_sfc_thetae_108.txt.gz
Theta_e
357 356 355 355 355 358 357 356 357 357 356 356 352 352 353 355 363 359 359 361 362 362 364 362 362 361 365 364 363 363 365 361 360 359 358 359 357 357 355 353 352 346
357 358 360 358 357 361 357 357 356 357 357 357 354 353 355 357 360 360 359 361 363 361 362 363 361 359 359 359 360 357 357 361 355 367 359 358 357 357 356 354 355 352
357 356 357 355 357 358 358 358 356 357 357 358 356 357 357 360 357 360 359 360 361 361 361 362 360 360 360 360 358 358 358 356 355 357 359 358 360 357 355 357 355 354
356 356 356 355 356 357 359 357 355 357 358 357 358 359 359 361 357 358 358 368 360 360 361 361 361 360 360 361 359 358 359 357 358 356 358 356 359 360 358 356 359 356
355 356 356 356 355 356 356 355 355 355 356 355 354 357 358 358 357 358 357 360 360 360 360 362 361 360 359 358 359 358 358 359 359 358 355 354 356 358 357 357 355 353
357 356 357 357 355 355 354 354 355 354 356 355 352 356 355 357 356 357 358 358 360 360 360 361 360 360 359 358 359 358 357 360 360 357 356 355 355 357 360 359 354 352
357 356 356 357 355 354 354 353 354 355 354 356 354 353 354 356 355 356 357 357 358 359 358 358 358 358 359 358 357 357 355 358 357 356 356 356 357 358 358 357 356 355
355 357 356 355 354 353 353 352 353 354 353 354 353 353 354 354 353 355 356 357 357 356 357 358 358 358 359 359 357 356 356 360 359 355 354 354 353 353 356 358 358 355
354 355 355 353 353 352 352 352 352 352 353 351 353 353 354 353 353 353 354 354 355 355 355 356 357 358 358 359 358 357 356 357 359 356 354 354 355 355 355 356 356 354
352 354 354 353 352 351 351 351 351 351 352 351 351 352 353 353 353 353 353 353 354 354 354 354 356 357 358 358 357 357 357 356 357 356 356 357 356 356 355 354 353 352
351 352 352 351 350 349 351 351 350 350 350 350 350 350 352 352 353 354 352 352 353 353 353 354 354 355 356 358 357 357 358 358 358 357 356 355 355 356 362 355 353 352
351 351 351 350 350 348 347 349 349 348 348 350 349 348 349 350 351 352 352 352 352 353 353 354 354 354 355 358 358 358 357 358 358 358 358 357 356 354 350 349 349 350
349 350 350 350 350 349 349 348 346 344 343 345 346 346 346 347 350 351 352 352 353 353 354 354 355 356 356 357 358 357 357 357 357 357 357 356 350 349 348 348 349 351
347 348 349 349 350 350 349 349 347 349 350 353 356 353 348 343 345 349 350 351 353 353 354 356 356 357 357 357 358 356 356 355 355 355 355 349 349 350 350 350 349 350
345 347 348 350 351 348 348 348 348 350 353 356 356 356 357 356 353 346 347 348 351 354 354 356 357 358 357 356 355 355 357 356 355 355 354 350 348 349 349 348 349 349
344 345 345 346 347 348 350 350 346 353 355 355 355 356 356 356 352 351 346 346 349 354 352 351 351 353 354 351 355 354 353 356 356 355 353 352 350 349 349 349 350 350
345 345 344 343 344 344 345 350 352 354 354 354 354 354 352 353 351 347 346 347 347 351 348 348 347 345 341 335 339 348 357 354 355 354 353 352 352 349 347 348 348 350
342 344 343 343 345 346 344 346 350 352 351 352 353 353 351 352 351 347 345 346 347 347 346 344 341 336 329 332 336 338 351 357 356 355 355 353 353 351 349 347 346 346
342 344 343 342 344 347 346 347 348 351 350 350 349 351 353 347 348 347 346 347 346 344 343 341 336 330 328 331 334 334 338 360 356 356 353 352 352 349 347 346 346 346
343 342 343 343 345 347 348 348 349 348 348 348 349 348 347 348 350 348 347 347 347 344 340 337 334 328 324 326 328 332 336 347 354 353 351 350 348 347 347 346 346 346
345 345 344 344 344 345 344 344 344 344 346 347 346 346 345 346 348 348 347 349 347 342 337 332 329 323 321 323 323 325 333 353 353 353 351 350 349 349 348 348 347 349
341 340 340 340 341 342 342 341 341 342 341 345 345 343 344 345 346 347 346 345 346 341 336 332 330 319 319 320 320 322 328 354 354 352 351 351 351 351 349 347 347 347
340 339 339 339 339 339 339 339 339 339 341 344 340 340 340 342 345 349 348 346 346 342 334 329 329 321 316 317 317 318 331 354 353 351 350 350 350 351 350 350 349 348
338 338 338 339 338 338 338 339 340 341 341 343 338 338 339 340 342 346 346 345 344 337 333 329 325 320 314 314 314 316 328 346 351 350 350 349 350 349 346 344 351 359
333 335 336 337 337 337 338 338 340 341 343 342 341 341 339 338 344 345 343 342 344 338 338 327 326 325 316 314 314 316 332 343 349 346 347 348 347 347 340 336 339 345
331 333 333 333 334 336 337 338 341 340 338 337 336 336 338 337 339 342 342 339 334 329 327 326 324 323 321 313 313 315 322 340 343 347 348 347 348 346 339 332 330 329

ECMWFNIL_sfc_thetae_111.txt.gz
Theta_e
353 354 352 352 351 353 352 351 352 352 353 353 353 353 353 355 358 356 356 356 357 357 357 358 360 360 363 360 360 359 361 357 358 356 354 356 353 353 354 351 349 346
353 355 356 354 354 358 355 354 354 353 353 353 352 352 353 354 356 358 356 356 358 359 357 360 358 357 356 357 356 355 352 357 353 365 357 354 353 354 355 353 353 350
353 354 354 353 353 355 357 356 355 355 354 355 354 352 353 356 354 357 357 357 357 358 357 358 357 357 356 355 354 355 354 352 352 354 356 354 356 355 352 354 353 353
353 355 355 355 354 355 357 356 354 355 355 355 355 355 355 356 355 355 356 364 357 357 358 358 359 358 356 356 355 354 354 353 354 353 353 353 355 355 354 353 357 354
354 355 355 355 355 355 356 356 355 354 355 356 356 356 357 355 355 354 355 357 357 357 357 358 358 358 357 355 355 353 354 355 355 354 353 353 354 354 355 355 352 351
354 355 355 354 353 354 354 355 354 354 354 355 355 356 356 355 356 354 354 354 357 358 358 358 358 359 358 356 354 355 355 356 356 354 353 353 354 354 357 355 351 351
354 354 354 355 354 353 353 353 353 356 354 355 355 352 354 354 354 355 355 355 355 357 357 357 357 357 357 356 354 354 354 354 353 353 353 354 354 355 355 354 353 351
354 354 354 354 354 353 353 352 352 353 354 354 354 353 352 353 353 354 355 355 355 355 356 356 356 356 357 356 355 354 354 357 356 353 351 352 350 350 353 354 354 351
353 354 354 353 353 353 352 353 352 352 353 352 353 353 352 352 352 353 354 354 354 354 354 355 355 355 356 356 355 354 353 354 356 354 353 352 351 351 352 352 352 351
352 353 354 353 352 352 352 352 352 352 353 352 352 353 352 352 352 352 352 352 353 353 353 353 353 354 356 356 356 355 354 354 354 354 354 354 353 353 353 352 351 349
351 352 353 352 352 351 351 352 351 351 351 351 350 350 351 351 352 351 350 350 351 351 352 352 353 353 354 355 356 356 356 355 354 354 354 354 354 352 360 352 350 350
351 351 351 352 352 351 350 351 351 350 349 350 350 349 349 350 350 351 351 350 350 350 351 351 352 352 353 354 355 355 355 355 355 355 355 353 352 352 350 349 349 349
350 350 351 351 352 351 350 350 350 350 349 348 349 348 347 347 349 349 351 351 350 350 350 351 351 352 352 352 353 354 354 354 354 354 354 353 351 351 349 347 347 348
349 350 350 350 350 350 349 348 348 347 346 345 347 345 345 345 346 347 349 351 351 351 351 352 351 351 351 352 353 354 354 354 354 354 353 350 350 348 349 348 347 347
343 346 346 348 350 348 348 347 347 346 346 349 351 350 350 346 344 345 347 348 349 350 351 352 352 352 353 353 353 353 354 354 353 353 352 349 348 348 348 348 348 348
341 344 344 344 346 347 347 346 345 346 350 352 352 353 353 352 349 348 344 345 346 347 349 352 353 354 359 361 360 356 354 355 354 353 352 349 348 347 347 348 348 348
344 343 343 343 342 342 343 347 347 347 350 350 351 351 350 351 346 343 344 344 343 345 348 351 352 354 353 347 347 357 357 351 352 352 352 350 348 347 346 347 348 349
342 343 341 342 344 343 342 343 346 348 348 347 349 349 348 350 347 345 343 344 345 346 348 348 346 336 331 332 336 337 350 354 351 351 353 351 350 348 348 348 348 347
341 342 342 341 342 343 343 344 345 346 345 345 346 350 347 345 345 345 344 344 343 342 343 341 336 330 327 330 331 332 334 347 352 353 352 351 351 350 349 348 347 346
341 342 342 341 342 342 343 343 345 345 346 347 346 345 344 346 347 345 343 343 342 341 338 336 334 329 325 326 327 330 333 340 346 352 353 352 352 351 350 348 346 345
343 342 342 341 343 342 342 342 342 343 344 345 345 344 344 344 345 345 345 346 342 338 336 333 332 323 322 324 323 326 330 345 348 352 352 352 351 351 349 348 346 346
340 339 339 339 339 340 339 338 338 339 340 343 343 342 344 345 346 346 346 343 341 337 335 332 330 319 320 320 320 322 329 343 349 351 349 349 349 349 348 347 347 347
338 339 339 338 337 337 337 337 338 338 339 342 337 337 338 340 341 343 343 344 344 339 334 331 330 322 317 317 317 319 328 341 349 351 349 348 348 349 349 348 349 349
336 337 337 337 336 337 338 339 339 340 339 341 337 338 338 340 343 345 347 345 346 339 336 330 327 324 315 314 315 316 326 333 345 348 347 346 348 349 347 348 351 358
333 334 334 334 334 336 337 337 339 340 340 339 339 339 338 339 343 342 342 341 341 338 339 328 326 325 315 313 313 315 325 332 339 345 344 344 346 345 342 341 345 354
332 333 334 333 334 336 338 338 338 336 336 337 337 337 337 337 340 339 331 327 328 327 326 326 325 324 320 312 312 313 318 330 335 344 342 341 345 344 336 335 333 330

ECMWFNIL_sfc_thetae_114.txt.gz
Theta_e
351 352 352 352 352 352 352 352 352 353 353 355 354 355 356 358 361 361 361 361 361 361 360 360 365 365 366 365 366 362 363 361 363 361 360 362 360 359 357 358 357 356
352 355 357 355 355 357 354 353 353 354 354 355 355 356 357 358 358 361 360 359 361 362 361 361 363 364 363 364 364 362 360 363 360 366 363 361 361 359 359 359 358 357
352 355 355 354 353 355 356 356 355 355 355 355 356 356 356 359 357 359 360 359 359 360 361 361 363 364 362 362 361 363 362 359 359 359 362 360 361 362 361 359 359 359
352 354 355 355 354 354 357 357 356 357 357 357 357 357 356 357 359 357 359 364 360 360 361 361 362 363 363 362 361 360 360 360 360 360 360 361 361 360 361 359 362 360
353 354 355 356 356 356 358 358 357 356 357 358 358 359 359 358 358 357 357 358 361 360 360 361 362 362 362 361 361 360 360 360 361 361 361 360 361 361 360 361 360 358
354 355 356 356 356 356 356 357 357 356 357 357 358 359 359 358 357 358 357 357 358 360 360 360 361 361 361 361 360 360 360 359 361 361 360 360 360 359 358 360 360 359
354 354 355 356 355 355 356 357 357 359 356 357 359 358 359 358 357 358 358 358 357 360 360 360 361 361 362 362 360 360 359 359 359 360 359 359 360 360 359 360 361 359
355 355 355 356 355 354 355 355 356 357 358 358 356 357 357 357 358 357 358 358 357 357 360 360 361 361 360 361 360 359 359 358 358 359 359 359 357 357 358 357 359 359
355 354 355 355 355 354 354 354 354 355 357 356 356 356 357 356 356 356 357 358 358 358 358 359 360 359 360 360 360 359 359 358 359 359 359 358 357 357 357 357 357 358
354 355 354 354 354 355 354 354 354 354 356 355 355 355 355 356 356 355 356 356 357 358 357 358 358 358 359 359 360 359 359 359 359 359 359 358 358 358 358 358 358 357
353 354 354 354 354 354 354 354 354 354 355 355 354 354 354 355 356 356 355 355 354 355 357 357 357 357 357 357 359 360 359 359 359 359 358 359 359 359 361 360 359 358
353 353 353 354 354 354 354 354 354 354 353 354 354 354 354 354 354 354 354 354 354 355 356 356 357 357 357 357 357 359 359 359 359 359 358 359 358 358 358 360 359 358
353 353 353 354 355 355 355 354 353 353 352 352 353 353 353 352 352 353 355 355 354 354 353 354 355 355 356 357 357 358 358 358 358 358 358 359 360 359 358 357 356 356
352 353 353 353 354 355 354 354 354 353 353 353 353 352 351 351 350 350 351 354 354 354 354 355 355 354 355 356 357 357 357 357 357 357 357 358 360 359 358 356 356 354
351 352 352 353 354 353 352 352 352 352 352 351 352 351 350 350 350 350 350 350 352 354 354 354 353 353 354 355 355 356 356 356 357 357 357 358 357 356 355 355 355 354
350 350 350 350 351 351 351 351 351 351 350 350 350 350 351 351 350 349 348 348 349 351 352 352 352 354 357 358 358 357 356 356 356 358 358 358 358 356 354 354 353 354
347 348 348 348 349 350 350 350 350 350 350 351 352 353 354 355 354 350 349 347 347 348 349 350 352 353 349 344 345 353 360 358 357 358 359 358 357 356 355 355 354 354
346 346 346 346 347 347 348 350 351 350 350 350 352 353 354 354 351 348 349 349 348 347 347 348 351 338 333 334 337 339 348 357 357 356 356 356 356 355 355 354 354 353
345 345 345 345 346 346 346 348 351 352 351 351 351 353 353 349 348 348 349 349 349 350 349 348 343 330 328 330 331 332 335 348 351 355 354 354 355 355 355 355 355 354
343 344 344 344 344 346 347 347 350 350 350 348 344 341 341 342 345 346 348 349 347 346 344 342 338 327 324 325 325 328 331 339 346 349 352 354 355 355 354 355 354 353
343 343 343 343 344 344 345 345 345 343 343 343 342 341 341 342 343 345 348 348 345 343 343 336 330 322 322 323 322 323 329 341 347 350 352 354 355 355 356 355 355 353
341 341 343 343 343 342 342 340 338 339 340 342 342 342 343 344 344 344 343 344 345 343 342 339 330 319 319 321 321 323 332 340 343 347 351 353 353 354 354 354 353 353
338 339 339 339 340 340 339 338 338 339 340 342 339 340 341 342 344 345 345 344 345 345 342 336 330 321 316 317 318 322 334 337 339 342 347 350 352 353 353 353 353 352
337 337 338 338 338 337 337 338 339 339 340 342 338 338 339 341 343 344 346 345 346 342 340 332 328 322 313 313 314 318 333 337 338 340 341 345 348 352 352 352 351 357
335 336 336 337 337 337 339 339 339 339 340 340 339 339 338 339 344 343 340 334 336 336 337 329 327 323 314 312 313 315 328 337 338 339 339 342 345 347 350 348 347 352
335 336 336 337 337 337 337 337 338 337 337 337 337 337 336 334 333 332 329 328 329 329 328 327 324 322 319 311 311 313 319 333 335 336 336 336 338 342 344 347 346 344

ECMWFNIL_sfc_thetae_117.txt.gz
Theta_e
362 362 360 360 361 361 361 360 358 358 362 360 358 360 361 364 367 367 367 369 369 368 368 370 370 369 365 369 371 369 369 368 367 366 367 366 363 361 358 360 362 362
362 362 364 362 363 364 364 362 362 361 363 365 363 363 366 367 365 367 367 367 368 367 370 368 368 368 369 367 370 368 368 368 367 365 366 365 364 362 361 362 361 364
360 361 360 359 357 359 357 361 363 363 360 360 364 367 363 366 365 369 369 368 366 365 368 369 368 369 367 368 370 368 365 368 365 364 366 365 364 363 363 359 360 362
361 361 358 357 357 358 359 362 363 363 363 363 362 362 364 362 365 366 368 369 368 367 367 367 367 366 368 368 370 366 366 367 364 367 366 366 365 363 362 363 362 362
360 360 360 360 360 362 362 360 358 360 361 361 362 365 366 367 366 363 365 366 369 366 367 368 368 367 369 369 369 366 365 363 364 368 366 365 366 365 361 362 363 361
362 363 364 362 363 363 360 359 360 360 361 359 362 362 363 365 364 363 363 362 361 362 362 362 364 364 365 367 368 366 364 362 363 367 365 365 363 362 360 362 363 362
359 361 361 362 361 362 361 361 362 363 361 361 364 363 364 363 364 365 366 364 362 363 361 364 367 365 366 368 368 368 367 367 367 367 365 364 366 364 363 363 366 364
360 361 361 362 360 361 361 360 361 363 364 364 362 364 365 363 365 364 365 364 363 364 365 364 366 369 365 365 365 365 365 363 363 367 366 364 365 364 364 362 364 365
362 362 361 361 359 359 358 357 359 361 364 362 360 361 365 364 363 363 365 367 365 365 367 365 368 365 365 366 366 365 365 363 363 365 365 363 362 363 362 363 362 364
362 362 360 359 358 359 358 357 357 359 362 361 360 360 360 364 364 364 366 368 365 367 367 367 366 365 364 365 366 366 365 365 365 365 364 364 363 363 363 364 363 364
362 362 360 361 362 360 358 358 357 358 360 360 360 359 360 361 365 366 366 366 362 363 365 366 365 365 365 363 364 364 365 363 364 366 365 365 364 365 364 365 364 363
360 360 360 362 363 363 362 358 358 359 359 360 360 359 361 360 361 362 363 365 365 364 364 366 367 367 367 366 362 363 364 364 364 365 364 365 365 364 364 365 364 364
360 360 360 361 364 364 365 363 360 359 358 358 360 359 359 358 359 361 364 363 365 364 362 364 365 364 366 367 365 364 364 364 362 363 364 364 365 363 363 364 363 364
361 362 363 364 365 366 366 365 362 360 360 360 360 359 358 358 358 358 360 362 362 362 363 365 365 364 365 366 365 364 363 363 364 362 361 361 365 366 364 363 366 364
363 364 366 366 366 366 365 366 365 363 362 362 362 360 357 358 358 357 358 359 359 361 362 362 359 360 362 363 364 365 364 362 362 362 362 362 363 361 362 366 368 366
363 364 364 365 365 365 365 365 364 363 362 362 361 361 362 363 362 361 359 357 357 359 359 358 357 359 364 363 361 361 362 361 361 363 363 363 363 363 361 362 363 366
363 363 364 363 364 365 365 364 364 363 363 363 363 361 362 363 363 360 358 356 355 355 355 355 356 351 337 337 341 347 359 361 362 364 365 365 363 365 364 361 362 364
359 360 360 361 363 363 364 363 362 362 362 362 362 360 363 360 358 357 358 356 355 355 354 354 350 331 330 331 334 335 343 357 361 362 362 363 364 363 362 362 362 362
351 355 357 357 360 361 362 362 361 361 358 358 355 356 355 355 356 358 358 357 356 357 355 353 348 328 327 329 330 332 334 349 356 359 360 360 362 363 364 364 364 363
348 348 346 347 349 346 348 356 355 354 355 355 354 354 354 350 351 358 359 359 357 357 356 351 343 327 325 326 327 328 332 343 356 356 356 357 358 359 359 360 361 361
344 345 343 344 343 344 347 345 346 348 348 348 351 355 356 357 358 358 359 359 357 355 353 344 334 320 322 323 324 326 331 347 355 356 357 358 359 360 361 360 362 361
344 343 344 345 342 342 341 341 342 345 344 345 348 350 351 352 353 355 356 357 356 355 354 348 334 317 318 319 320 323 332 350 352 353 354 354 356 359 359 361 361 361
343 343 343 342 342 341 340 340 342 343 345 347 345 346 348 350 352 353 355 354 352 352 351 347 338 321 315 316 317 319 337 350 352 352 353 354 354 356 357 357 358 359
341 343 343 342 340 341 342 341 342 343 344 346 347 346 345 347 349 351 349 349 348 346 346 340 334 322 313 314 315 316 331 346 349 350 350 352 352 353 355 355 356 355
341 340 339 340 341 343 342 340 341 343 344 344 344 343 341 343 345 343 339 340 340 339 336 335 331 325 313 312 312 314 329 343 343 345 345 345 344 345 347 349 351 351
339 340 339 339 339 340 340 340 342 343 342 341 340 339 337 337 336 335 334 333 333 333 333 331 329 325 319 310 310 312 316 335 338 337 336 337 339 341 342 345 345 345